<?xml version="1.0" encoding="UTF-8" standalone="no" ?>
<gpx xmlns="http://www.topografix.com/GPX/1/1" xmlns:xsi="http://www.w3.org/2001/XMLSchema-instance" xsi:schemaLocation="http://www.topografix.com/GPX/1/1 http://www.topografix.com/GPX/1/1/gpx.xsd" version="1.1" creator="VisuGPX - https://www.visugpx.com">
  <metadata>
    <name>Vol à Saint Pabu</name>
  </metadata>
  <trk>
    <name><![CDATA[Track]]></name>
    <trkseg>
      <trkpt lat="48.60456" lon="-2.50513">
        <ele>76.3681640625</ele>
        <time>2025-08-01T15:38:14.000+02:00</time>
      </trkpt>
      <trkpt lat="48.60457" lon="-2.50511">
        <ele>72.860595703125</ele>
        <time>2025-08-01T15:38:19.000+02:00</time>
      </trkpt>
      <trkpt lat="48.60455" lon="-2.5051">
        <ele>72.990051269531</ele>
        <time>2025-08-01T15:38:24.000+02:00</time>
      </trkpt>
      <trkpt lat="48.60455" lon="-2.50509">
        <ele>70.987243652344</ele>
        <time>2025-08-01T15:38:29.000+02:00</time>
      </trkpt>
      <trkpt lat="48.60454" lon="-2.50508">
        <ele>70.601989746094</ele>
        <time>2025-08-01T15:38:34.000+02:00</time>
      </trkpt>
      <trkpt lat="48.60455" lon="-2.50508">
        <ele>69.429321289062</ele>
        <time>2025-08-01T15:38:39.000+02:00</time>
      </trkpt>
      <trkpt lat="48.60455" lon="-2.50508">
        <ele>69.37109375</ele>
        <time>2025-08-01T15:38:44.000+02:00</time>
      </trkpt>
      <trkpt lat="48.60455" lon="-2.50508">
        <ele>69.392272949219</ele>
        <time>2025-08-01T15:38:49.000+02:00</time>
      </trkpt>
      <trkpt lat="48.60455" lon="-2.50508">
        <ele>69.368041992188</ele>
        <time>2025-08-01T15:38:54.000+02:00</time>
      </trkpt>
      <trkpt lat="48.60455" lon="-2.50508">
        <ele>69.370849609375</ele>
        <time>2025-08-01T15:38:59.000+02:00</time>
      </trkpt>
      <trkpt lat="48.60455" lon="-2.50508">
        <ele>69.489624023438</ele>
        <time>2025-08-01T15:39:04.000+02:00</time>
      </trkpt>
      <trkpt lat="48.60455" lon="-2.50508">
        <ele>69.476745605469</ele>
        <time>2025-08-01T15:39:09.000+02:00</time>
      </trkpt>
      <trkpt lat="48.60455" lon="-2.50508">
        <ele>69.460205078125</ele>
        <time>2025-08-01T15:39:14.000+02:00</time>
      </trkpt>
      <trkpt lat="48.60455" lon="-2.50508">
        <ele>69.455505371094</ele>
        <time>2025-08-01T15:39:19.000+02:00</time>
      </trkpt>
      <trkpt lat="48.60455" lon="-2.50508">
        <ele>69.456481933594</ele>
        <time>2025-08-01T15:39:24.000+02:00</time>
      </trkpt>
      <trkpt lat="48.60455" lon="-2.50508">
        <ele>69.46044921875</ele>
        <time>2025-08-01T15:39:29.000+02:00</time>
      </trkpt>
      <trkpt lat="48.60455" lon="-2.50508">
        <ele>69.495483398438</ele>
        <time>2025-08-01T15:39:34.000+02:00</time>
      </trkpt>
      <trkpt lat="48.60455" lon="-2.50508">
        <ele>69.485656738281</ele>
        <time>2025-08-01T15:39:39.000+02:00</time>
      </trkpt>
      <trkpt lat="48.60455" lon="-2.50508">
        <ele>69.480712890625</ele>
        <time>2025-08-01T15:39:44.000+02:00</time>
      </trkpt>
      <trkpt lat="48.60455" lon="-2.50508">
        <ele>69.505737304688</ele>
        <time>2025-08-01T15:39:49.000+02:00</time>
      </trkpt>
      <trkpt lat="48.60455" lon="-2.50508">
        <ele>69.520141601562</ele>
        <time>2025-08-01T15:39:54.000+02:00</time>
      </trkpt>
      <trkpt lat="48.60455" lon="-2.50508">
        <ele>69.491638183594</ele>
        <time>2025-08-01T15:39:59.000+02:00</time>
      </trkpt>
      <trkpt lat="48.60455" lon="-2.50508">
        <ele>69.492065429688</ele>
        <time>2025-08-01T15:40:04.000+02:00</time>
      </trkpt>
      <trkpt lat="48.60455" lon="-2.50508">
        <ele>69.505981445312</ele>
        <time>2025-08-01T15:40:10.000+02:00</time>
      </trkpt>
      <trkpt lat="48.60455" lon="-2.50508">
        <ele>69.485107421875</ele>
        <time>2025-08-01T15:40:19.000+02:00</time>
      </trkpt>
      <trkpt lat="48.60455" lon="-2.50508">
        <ele>69.496704101562</ele>
        <time>2025-08-01T15:40:24.000+02:00</time>
      </trkpt>
      <trkpt lat="48.60455" lon="-2.50508">
        <ele>69.499694824219</ele>
        <time>2025-08-01T15:40:29.000+02:00</time>
      </trkpt>
      <trkpt lat="48.60455" lon="-2.50508">
        <ele>69.477783203125</ele>
        <time>2025-08-01T15:40:34.000+02:00</time>
      </trkpt>
      <trkpt lat="48.60455" lon="-2.50508">
        <ele>69.46435546875</ele>
        <time>2025-08-01T15:40:39.000+02:00</time>
      </trkpt>
      <trkpt lat="48.60455" lon="-2.50508">
        <ele>69.468688964844</ele>
        <time>2025-08-01T15:40:44.000+02:00</time>
      </trkpt>
      <trkpt lat="48.60455" lon="-2.50508">
        <ele>69.4658203125</ele>
        <time>2025-08-01T15:40:49.000+02:00</time>
      </trkpt>
      <trkpt lat="48.60455" lon="-2.50508">
        <ele>69.463256835938</ele>
        <time>2025-08-01T15:40:54.000+02:00</time>
      </trkpt>
      <trkpt lat="48.60455" lon="-2.50508">
        <ele>69.447937011719</ele>
        <time>2025-08-01T15:40:59.000+02:00</time>
      </trkpt>
      <trkpt lat="48.60455" lon="-2.50508">
        <ele>69.441772460938</ele>
        <time>2025-08-01T15:41:04.000+02:00</time>
      </trkpt>
      <trkpt lat="48.60455" lon="-2.50508">
        <ele>69.442016601562</ele>
        <time>2025-08-01T15:41:09.000+02:00</time>
      </trkpt>
      <trkpt lat="48.60455" lon="-2.50508">
        <ele>69.45361328125</ele>
        <time>2025-08-01T15:41:14.000+02:00</time>
      </trkpt>
      <trkpt lat="48.60455" lon="-2.50508">
        <ele>69.455505371094</ele>
        <time>2025-08-01T15:41:19.000+02:00</time>
      </trkpt>
      <trkpt lat="48.60455" lon="-2.50508">
        <ele>69.455932617188</ele>
        <time>2025-08-01T15:41:24.000+02:00</time>
      </trkpt>
      <trkpt lat="48.60455" lon="-2.50508">
        <ele>69.424438476562</ele>
        <time>2025-08-01T15:41:29.000+02:00</time>
      </trkpt>
      <trkpt lat="48.60455" lon="-2.50508">
        <ele>69.406799316406</ele>
        <time>2025-08-01T15:41:34.000+02:00</time>
      </trkpt>
      <trkpt lat="48.60455" lon="-2.50508">
        <ele>69.409729003906</ele>
        <time>2025-08-01T15:41:39.000+02:00</time>
      </trkpt>
      <trkpt lat="48.60455" lon="-2.50508">
        <ele>69.4072265625</ele>
        <time>2025-08-01T15:41:44.000+02:00</time>
      </trkpt>
      <trkpt lat="48.60455" lon="-2.50508">
        <ele>69.412719726562</ele>
        <time>2025-08-01T15:41:49.000+02:00</time>
      </trkpt>
      <trkpt lat="48.60455" lon="-2.50508">
        <ele>69.414916992188</ele>
        <time>2025-08-01T15:41:54.000+02:00</time>
      </trkpt>
      <trkpt lat="48.60455" lon="-2.50508">
        <ele>69.409362792969</ele>
        <time>2025-08-01T15:41:59.000+02:00</time>
      </trkpt>
      <trkpt lat="48.60455" lon="-2.50508">
        <ele>69.410522460938</ele>
        <time>2025-08-01T15:42:04.000+02:00</time>
      </trkpt>
      <trkpt lat="48.60455" lon="-2.50508">
        <ele>69.409973144531</ele>
        <time>2025-08-01T15:42:09.000+02:00</time>
      </trkpt>
      <trkpt lat="48.60455" lon="-2.50508">
        <ele>69.397766113281</ele>
        <time>2025-08-01T15:42:14.000+02:00</time>
      </trkpt>
      <trkpt lat="48.60455" lon="-2.50508">
        <ele>69.406921386719</ele>
        <time>2025-08-01T15:42:19.000+02:00</time>
      </trkpt>
      <trkpt lat="48.60455" lon="-2.50508">
        <ele>69.404174804688</ele>
        <time>2025-08-01T15:42:24.000+02:00</time>
      </trkpt>
      <trkpt lat="48.60455" lon="-2.50508">
        <ele>69.406005859375</ele>
        <time>2025-08-01T15:42:29.000+02:00</time>
      </trkpt>
      <trkpt lat="48.60455" lon="-2.50508">
        <ele>69.396789550781</ele>
        <time>2025-08-01T15:42:34.000+02:00</time>
      </trkpt>
      <trkpt lat="48.60455" lon="-2.50508">
        <ele>69.399780273438</ele>
        <time>2025-08-01T15:42:39.000+02:00</time>
      </trkpt>
      <trkpt lat="48.60455" lon="-2.50508">
        <ele>69.454223632812</ele>
        <time>2025-08-01T15:42:44.000+02:00</time>
      </trkpt>
      <trkpt lat="48.60455" lon="-2.50508">
        <ele>69.48388671875</ele>
        <time>2025-08-01T15:42:49.000+02:00</time>
      </trkpt>
      <trkpt lat="48.60455" lon="-2.50508">
        <ele>69.657348632812</ele>
        <time>2025-08-01T15:42:54.000+02:00</time>
      </trkpt>
      <trkpt lat="48.60455" lon="-2.50508">
        <ele>69.593505859375</ele>
        <time>2025-08-01T15:42:59.000+02:00</time>
      </trkpt>
      <trkpt lat="48.60455" lon="-2.50508">
        <ele>69.587585449219</ele>
        <time>2025-08-01T15:43:04.000+02:00</time>
      </trkpt>
      <trkpt lat="48.60455" lon="-2.50508">
        <ele>69.592590332031</ele>
        <time>2025-08-01T15:43:09.000+02:00</time>
      </trkpt>
      <trkpt lat="48.60455" lon="-2.50508">
        <ele>69.611938476562</ele>
        <time>2025-08-01T15:43:14.000+02:00</time>
      </trkpt>
      <trkpt lat="48.60455" lon="-2.50508">
        <ele>69.650268554688</ele>
        <time>2025-08-01T15:43:19.000+02:00</time>
      </trkpt>
      <trkpt lat="48.60455" lon="-2.50508">
        <ele>69.656555175781</ele>
        <time>2025-08-01T15:43:24.000+02:00</time>
      </trkpt>
      <trkpt lat="48.60455" lon="-2.50508">
        <ele>69.650451660156</ele>
        <time>2025-08-01T15:43:29.000+02:00</time>
      </trkpt>
      <trkpt lat="48.60455" lon="-2.50508">
        <ele>69.647827148438</ele>
        <time>2025-08-01T15:43:34.000+02:00</time>
      </trkpt>
      <trkpt lat="48.60455" lon="-2.50508">
        <ele>69.636657714844</ele>
        <time>2025-08-01T15:43:39.000+02:00</time>
      </trkpt>
      <trkpt lat="48.60455" lon="-2.50508">
        <ele>69.629760742188</ele>
        <time>2025-08-01T15:43:44.000+02:00</time>
      </trkpt>
      <trkpt lat="48.60455" lon="-2.50508">
        <ele>69.630920410156</ele>
        <time>2025-08-01T15:43:49.000+02:00</time>
      </trkpt>
      <trkpt lat="48.60455" lon="-2.50508">
        <ele>69.629943847656</ele>
        <time>2025-08-01T15:43:54.000+02:00</time>
      </trkpt>
      <trkpt lat="48.60455" lon="-2.50508">
        <ele>69.651245117188</ele>
        <time>2025-08-01T15:43:59.000+02:00</time>
      </trkpt>
      <trkpt lat="48.60455" lon="-2.50508">
        <ele>69.662109375</ele>
        <time>2025-08-01T15:44:04.000+02:00</time>
      </trkpt>
      <trkpt lat="48.60455" lon="-2.50508">
        <ele>69.664611816406</ele>
        <time>2025-08-01T15:44:09.000+02:00</time>
      </trkpt>
      <trkpt lat="48.60455" lon="-2.50508">
        <ele>69.672180175781</ele>
        <time>2025-08-01T15:44:14.000+02:00</time>
      </trkpt>
      <trkpt lat="48.60455" lon="-2.50508">
        <ele>69.682739257812</ele>
        <time>2025-08-01T15:44:19.000+02:00</time>
      </trkpt>
      <trkpt lat="48.60457" lon="-2.5051">
        <ele>65.470703125</ele>
        <time>2025-08-01T15:44:24.000+02:00</time>
      </trkpt>
      <trkpt lat="48.60475" lon="-2.50518">
        <ele>68.982727050781</ele>
        <time>2025-08-01T15:44:29.000+02:00</time>
      </trkpt>
      <trkpt lat="48.60475" lon="-2.50513">
        <ele>71.022033691406</ele>
        <time>2025-08-01T15:44:34.000+02:00</time>
      </trkpt>
      <trkpt lat="48.60474" lon="-2.50516">
        <ele>70.962707519531</ele>
        <time>2025-08-01T15:44:39.000+02:00</time>
      </trkpt>
      <trkpt lat="48.60476" lon="-2.50514">
        <ele>68.359741210938</ele>
        <time>2025-08-01T15:44:44.000+02:00</time>
      </trkpt>
      <trkpt lat="48.60476" lon="-2.50511">
        <ele>69.41943359375</ele>
        <time>2025-08-01T15:44:49.000+02:00</time>
      </trkpt>
      <trkpt lat="48.60476" lon="-2.5051">
        <ele>65.962585449219</ele>
        <time>2025-08-01T15:44:54.000+02:00</time>
      </trkpt>
      <trkpt lat="48.60476" lon="-2.50509">
        <ele>65.740417480469</ele>
        <time>2025-08-01T15:44:59.000+02:00</time>
      </trkpt>
      <trkpt lat="48.60477" lon="-2.50506">
        <ele>67.429809570312</ele>
        <time>2025-08-01T15:45:04.000+02:00</time>
      </trkpt>
      <trkpt lat="48.60476" lon="-2.50507">
        <ele>68.668701171875</ele>
        <time>2025-08-01T15:45:09.000+02:00</time>
      </trkpt>
      <trkpt lat="48.60475" lon="-2.50508">
        <ele>68.538269042969</ele>
        <time>2025-08-01T15:45:14.000+02:00</time>
      </trkpt>
      <trkpt lat="48.60474" lon="-2.50508">
        <ele>70.492004394531</ele>
        <time>2025-08-01T15:45:19.000+02:00</time>
      </trkpt>
      <trkpt lat="48.60474" lon="-2.50509">
        <ele>70.12841796875</ele>
        <time>2025-08-01T15:45:24.000+02:00</time>
      </trkpt>
      <trkpt lat="48.60474" lon="-2.5051">
        <ele>70.426696777344</ele>
        <time>2025-08-01T15:45:29.000+02:00</time>
      </trkpt>
      <trkpt lat="48.60474" lon="-2.5051">
        <ele>69.897888183594</ele>
        <time>2025-08-01T15:45:34.000+02:00</time>
      </trkpt>
      <trkpt lat="48.60474" lon="-2.5053">
        <ele>74.334533691406</ele>
        <time>2025-08-01T15:45:39.000+02:00</time>
      </trkpt>
      <trkpt lat="48.60464" lon="-2.50586">
        <ele>64.491577148438</ele>
        <time>2025-08-01T15:45:44.000+02:00</time>
      </trkpt>
      <trkpt lat="48.60448" lon="-2.50615">
        <ele>50.249938964844</ele>
        <time>2025-08-01T15:45:49.000+02:00</time>
      </trkpt>
      <trkpt lat="48.60436" lon="-2.5066">
        <ele>46.493469238281</ele>
        <time>2025-08-01T15:45:55.000+02:00</time>
      </trkpt>
      <trkpt lat="48.60415" lon="-2.50713">
        <ele>54.151611328125</ele>
        <time>2025-08-01T15:46:00.000+02:00</time>
      </trkpt>
      <trkpt lat="48.604" lon="-2.5077">
        <ele>70.501098632812</ele>
        <time>2025-08-01T15:46:05.000+02:00</time>
      </trkpt>
      <trkpt lat="48.60368" lon="-2.50881">
        <ele>69.943603515625</ele>
        <time>2025-08-01T15:46:15.000+02:00</time>
      </trkpt>
      <trkpt lat="48.60351" lon="-2.5092">
        <ele>75.616149902344</ele>
        <time>2025-08-01T15:46:20.000+02:00</time>
      </trkpt>
      <trkpt lat="48.60354" lon="-2.50945">
        <ele>84.289672851562</ele>
        <time>2025-08-01T15:46:25.000+02:00</time>
      </trkpt>
      <trkpt lat="48.60381" lon="-2.50864">
        <ele>97.462036132812</ele>
        <time>2025-08-01T15:46:34.000+02:00</time>
      </trkpt>
      <trkpt lat="48.60403" lon="-2.50801">
        <ele>99.706726074219</ele>
        <time>2025-08-01T15:46:40.000+02:00</time>
      </trkpt>
      <trkpt lat="48.60399" lon="-2.50699">
        <ele>106.63739013672</ele>
        <time>2025-08-01T15:46:49.000+02:00</time>
      </trkpt>
      <trkpt lat="48.60406" lon="-2.50625">
        <ele>106.23199462891</ele>
        <time>2025-08-01T15:46:54.000+02:00</time>
      </trkpt>
      <trkpt lat="48.60414" lon="-2.50621">
        <ele>105.29760742188</ele>
        <time>2025-08-01T15:46:59.000+02:00</time>
      </trkpt>
      <trkpt lat="48.60419" lon="-2.50613">
        <ele>104.49230957031</ele>
        <time>2025-08-01T15:47:05.000+02:00</time>
      </trkpt>
      <trkpt lat="48.60428" lon="-2.50629">
        <ele>114.59271240234</ele>
        <time>2025-08-01T15:47:10.000+02:00</time>
      </trkpt>
      <trkpt lat="48.60408" lon="-2.5066">
        <ele>121.50836181641</ele>
        <time>2025-08-01T15:47:19.000+02:00</time>
      </trkpt>
      <trkpt lat="48.60374" lon="-2.50722">
        <ele>126.86743164062</ele>
        <time>2025-08-01T15:47:25.000+02:00</time>
      </trkpt>
      <trkpt lat="48.60348" lon="-2.50761">
        <ele>124.85620117188</ele>
        <time>2025-08-01T15:47:30.000+02:00</time>
      </trkpt>
      <trkpt lat="48.60357" lon="-2.5074">
        <ele>129.01214599609</ele>
        <time>2025-08-01T15:47:40.000+02:00</time>
      </trkpt>
      <trkpt lat="48.60359" lon="-2.50746">
        <ele>140.14825439453</ele>
        <time>2025-08-01T15:47:45.000+02:00</time>
      </trkpt>
      <trkpt lat="48.60361" lon="-2.5073">
        <ele>146.46484375</ele>
        <time>2025-08-01T15:47:54.000+02:00</time>
      </trkpt>
      <trkpt lat="48.60356" lon="-2.50767">
        <ele>140.00396728516</ele>
        <time>2025-08-01T15:47:59.000+02:00</time>
      </trkpt>
      <trkpt lat="48.60372" lon="-2.50807">
        <ele>153.45758056641</ele>
        <time>2025-08-01T15:48:04.000+02:00</time>
      </trkpt>
      <trkpt lat="48.60369" lon="-2.50837">
        <ele>163.59094238281</ele>
        <time>2025-08-01T15:48:09.000+02:00</time>
      </trkpt>
      <trkpt lat="48.60368" lon="-2.50847">
        <ele>153.55712890625</ele>
        <time>2025-08-01T15:48:15.000+02:00</time>
      </trkpt>
      <trkpt lat="48.6038" lon="-2.50861">
        <ele>146.33337402344</ele>
        <time>2025-08-01T15:48:20.000+02:00</time>
      </trkpt>
      <trkpt lat="48.60383" lon="-2.50869">
        <ele>148.56066894531</ele>
        <time>2025-08-01T15:48:25.000+02:00</time>
      </trkpt>
      <trkpt lat="48.60376" lon="-2.50919">
        <ele>144.85180664062</ele>
        <time>2025-08-01T15:48:30.000+02:00</time>
      </trkpt>
      <trkpt lat="48.60355" lon="-2.5097">
        <ele>138.02221679688</ele>
        <time>2025-08-01T15:48:35.000+02:00</time>
      </trkpt>
      <trkpt lat="48.60336" lon="-2.51024">
        <ele>130.99658203125</ele>
        <time>2025-08-01T15:48:40.000+02:00</time>
      </trkpt>
      <trkpt lat="48.60299" lon="-2.51107">
        <ele>139.76867675781</ele>
        <time>2025-08-01T15:48:50.000+02:00</time>
      </trkpt>
      <trkpt lat="48.60315" lon="-2.51073">
        <ele>140.78527832031</ele>
        <time>2025-08-01T15:49:00.000+02:00</time>
      </trkpt>
      <trkpt lat="48.60321" lon="-2.51103">
        <ele>138.76416015625</ele>
        <time>2025-08-01T15:49:05.000+02:00</time>
      </trkpt>
      <trkpt lat="48.60332" lon="-2.51058">
        <ele>137.7138671875</ele>
        <time>2025-08-01T15:49:15.000+02:00</time>
      </trkpt>
      <trkpt lat="48.60349" lon="-2.51025">
        <ele>146.93347167969</ele>
        <time>2025-08-01T15:49:20.000+02:00</time>
      </trkpt>
      <trkpt lat="48.6037" lon="-2.51009">
        <ele>138.10168457031</ele>
        <time>2025-08-01T15:49:25.000+02:00</time>
      </trkpt>
      <trkpt lat="48.60344" lon="-2.51066">
        <ele>132.87261962891</ele>
        <time>2025-08-01T15:49:30.000+02:00</time>
      </trkpt>
      <trkpt lat="48.60317" lon="-2.5111">
        <ele>138.09942626953</ele>
        <time>2025-08-01T15:49:35.000+02:00</time>
      </trkpt>
      <trkpt lat="48.60293" lon="-2.51152">
        <ele>141.22393798828</ele>
        <time>2025-08-01T15:49:40.000+02:00</time>
      </trkpt>
      <trkpt lat="48.60298" lon="-2.51138">
        <ele>150.51531982422</ele>
        <time>2025-08-01T15:49:50.000+02:00</time>
      </trkpt>
      <trkpt lat="48.60309" lon="-2.51103">
        <ele>149.91931152344</ele>
        <time>2025-08-01T15:49:55.000+02:00</time>
      </trkpt>
      <trkpt lat="48.60304" lon="-2.51126">
        <ele>144.30334472656</ele>
        <time>2025-08-01T15:50:00.000+02:00</time>
      </trkpt>
      <trkpt lat="48.60321" lon="-2.51167">
        <ele>153.013671875</ele>
        <time>2025-08-01T15:50:05.000+02:00</time>
      </trkpt>
      <trkpt lat="48.60358" lon="-2.51198">
        <ele>162.95812988281</ele>
        <time>2025-08-01T15:50:15.000+02:00</time>
      </trkpt>
      <trkpt lat="48.60366" lon="-2.51167">
        <ele>162.05126953125</ele>
        <time>2025-08-01T15:50:20.000+02:00</time>
      </trkpt>
      <trkpt lat="48.60382" lon="-2.51055">
        <ele>154.1396484375</ele>
        <time>2025-08-01T15:50:30.000+02:00</time>
      </trkpt>
      <trkpt lat="48.60393" lon="-2.51009">
        <ele>158.33380126953</ele>
        <time>2025-08-01T15:50:35.000+02:00</time>
      </trkpt>
      <trkpt lat="48.60404" lon="-2.50964">
        <ele>158.18933105469</ele>
        <time>2025-08-01T15:50:40.000+02:00</time>
      </trkpt>
      <trkpt lat="48.60409" lon="-2.50902">
        <ele>148.94281005859</ele>
        <time>2025-08-01T15:50:45.000+02:00</time>
      </trkpt>
      <trkpt lat="48.60415" lon="-2.50754">
        <ele>147.87390136719</ele>
        <time>2025-08-01T15:50:55.000+02:00</time>
      </trkpt>
      <trkpt lat="48.60419" lon="-2.50723">
        <ele>131.23663330078</ele>
        <time>2025-08-01T15:51:00.000+02:00</time>
      </trkpt>
      <trkpt lat="48.60425" lon="-2.50693">
        <ele>136.07244873047</ele>
        <time>2025-08-01T15:51:05.000+02:00</time>
      </trkpt>
      <trkpt lat="48.60391" lon="-2.50792">
        <ele>125.90234375</ele>
        <time>2025-08-01T15:51:15.000+02:00</time>
      </trkpt>
      <trkpt lat="48.60371" lon="-2.50843">
        <ele>128.58563232422</ele>
        <time>2025-08-01T15:51:20.000+02:00</time>
      </trkpt>
      <trkpt lat="48.60345" lon="-2.50891">
        <ele>136.80462646484</ele>
        <time>2025-08-01T15:51:25.000+02:00</time>
      </trkpt>
      <trkpt lat="48.6035" lon="-2.50892">
        <ele>145.53295898438</ele>
        <time>2025-08-01T15:51:34.000+02:00</time>
      </trkpt>
      <trkpt lat="48.60353" lon="-2.50852">
        <ele>152.51245117188</ele>
        <time>2025-08-01T15:51:40.000+02:00</time>
      </trkpt>
      <trkpt lat="48.60344" lon="-2.50874">
        <ele>157.45288085938</ele>
        <time>2025-08-01T15:51:49.000+02:00</time>
      </trkpt>
      <trkpt lat="48.60359" lon="-2.50828">
        <ele>135.45434570312</ele>
        <time>2025-08-01T15:51:55.000+02:00</time>
      </trkpt>
      <trkpt lat="48.60368" lon="-2.50801">
        <ele>138.421875</ele>
        <time>2025-08-01T15:52:00.000+02:00</time>
      </trkpt>
      <trkpt lat="48.60368" lon="-2.50835">
        <ele>140.00201416016</ele>
        <time>2025-08-01T15:52:05.000+02:00</time>
      </trkpt>
      <trkpt lat="48.60365" lon="-2.50864">
        <ele>134.93908691406</ele>
        <time>2025-08-01T15:52:10.000+02:00</time>
      </trkpt>
      <trkpt lat="48.60389" lon="-2.50755">
        <ele>158.96472167969</ele>
        <time>2025-08-01T15:52:20.000+02:00</time>
      </trkpt>
      <trkpt lat="48.60398" lon="-2.50776">
        <ele>142.72332763672</ele>
        <time>2025-08-01T15:52:25.000+02:00</time>
      </trkpt>
      <trkpt lat="48.60395" lon="-2.5081">
        <ele>144.77600097656</ele>
        <time>2025-08-01T15:52:30.000+02:00</time>
      </trkpt>
      <trkpt lat="48.60391" lon="-2.50829">
        <ele>149.45886230469</ele>
        <time>2025-08-01T15:52:35.000+02:00</time>
      </trkpt>
      <trkpt lat="48.604" lon="-2.50791">
        <ele>141.052734375</ele>
        <time>2025-08-01T15:52:40.000+02:00</time>
      </trkpt>
      <trkpt lat="48.60398" lon="-2.50749">
        <ele>139.25439453125</ele>
        <time>2025-08-01T15:52:45.000+02:00</time>
      </trkpt>
      <trkpt lat="48.6041" lon="-2.50723">
        <ele>147.80053710938</ele>
        <time>2025-08-01T15:52:50.000+02:00</time>
      </trkpt>
      <trkpt lat="48.60417" lon="-2.50708">
        <ele>141.48693847656</ele>
        <time>2025-08-01T15:52:55.000+02:00</time>
      </trkpt>
      <trkpt lat="48.60422" lon="-2.50749">
        <ele>141.46575927734</ele>
        <time>2025-08-01T15:53:01.000+02:00</time>
      </trkpt>
      <trkpt lat="48.60429" lon="-2.50775">
        <ele>149.58520507812</ele>
        <time>2025-08-01T15:53:10.000+02:00</time>
      </trkpt>
      <trkpt lat="48.60436" lon="-2.50801">
        <ele>152.22644042969</ele>
        <time>2025-08-01T15:53:15.000+02:00</time>
      </trkpt>
      <trkpt lat="48.60396" lon="-2.50875">
        <ele>166.06622314453</ele>
        <time>2025-08-01T15:53:25.000+02:00</time>
      </trkpt>
      <trkpt lat="48.60406" lon="-2.50889">
        <ele>172.68127441406</ele>
        <time>2025-08-01T15:53:35.000+02:00</time>
      </trkpt>
      <trkpt lat="48.60411" lon="-2.50847">
        <ele>172.58935546875</ele>
        <time>2025-08-01T15:53:45.000+02:00</time>
      </trkpt>
      <trkpt lat="48.60403" lon="-2.50859">
        <ele>185.48547363281</ele>
        <time>2025-08-01T15:53:50.000+02:00</time>
      </trkpt>
      <trkpt lat="48.60409" lon="-2.50876">
        <ele>182.33770751953</ele>
        <time>2025-08-01T15:53:55.000+02:00</time>
      </trkpt>
      <trkpt lat="48.6042" lon="-2.50848">
        <ele>189.62829589844</ele>
        <time>2025-08-01T15:54:00.000+02:00</time>
      </trkpt>
      <trkpt lat="48.60431" lon="-2.50788">
        <ele>186.46520996094</ele>
        <time>2025-08-01T15:54:05.000+02:00</time>
      </trkpt>
      <trkpt lat="48.60441" lon="-2.50769">
        <ele>188.27032470703</ele>
        <time>2025-08-01T15:54:10.000+02:00</time>
      </trkpt>
      <trkpt lat="48.60455" lon="-2.50748">
        <ele>183.78698730469</ele>
        <time>2025-08-01T15:54:15.000+02:00</time>
      </trkpt>
      <trkpt lat="48.60407" lon="-2.50832">
        <ele>172.89691162109</ele>
        <time>2025-08-01T15:54:25.000+02:00</time>
      </trkpt>
      <trkpt lat="48.60358" lon="-2.50911">
        <ele>161.94818115234</ele>
        <time>2025-08-01T15:54:35.000+02:00</time>
      </trkpt>
      <trkpt lat="48.60351" lon="-2.50976">
        <ele>154.70141601562</ele>
        <time>2025-08-01T15:54:44.000+02:00</time>
      </trkpt>
      <trkpt lat="48.60345" lon="-2.51024">
        <ele>154.41955566406</ele>
        <time>2025-08-01T15:54:49.000+02:00</time>
      </trkpt>
      <trkpt lat="48.6032" lon="-2.51043">
        <ele>165.30181884766</ele>
        <time>2025-08-01T15:54:54.000+02:00</time>
      </trkpt>
      <trkpt lat="48.60317" lon="-2.51063">
        <ele>167.79425048828</ele>
        <time>2025-08-01T15:54:59.000+02:00</time>
      </trkpt>
      <trkpt lat="48.60346" lon="-2.51058">
        <ele>177.05004882812</ele>
        <time>2025-08-01T15:55:05.000+02:00</time>
      </trkpt>
      <trkpt lat="48.60347" lon="-2.51003">
        <ele>186.20434570312</ele>
        <time>2025-08-01T15:55:10.000+02:00</time>
      </trkpt>
      <trkpt lat="48.60353" lon="-2.50935">
        <ele>179.13342285156</ele>
        <time>2025-08-01T15:55:15.000+02:00</time>
      </trkpt>
      <trkpt lat="48.60364" lon="-2.50884">
        <ele>177.47833251953</ele>
        <time>2025-08-01T15:55:20.000+02:00</time>
      </trkpt>
      <trkpt lat="48.60374" lon="-2.50892">
        <ele>178.62841796875</ele>
        <time>2025-08-01T15:55:25.000+02:00</time>
      </trkpt>
      <trkpt lat="48.6038" lon="-2.50848">
        <ele>187.16778564453</ele>
        <time>2025-08-01T15:55:35.000+02:00</time>
      </trkpt>
      <trkpt lat="48.6038" lon="-2.50864">
        <ele>182.55303955078</ele>
        <time>2025-08-01T15:55:40.000+02:00</time>
      </trkpt>
      <trkpt lat="48.60379" lon="-2.50921">
        <ele>180.33837890625</ele>
        <time>2025-08-01T15:55:45.000+02:00</time>
      </trkpt>
      <trkpt lat="48.60378" lon="-2.50954">
        <ele>178.78112792969</ele>
        <time>2025-08-01T15:55:50.000+02:00</time>
      </trkpt>
      <trkpt lat="48.60383" lon="-2.50987">
        <ele>178.53759765625</ele>
        <time>2025-08-01T15:55:55.000+02:00</time>
      </trkpt>
      <trkpt lat="48.60378" lon="-2.51036">
        <ele>174.52990722656</ele>
        <time>2025-08-01T15:56:01.000+02:00</time>
      </trkpt>
      <trkpt lat="48.60353" lon="-2.5113">
        <ele>167.48431396484</ele>
        <time>2025-08-01T15:56:10.000+02:00</time>
      </trkpt>
      <trkpt lat="48.60322" lon="-2.51185">
        <ele>170.72894287109</ele>
        <time>2025-08-01T15:56:15.000+02:00</time>
      </trkpt>
      <trkpt lat="48.60293" lon="-2.51237">
        <ele>168.92810058594</ele>
        <time>2025-08-01T15:56:20.000+02:00</time>
      </trkpt>
      <trkpt lat="48.60269" lon="-2.51292">
        <ele>174.18090820312</ele>
        <time>2025-08-01T15:56:25.000+02:00</time>
      </trkpt>
      <trkpt lat="48.60227" lon="-2.51381">
        <ele>160.22216796875</ele>
        <time>2025-08-01T15:56:34.000+02:00</time>
      </trkpt>
      <trkpt lat="48.60209" lon="-2.51447">
        <ele>159.14636230469</ele>
        <time>2025-08-01T15:56:40.000+02:00</time>
      </trkpt>
      <trkpt lat="48.60187" lon="-2.515">
        <ele>162.81384277344</ele>
        <time>2025-08-01T15:56:45.000+02:00</time>
      </trkpt>
      <trkpt lat="48.60161" lon="-2.51546">
        <ele>157.57958984375</ele>
        <time>2025-08-01T15:56:50.000+02:00</time>
      </trkpt>
      <trkpt lat="48.60132" lon="-2.516">
        <ele>162.96099853516</ele>
        <time>2025-08-01T15:57:00.000+02:00</time>
      </trkpt>
      <trkpt lat="48.60125" lon="-2.51646">
        <ele>167.03564453125</ele>
        <time>2025-08-01T15:57:05.000+02:00</time>
      </trkpt>
      <trkpt lat="48.60118" lon="-2.51688">
        <ele>166.91479492188</ele>
        <time>2025-08-01T15:57:10.000+02:00</time>
      </trkpt>
      <trkpt lat="48.60116" lon="-2.51764">
        <ele>150.27380371094</ele>
        <time>2025-08-01T15:57:20.000+02:00</time>
      </trkpt>
      <trkpt lat="48.60109" lon="-2.51807">
        <ele>142.33068847656</ele>
        <time>2025-08-01T15:57:29.000+02:00</time>
      </trkpt>
      <trkpt lat="48.60105" lon="-2.51763">
        <ele>151.59143066406</ele>
        <time>2025-08-01T15:57:35.000+02:00</time>
      </trkpt>
      <trkpt lat="48.60098" lon="-2.51806">
        <ele>157.48187255859</ele>
        <time>2025-08-01T15:57:40.000+02:00</time>
      </trkpt>
      <trkpt lat="48.60092" lon="-2.51846">
        <ele>156.44464111328</ele>
        <time>2025-08-01T15:57:45.000+02:00</time>
      </trkpt>
      <trkpt lat="48.60098" lon="-2.51872">
        <ele>168.21575927734</ele>
        <time>2025-08-01T15:57:50.000+02:00</time>
      </trkpt>
      <trkpt lat="48.60098" lon="-2.51832">
        <ele>160.154296875</ele>
        <time>2025-08-01T15:57:55.000+02:00</time>
      </trkpt>
      <trkpt lat="48.60066" lon="-2.51891">
        <ele>158.53784179688</ele>
        <time>2025-08-01T15:58:05.000+02:00</time>
      </trkpt>
      <trkpt lat="48.60053" lon="-2.51935">
        <ele>159.9892578125</ele>
        <time>2025-08-01T15:58:10.000+02:00</time>
      </trkpt>
      <trkpt lat="48.60046" lon="-2.51995">
        <ele>158.67230224609</ele>
        <time>2025-08-01T15:58:15.000+02:00</time>
      </trkpt>
      <trkpt lat="48.60028" lon="-2.5205">
        <ele>162.0947265625</ele>
        <time>2025-08-01T15:58:20.000+02:00</time>
      </trkpt>
      <trkpt lat="48.60019" lon="-2.52107">
        <ele>161.94079589844</ele>
        <time>2025-08-01T15:58:25.000+02:00</time>
      </trkpt>
      <trkpt lat="48.60016" lon="-2.52168">
        <ele>175.01666259766</ele>
        <time>2025-08-01T15:58:35.000+02:00</time>
      </trkpt>
      <trkpt lat="48.60035" lon="-2.52144">
        <ele>174.5126953125</ele>
        <time>2025-08-01T15:58:45.000+02:00</time>
      </trkpt>
      <trkpt lat="48.60032" lon="-2.52152">
        <ele>167.59429931641</ele>
        <time>2025-08-01T15:58:50.000+02:00</time>
      </trkpt>
      <trkpt lat="48.60011" lon="-2.52199">
        <ele>175.21014404297</ele>
        <time>2025-08-01T15:58:55.000+02:00</time>
      </trkpt>
      <trkpt lat="48.60005" lon="-2.52215">
        <ele>176.28637695312</ele>
        <time>2025-08-01T15:59:05.000+02:00</time>
      </trkpt>
      <trkpt lat="48.60011" lon="-2.52208">
        <ele>166.02258300781</ele>
        <time>2025-08-01T15:59:10.000+02:00</time>
      </trkpt>
      <trkpt lat="48.60012" lon="-2.52267">
        <ele>181.99279785156</ele>
        <time>2025-08-01T15:59:19.000+02:00</time>
      </trkpt>
      <trkpt lat="48.60022" lon="-2.52247">
        <ele>177.96374511719</ele>
        <time>2025-08-01T15:59:25.000+02:00</time>
      </trkpt>
      <trkpt lat="48.60027" lon="-2.52202">
        <ele>182.01910400391</ele>
        <time>2025-08-01T15:59:30.000+02:00</time>
      </trkpt>
      <trkpt lat="48.60042" lon="-2.52192">
        <ele>174.30432128906</ele>
        <time>2025-08-01T15:59:35.000+02:00</time>
      </trkpt>
      <trkpt lat="48.60043" lon="-2.52216">
        <ele>176.57189941406</ele>
        <time>2025-08-01T15:59:40.000+02:00</time>
      </trkpt>
      <trkpt lat="48.6004" lon="-2.52236">
        <ele>170.52532958984</ele>
        <time>2025-08-01T15:59:49.000+02:00</time>
      </trkpt>
      <trkpt lat="48.60049" lon="-2.52192">
        <ele>171.16253662109</ele>
        <time>2025-08-01T15:59:55.000+02:00</time>
      </trkpt>
      <trkpt lat="48.60056" lon="-2.52229">
        <ele>174.44268798828</ele>
        <time>2025-08-01T16:00:00.000+02:00</time>
      </trkpt>
      <trkpt lat="48.60037" lon="-2.52286">
        <ele>166.70288085938</ele>
        <time>2025-08-01T16:00:05.000+02:00</time>
      </trkpt>
      <trkpt lat="48.60029" lon="-2.52345">
        <ele>160.66711425781</ele>
        <time>2025-08-01T16:00:10.000+02:00</time>
      </trkpt>
      <trkpt lat="48.60012" lon="-2.52395">
        <ele>159.01593017578</ele>
        <time>2025-08-01T16:00:15.000+02:00</time>
      </trkpt>
      <trkpt lat="48.59996" lon="-2.52442">
        <ele>153.7861328125</ele>
        <time>2025-08-01T16:00:20.000+02:00</time>
      </trkpt>
      <trkpt lat="48.59977" lon="-2.52483">
        <ele>148.89898681641</ele>
        <time>2025-08-01T16:00:25.000+02:00</time>
      </trkpt>
      <trkpt lat="48.5996" lon="-2.5254">
        <ele>158.1611328125</ele>
        <time>2025-08-01T16:00:30.000+02:00</time>
      </trkpt>
      <trkpt lat="48.59944" lon="-2.52597">
        <ele>144.33526611328</ele>
        <time>2025-08-01T16:00:35.000+02:00</time>
      </trkpt>
      <trkpt lat="48.59925" lon="-2.52656">
        <ele>139.49768066406</ele>
        <time>2025-08-01T16:00:40.000+02:00</time>
      </trkpt>
      <trkpt lat="48.59905" lon="-2.52711">
        <ele>135.50024414062</ele>
        <time>2025-08-01T16:00:45.000+02:00</time>
      </trkpt>
      <trkpt lat="48.59887" lon="-2.52778">
        <ele>152.72924804688</ele>
        <time>2025-08-01T16:00:50.000+02:00</time>
      </trkpt>
      <trkpt lat="48.59881" lon="-2.52828">
        <ele>142.02642822266</ele>
        <time>2025-08-01T16:00:55.000+02:00</time>
      </trkpt>
      <trkpt lat="48.59874" lon="-2.52885">
        <ele>154.41442871094</ele>
        <time>2025-08-01T16:01:00.000+02:00</time>
      </trkpt>
      <trkpt lat="48.59864" lon="-2.52944">
        <ele>150.80090332031</ele>
        <time>2025-08-01T16:01:05.000+02:00</time>
      </trkpt>
      <trkpt lat="48.59843" lon="-2.52991">
        <ele>131.91931152344</ele>
        <time>2025-08-01T16:01:10.000+02:00</time>
      </trkpt>
      <trkpt lat="48.5982" lon="-2.53043">
        <ele>123.95184326172</ele>
        <time>2025-08-01T16:01:15.000+02:00</time>
      </trkpt>
      <trkpt lat="48.59791" lon="-2.53153">
        <ele>113.88623046875</ele>
        <time>2025-08-01T16:01:24.000+02:00</time>
      </trkpt>
      <trkpt lat="48.59762" lon="-2.53201">
        <ele>117.25830078125</ele>
        <time>2025-08-01T16:01:30.000+02:00</time>
      </trkpt>
      <trkpt lat="48.59731" lon="-2.53271">
        <ele>125.49572753906</ele>
        <time>2025-08-01T16:01:39.000+02:00</time>
      </trkpt>
      <trkpt lat="48.59745" lon="-2.53262">
        <ele>117.15246582031</ele>
        <time>2025-08-01T16:01:44.000+02:00</time>
      </trkpt>
      <trkpt lat="48.59748" lon="-2.53291">
        <ele>109.05975341797</ele>
        <time>2025-08-01T16:01:49.000+02:00</time>
      </trkpt>
      <trkpt lat="48.59744" lon="-2.53288">
        <ele>111.26989746094</ele>
        <time>2025-08-01T16:01:54.000+02:00</time>
      </trkpt>
      <trkpt lat="48.59753" lon="-2.53263">
        <ele>102.9560546875</ele>
        <time>2025-08-01T16:02:00.000+02:00</time>
      </trkpt>
      <trkpt lat="48.5975" lon="-2.53307">
        <ele>108.37927246094</ele>
        <time>2025-08-01T16:02:05.000+02:00</time>
      </trkpt>
      <trkpt lat="48.59754" lon="-2.53309">
        <ele>121.59405517578</ele>
        <time>2025-08-01T16:02:15.000+02:00</time>
      </trkpt>
      <trkpt lat="48.59765" lon="-2.53275">
        <ele>124.67102050781</ele>
        <time>2025-08-01T16:02:20.000+02:00</time>
      </trkpt>
      <trkpt lat="48.59747" lon="-2.53326">
        <ele>143.03271484375</ele>
        <time>2025-08-01T16:02:29.000+02:00</time>
      </trkpt>
      <trkpt lat="48.59736" lon="-2.53371">
        <ele>142.0400390625</ele>
        <time>2025-08-01T16:02:35.000+02:00</time>
      </trkpt>
      <trkpt lat="48.59726" lon="-2.53443">
        <ele>134.91418457031</ele>
        <time>2025-08-01T16:02:44.000+02:00</time>
      </trkpt>
      <trkpt lat="48.59732" lon="-2.535">
        <ele>139.50891113281</ele>
        <time>2025-08-01T16:02:50.000+02:00</time>
      </trkpt>
      <trkpt lat="48.59728" lon="-2.53538">
        <ele>141.14660644531</ele>
        <time>2025-08-01T16:02:55.000+02:00</time>
      </trkpt>
      <trkpt lat="48.59725" lon="-2.53594">
        <ele>135.44012451172</ele>
        <time>2025-08-01T16:03:05.000+02:00</time>
      </trkpt>
      <trkpt lat="48.59713" lon="-2.5367">
        <ele>142.74328613281</ele>
        <time>2025-08-01T16:03:14.000+02:00</time>
      </trkpt>
      <trkpt lat="48.597" lon="-2.5371">
        <ele>132.63671875</ele>
        <time>2025-08-01T16:03:19.000+02:00</time>
      </trkpt>
      <trkpt lat="48.59692" lon="-2.53754">
        <ele>134.61169433594</ele>
        <time>2025-08-01T16:03:24.000+02:00</time>
      </trkpt>
      <trkpt lat="48.59685" lon="-2.53787">
        <ele>135.81689453125</ele>
        <time>2025-08-01T16:03:29.000+02:00</time>
      </trkpt>
      <trkpt lat="48.59677" lon="-2.53846">
        <ele>141.23150634766</ele>
        <time>2025-08-01T16:03:35.000+02:00</time>
      </trkpt>
      <trkpt lat="48.59673" lon="-2.53879">
        <ele>137.14453125</ele>
        <time>2025-08-01T16:03:40.000+02:00</time>
      </trkpt>
      <trkpt lat="48.59674" lon="-2.53907">
        <ele>133.66284179688</ele>
        <time>2025-08-01T16:03:45.000+02:00</time>
      </trkpt>
      <trkpt lat="48.59677" lon="-2.53945">
        <ele>137.12915039062</ele>
        <time>2025-08-01T16:03:50.000+02:00</time>
      </trkpt>
      <trkpt lat="48.59687" lon="-2.53988">
        <ele>140.64263916016</ele>
        <time>2025-08-01T16:03:59.000+02:00</time>
      </trkpt>
      <trkpt lat="48.59696" lon="-2.54009">
        <ele>136.93731689453</ele>
        <time>2025-08-01T16:04:05.000+02:00</time>
      </trkpt>
      <trkpt lat="48.59706" lon="-2.54026">
        <ele>146.71398925781</ele>
        <time>2025-08-01T16:04:15.000+02:00</time>
      </trkpt>
      <trkpt lat="48.59711" lon="-2.54042">
        <ele>144.83251953125</ele>
        <time>2025-08-01T16:04:20.000+02:00</time>
      </trkpt>
      <trkpt lat="48.59713" lon="-2.54052">
        <ele>140.55841064453</ele>
        <time>2025-08-01T16:04:25.000+02:00</time>
      </trkpt>
      <trkpt lat="48.59717" lon="-2.54089">
        <ele>133.39758300781</ele>
        <time>2025-08-01T16:04:35.000+02:00</time>
      </trkpt>
      <trkpt lat="48.5972" lon="-2.54137">
        <ele>134.85614013672</ele>
        <time>2025-08-01T16:04:44.000+02:00</time>
      </trkpt>
      <trkpt lat="48.59721" lon="-2.54163">
        <ele>133.16369628906</ele>
        <time>2025-08-01T16:04:50.000+02:00</time>
      </trkpt>
      <trkpt lat="48.59722" lon="-2.54182">
        <ele>131.79821777344</ele>
        <time>2025-08-01T16:04:55.000+02:00</time>
      </trkpt>
      <trkpt lat="48.59731" lon="-2.54213">
        <ele>141.96179199219</ele>
        <time>2025-08-01T16:05:04.000+02:00</time>
      </trkpt>
      <trkpt lat="48.59735" lon="-2.54233">
        <ele>140.73950195312</ele>
        <time>2025-08-01T16:05:09.000+02:00</time>
      </trkpt>
      <trkpt lat="48.5974" lon="-2.54256">
        <ele>139.07434082031</ele>
        <time>2025-08-01T16:05:14.000+02:00</time>
      </trkpt>
      <trkpt lat="48.59746" lon="-2.54275">
        <ele>139.64068603516</ele>
        <time>2025-08-01T16:05:20.000+02:00</time>
      </trkpt>
      <trkpt lat="48.59749" lon="-2.54296">
        <ele>139.3603515625</ele>
        <time>2025-08-01T16:05:25.000+02:00</time>
      </trkpt>
      <trkpt lat="48.59756" lon="-2.54335">
        <ele>127.04345703125</ele>
        <time>2025-08-01T16:05:35.000+02:00</time>
      </trkpt>
      <trkpt lat="48.59761" lon="-2.54376">
        <ele>140.42468261719</ele>
        <time>2025-08-01T16:05:44.000+02:00</time>
      </trkpt>
      <trkpt lat="48.59767" lon="-2.54397">
        <ele>145.21765136719</ele>
        <time>2025-08-01T16:05:49.000+02:00</time>
      </trkpt>
      <trkpt lat="48.59776" lon="-2.54415">
        <ele>149.02307128906</ele>
        <time>2025-08-01T16:05:54.000+02:00</time>
      </trkpt>
      <trkpt lat="48.59796" lon="-2.54376">
        <ele>150.35699462891</ele>
        <time>2025-08-01T16:06:00.000+02:00</time>
      </trkpt>
      <trkpt lat="48.59789" lon="-2.54392">
        <ele>145.07067871094</ele>
        <time>2025-08-01T16:06:10.000+02:00</time>
      </trkpt>
      <trkpt lat="48.59793" lon="-2.54422">
        <ele>134.92980957031</ele>
        <time>2025-08-01T16:06:20.000+02:00</time>
      </trkpt>
      <trkpt lat="48.59788" lon="-2.54439">
        <ele>135.58703613281</ele>
        <time>2025-08-01T16:06:25.000+02:00</time>
      </trkpt>
      <trkpt lat="48.59791" lon="-2.5444">
        <ele>141.06811523438</ele>
        <time>2025-08-01T16:06:35.000+02:00</time>
      </trkpt>
      <trkpt lat="48.59799" lon="-2.54502">
        <ele>138.45135498047</ele>
        <time>2025-08-01T16:06:45.000+02:00</time>
      </trkpt>
      <trkpt lat="48.59809" lon="-2.54557">
        <ele>139.00762939453</ele>
        <time>2025-08-01T16:06:55.000+02:00</time>
      </trkpt>
      <trkpt lat="48.59809" lon="-2.5459">
        <ele>134.412109375</ele>
        <time>2025-08-01T16:07:00.000+02:00</time>
      </trkpt>
      <trkpt lat="48.59808" lon="-2.5463">
        <ele>132.115234375</ele>
        <time>2025-08-01T16:07:05.000+02:00</time>
      </trkpt>
      <trkpt lat="48.59814" lon="-2.54662">
        <ele>133.56304931641</ele>
        <time>2025-08-01T16:07:10.000+02:00</time>
      </trkpt>
      <trkpt lat="48.59833" lon="-2.54718">
        <ele>138.42864990234</ele>
        <time>2025-08-01T16:07:20.000+02:00</time>
      </trkpt>
      <trkpt lat="48.59848" lon="-2.54779">
        <ele>152.75085449219</ele>
        <time>2025-08-01T16:07:30.000+02:00</time>
      </trkpt>
      <trkpt lat="48.5986" lon="-2.54826">
        <ele>137.16259765625</ele>
        <time>2025-08-01T16:07:40.000+02:00</time>
      </trkpt>
      <trkpt lat="48.59861" lon="-2.54854">
        <ele>132.58795166016</ele>
        <time>2025-08-01T16:07:45.000+02:00</time>
      </trkpt>
      <trkpt lat="48.59855" lon="-2.54887">
        <ele>129.54968261719</ele>
        <time>2025-08-01T16:07:50.000+02:00</time>
      </trkpt>
      <trkpt lat="48.59851" lon="-2.54922">
        <ele>127.56134033203</ele>
        <time>2025-08-01T16:07:55.000+02:00</time>
      </trkpt>
      <trkpt lat="48.59854" lon="-2.54966">
        <ele>123.12408447266</ele>
        <time>2025-08-01T16:08:04.000+02:00</time>
      </trkpt>
      <trkpt lat="48.59855" lon="-2.54982">
        <ele>123.59735107422</ele>
        <time>2025-08-01T16:08:09.000+02:00</time>
      </trkpt>
      <trkpt lat="48.59859" lon="-2.55006">
        <ele>114.69244384766</ele>
        <time>2025-08-01T16:08:15.000+02:00</time>
      </trkpt>
      <trkpt lat="48.59869" lon="-2.5505">
        <ele>117.35986328125</ele>
        <time>2025-08-01T16:08:25.000+02:00</time>
      </trkpt>
      <trkpt lat="48.59876" lon="-2.55078">
        <ele>114.32891845703</ele>
        <time>2025-08-01T16:08:30.000+02:00</time>
      </trkpt>
      <trkpt lat="48.59879" lon="-2.55128">
        <ele>108.96893310547</ele>
        <time>2025-08-01T16:08:40.000+02:00</time>
      </trkpt>
      <trkpt lat="48.59884" lon="-2.55183">
        <ele>116.66491699219</ele>
        <time>2025-08-01T16:08:50.000+02:00</time>
      </trkpt>
      <trkpt lat="48.59896" lon="-2.55211">
        <ele>126.30023193359</ele>
        <time>2025-08-01T16:09:00.000+02:00</time>
      </trkpt>
      <trkpt lat="48.59901" lon="-2.55221">
        <ele>133.13861083984</ele>
        <time>2025-08-01T16:09:05.000+02:00</time>
      </trkpt>
      <trkpt lat="48.59907" lon="-2.55228">
        <ele>138.82012939453</ele>
        <time>2025-08-01T16:09:10.000+02:00</time>
      </trkpt>
      <trkpt lat="48.59919" lon="-2.55137">
        <ele>123.64227294922</ele>
        <time>2025-08-01T16:09:20.000+02:00</time>
      </trkpt>
      <trkpt lat="48.59903" lon="-2.55019">
        <ele>126.36437988281</ele>
        <time>2025-08-01T16:09:29.000+02:00</time>
      </trkpt>
      <trkpt lat="48.59873" lon="-2.54936">
        <ele>119.93395996094</ele>
        <time>2025-08-01T16:09:34.000+02:00</time>
      </trkpt>
      <trkpt lat="48.59844" lon="-2.54876">
        <ele>118.90405273438</ele>
        <time>2025-08-01T16:09:39.000+02:00</time>
      </trkpt>
      <trkpt lat="48.59824" lon="-2.54794">
        <ele>111.50933837891</ele>
        <time>2025-08-01T16:09:45.000+02:00</time>
      </trkpt>
      <trkpt lat="48.59804" lon="-2.54654">
        <ele>107.21673583984</ele>
        <time>2025-08-01T16:09:54.000+02:00</time>
      </trkpt>
      <trkpt lat="48.59783" lon="-2.54573">
        <ele>113.10430908203</ele>
        <time>2025-08-01T16:10:00.000+02:00</time>
      </trkpt>
      <trkpt lat="48.59777" lon="-2.54468">
        <ele>121.11883544922</ele>
        <time>2025-08-01T16:10:10.000+02:00</time>
      </trkpt>
      <trkpt lat="48.59783" lon="-2.54467">
        <ele>128.71826171875</ele>
        <time>2025-08-01T16:10:15.000+02:00</time>
      </trkpt>
      <trkpt lat="48.5979" lon="-2.54444">
        <ele>131.36828613281</ele>
        <time>2025-08-01T16:10:24.000+02:00</time>
      </trkpt>
      <trkpt lat="48.59788" lon="-2.54403">
        <ele>138.71124267578</ele>
        <time>2025-08-01T16:10:30.000+02:00</time>
      </trkpt>
      <trkpt lat="48.59771" lon="-2.54424">
        <ele>144.60931396484</ele>
        <time>2025-08-01T16:10:35.000+02:00</time>
      </trkpt>
      <trkpt lat="48.59763" lon="-2.54376">
        <ele>155.05645751953</ele>
        <time>2025-08-01T16:10:45.000+02:00</time>
      </trkpt>
      <trkpt lat="48.59773" lon="-2.5432">
        <ele>146.75866699219</ele>
        <time>2025-08-01T16:10:55.000+02:00</time>
      </trkpt>
      <trkpt lat="48.59779" lon="-2.54326">
        <ele>129.53753662109</ele>
        <time>2025-08-01T16:11:00.000+02:00</time>
      </trkpt>
      <trkpt lat="48.5979" lon="-2.54336">
        <ele>132.46606445312</ele>
        <time>2025-08-01T16:11:05.000+02:00</time>
      </trkpt>
      <trkpt lat="48.59788" lon="-2.54374">
        <ele>133.42913818359</ele>
        <time>2025-08-01T16:11:10.000+02:00</time>
      </trkpt>
      <trkpt lat="48.59766" lon="-2.5446">
        <ele>136.59381103516</ele>
        <time>2025-08-01T16:11:19.000+02:00</time>
      </trkpt>
      <trkpt lat="48.59772" lon="-2.54487">
        <ele>140.80572509766</ele>
        <time>2025-08-01T16:11:25.000+02:00</time>
      </trkpt>
      <trkpt lat="48.59775" lon="-2.54506">
        <ele>145.02075195312</ele>
        <time>2025-08-01T16:11:34.000+02:00</time>
      </trkpt>
      <trkpt lat="48.59769" lon="-2.54465">
        <ele>147.51788330078</ele>
        <time>2025-08-01T16:11:39.000+02:00</time>
      </trkpt>
      <trkpt lat="48.59761" lon="-2.5444">
        <ele>136.00708007812</ele>
        <time>2025-08-01T16:11:44.000+02:00</time>
      </trkpt>
      <trkpt lat="48.5976" lon="-2.54476">
        <ele>142.35308837891</ele>
        <time>2025-08-01T16:11:50.000+02:00</time>
      </trkpt>
      <trkpt lat="48.59765" lon="-2.54496">
        <ele>144.67047119141</ele>
        <time>2025-08-01T16:11:55.000+02:00</time>
      </trkpt>
      <trkpt lat="48.59764" lon="-2.54407">
        <ele>148.21484375</ele>
        <time>2025-08-01T16:12:05.000+02:00</time>
      </trkpt>
      <trkpt lat="48.5977" lon="-2.54433">
        <ele>142.85888671875</ele>
        <time>2025-08-01T16:12:14.000+02:00</time>
      </trkpt>
      <trkpt lat="48.59774" lon="-2.54464">
        <ele>144.36755371094</ele>
        <time>2025-08-01T16:12:19.000+02:00</time>
      </trkpt>
      <trkpt lat="48.59772" lon="-2.54432">
        <ele>143.064453125</ele>
        <time>2025-08-01T16:12:24.000+02:00</time>
      </trkpt>
      <trkpt lat="48.59766" lon="-2.54373">
        <ele>138.86645507812</ele>
        <time>2025-08-01T16:12:30.000+02:00</time>
      </trkpt>
      <trkpt lat="48.59766" lon="-2.54384">
        <ele>162.07464599609</ele>
        <time>2025-08-01T16:12:40.000+02:00</time>
      </trkpt>
      <trkpt lat="48.59779" lon="-2.54382">
        <ele>165.29895019531</ele>
        <time>2025-08-01T16:12:50.000+02:00</time>
      </trkpt>
      <trkpt lat="48.59786" lon="-2.54394">
        <ele>172.04345703125</ele>
        <time>2025-08-01T16:12:55.000+02:00</time>
      </trkpt>
      <trkpt lat="48.59793" lon="-2.54372">
        <ele>170.84252929688</ele>
        <time>2025-08-01T16:13:00.000+02:00</time>
      </trkpt>
      <trkpt lat="48.59803" lon="-2.54371">
        <ele>180.94653320312</ele>
        <time>2025-08-01T16:13:05.000+02:00</time>
      </trkpt>
      <trkpt lat="48.5982" lon="-2.54373">
        <ele>183.44445800781</ele>
        <time>2025-08-01T16:13:10.000+02:00</time>
      </trkpt>
      <trkpt lat="48.59837" lon="-2.54377">
        <ele>205.00903320312</ele>
        <time>2025-08-01T16:13:15.000+02:00</time>
      </trkpt>
      <trkpt lat="48.59848" lon="-2.54384">
        <ele>198.95159912109</ele>
        <time>2025-08-01T16:13:20.000+02:00</time>
      </trkpt>
      <trkpt lat="48.59858" lon="-2.54393">
        <ele>205.58477783203</ele>
        <time>2025-08-01T16:13:25.000+02:00</time>
      </trkpt>
      <trkpt lat="48.59875" lon="-2.54413">
        <ele>191.37280273438</ele>
        <time>2025-08-01T16:13:35.000+02:00</time>
      </trkpt>
      <trkpt lat="48.59851" lon="-2.54344">
        <ele>181.97479248047</ele>
        <time>2025-08-01T16:13:44.000+02:00</time>
      </trkpt>
      <trkpt lat="48.59806" lon="-2.54351">
        <ele>177.86016845703</ele>
        <time>2025-08-01T16:13:50.000+02:00</time>
      </trkpt>
      <trkpt lat="48.5981" lon="-2.5436">
        <ele>185.58764648438</ele>
        <time>2025-08-01T16:13:55.000+02:00</time>
      </trkpt>
      <trkpt lat="48.59826" lon="-2.54361">
        <ele>190.28900146484</ele>
        <time>2025-08-01T16:14:00.000+02:00</time>
      </trkpt>
      <trkpt lat="48.59819" lon="-2.54305">
        <ele>192.07208251953</ele>
        <time>2025-08-01T16:14:09.000+02:00</time>
      </trkpt>
      <trkpt lat="48.59794" lon="-2.54314">
        <ele>197.66748046875</ele>
        <time>2025-08-01T16:14:15.000+02:00</time>
      </trkpt>
      <trkpt lat="48.59802" lon="-2.54312">
        <ele>203.92864990234</ele>
        <time>2025-08-01T16:14:20.000+02:00</time>
      </trkpt>
      <trkpt lat="48.59803" lon="-2.54279">
        <ele>202.05456542969</ele>
        <time>2025-08-01T16:14:33.000+02:00</time>
      </trkpt>
      <trkpt lat="48.5982" lon="-2.54233">
        <ele>209.33630371094</ele>
        <time>2025-08-01T16:14:40.000+02:00</time>
      </trkpt>
      <trkpt lat="48.59826" lon="-2.54176">
        <ele>205.68896484375</ele>
        <time>2025-08-01T16:14:45.000+02:00</time>
      </trkpt>
      <trkpt lat="48.59836" lon="-2.54097">
        <ele>210.92053222656</ele>
        <time>2025-08-01T16:14:51.000+02:00</time>
      </trkpt>
      <trkpt lat="48.59849" lon="-2.54036">
        <ele>208.49340820312</ele>
        <time>2025-08-01T16:15:01.000+02:00</time>
      </trkpt>
      <trkpt lat="48.59845" lon="-2.54105">
        <ele>198.10296630859</ele>
        <time>2025-08-01T16:15:10.000+02:00</time>
      </trkpt>
      <trkpt lat="48.59829" lon="-2.54141">
        <ele>196.78930664062</ele>
        <time>2025-08-01T16:15:16.000+02:00</time>
      </trkpt>
      <trkpt lat="48.59817" lon="-2.54196">
        <ele>190.37152099609</ele>
        <time>2025-08-01T16:15:25.000+02:00</time>
      </trkpt>
      <trkpt lat="48.59813" lon="-2.54243">
        <ele>183.58203125</ele>
        <time>2025-08-01T16:15:30.000+02:00</time>
      </trkpt>
      <trkpt lat="48.59805" lon="-2.54267">
        <ele>187.94287109375</ele>
        <time>2025-08-01T16:15:35.000+02:00</time>
      </trkpt>
      <trkpt lat="48.59798" lon="-2.54286">
        <ele>176.83990478516</ele>
        <time>2025-08-01T16:15:40.000+02:00</time>
      </trkpt>
      <trkpt lat="48.59791" lon="-2.54323">
        <ele>166.90625</ele>
        <time>2025-08-01T16:15:46.000+02:00</time>
      </trkpt>
      <trkpt lat="48.59787" lon="-2.54374">
        <ele>174.17938232422</ele>
        <time>2025-08-01T16:15:55.000+02:00</time>
      </trkpt>
      <trkpt lat="48.59787" lon="-2.54403">
        <ele>175.04028320312</ele>
        <time>2025-08-01T16:16:00.000+02:00</time>
      </trkpt>
      <trkpt lat="48.59791" lon="-2.5444">
        <ele>180.74145507812</ele>
        <time>2025-08-01T16:16:05.000+02:00</time>
      </trkpt>
      <trkpt lat="48.59799" lon="-2.54427">
        <ele>174.07421875</ele>
        <time>2025-08-01T16:16:10.000+02:00</time>
      </trkpt>
      <trkpt lat="48.59786" lon="-2.54361">
        <ele>172.07946777344</ele>
        <time>2025-08-01T16:16:15.000+02:00</time>
      </trkpt>
      <trkpt lat="48.59787" lon="-2.54297">
        <ele>169.85626220703</ele>
        <time>2025-08-01T16:16:21.000+02:00</time>
      </trkpt>
      <trkpt lat="48.59792" lon="-2.54301">
        <ele>176.71447753906</ele>
        <time>2025-08-01T16:16:26.000+02:00</time>
      </trkpt>
      <trkpt lat="48.59797" lon="-2.54327">
        <ele>171.97741699219</ele>
        <time>2025-08-01T16:16:31.000+02:00</time>
      </trkpt>
      <trkpt lat="48.59799" lon="-2.54345">
        <ele>171.63879394531</ele>
        <time>2025-08-01T16:16:36.000+02:00</time>
      </trkpt>
      <trkpt lat="48.59794" lon="-2.54398">
        <ele>168.84423828125</ele>
        <time>2025-08-01T16:16:45.000+02:00</time>
      </trkpt>
      <trkpt lat="48.59785" lon="-2.54423">
        <ele>165.15783691406</ele>
        <time>2025-08-01T16:16:50.000+02:00</time>
      </trkpt>
      <trkpt lat="48.59778" lon="-2.54455">
        <ele>163.56317138672</ele>
        <time>2025-08-01T16:16:55.000+02:00</time>
      </trkpt>
      <trkpt lat="48.59782" lon="-2.54484">
        <ele>164.53332519531</ele>
        <time>2025-08-01T16:17:00.000+02:00</time>
      </trkpt>
      <trkpt lat="48.5978" lon="-2.54503">
        <ele>174.00280761719</ele>
        <time>2025-08-01T16:17:05.000+02:00</time>
      </trkpt>
      <trkpt lat="48.59786" lon="-2.5448">
        <ele>169.30999755859</ele>
        <time>2025-08-01T16:17:10.000+02:00</time>
      </trkpt>
      <trkpt lat="48.59763" lon="-2.54416">
        <ele>152.98620605469</ele>
        <time>2025-08-01T16:17:15.000+02:00</time>
      </trkpt>
      <trkpt lat="48.59762" lon="-2.54372">
        <ele>157.083984375</ele>
        <time>2025-08-01T16:17:20.000+02:00</time>
      </trkpt>
      <trkpt lat="48.59773" lon="-2.54387">
        <ele>161.7724609375</ele>
        <time>2025-08-01T16:17:25.000+02:00</time>
      </trkpt>
      <trkpt lat="48.59776" lon="-2.54408">
        <ele>163.71002197266</ele>
        <time>2025-08-01T16:17:30.000+02:00</time>
      </trkpt>
      <trkpt lat="48.59778" lon="-2.54432">
        <ele>157.07965087891</ele>
        <time>2025-08-01T16:17:35.000+02:00</time>
      </trkpt>
      <trkpt lat="48.59783" lon="-2.54441">
        <ele>159.50701904297</ele>
        <time>2025-08-01T16:17:40.000+02:00</time>
      </trkpt>
      <trkpt lat="48.59787" lon="-2.54453">
        <ele>158.16833496094</ele>
        <time>2025-08-01T16:17:45.000+02:00</time>
      </trkpt>
      <trkpt lat="48.59784" lon="-2.54481">
        <ele>160.66656494141</ele>
        <time>2025-08-01T16:17:50.000+02:00</time>
      </trkpt>
      <trkpt lat="48.59783" lon="-2.54511">
        <ele>159.36712646484</ele>
        <time>2025-08-01T16:17:55.000+02:00</time>
      </trkpt>
      <trkpt lat="48.59787" lon="-2.54529">
        <ele>158.33331298828</ele>
        <time>2025-08-01T16:18:00.000+02:00</time>
      </trkpt>
      <trkpt lat="48.59772" lon="-2.5445">
        <ele>161.60614013672</ele>
        <time>2025-08-01T16:18:05.000+02:00</time>
      </trkpt>
      <trkpt lat="48.59742" lon="-2.54384">
        <ele>161.056640625</ele>
        <time>2025-08-01T16:18:10.000+02:00</time>
      </trkpt>
      <trkpt lat="48.5973" lon="-2.54313">
        <ele>157.35998535156</ele>
        <time>2025-08-01T16:18:15.000+02:00</time>
      </trkpt>
      <trkpt lat="48.59736" lon="-2.54303">
        <ele>160.12634277344</ele>
        <time>2025-08-01T16:18:21.000+02:00</time>
      </trkpt>
      <trkpt lat="48.59757" lon="-2.54319">
        <ele>165.78564453125</ele>
        <time>2025-08-01T16:18:30.000+02:00</time>
      </trkpt>
      <trkpt lat="48.59761" lon="-2.54283">
        <ele>163.04534912109</ele>
        <time>2025-08-01T16:18:35.000+02:00</time>
      </trkpt>
      <trkpt lat="48.59764" lon="-2.54297">
        <ele>158.99426269531</ele>
        <time>2025-08-01T16:18:41.000+02:00</time>
      </trkpt>
      <trkpt lat="48.59769" lon="-2.54278">
        <ele>167.18463134766</ele>
        <time>2025-08-01T16:18:50.000+02:00</time>
      </trkpt>
      <trkpt lat="48.59774" lon="-2.54244">
        <ele>165.52905273438</ele>
        <time>2025-08-01T16:18:56.000+02:00</time>
      </trkpt>
      <trkpt lat="48.5978" lon="-2.54279">
        <ele>163.70458984375</ele>
        <time>2025-08-01T16:19:01.000+02:00</time>
      </trkpt>
      <trkpt lat="48.5979" lon="-2.54311">
        <ele>180.287109375</ele>
        <time>2025-08-01T16:19:11.000+02:00</time>
      </trkpt>
      <trkpt lat="48.59789" lon="-2.54351">
        <ele>181.83264160156</ele>
        <time>2025-08-01T16:19:20.000+02:00</time>
      </trkpt>
      <trkpt lat="48.59806" lon="-2.54349">
        <ele>190.57995605469</ele>
        <time>2025-08-01T16:19:25.000+02:00</time>
      </trkpt>
      <trkpt lat="48.5981" lon="-2.54359">
        <ele>193.71337890625</ele>
        <time>2025-08-01T16:19:30.000+02:00</time>
      </trkpt>
      <trkpt lat="48.59809" lon="-2.54385">
        <ele>199.76416015625</ele>
        <time>2025-08-01T16:19:35.000+02:00</time>
      </trkpt>
      <trkpt lat="48.59815" lon="-2.5437">
        <ele>196.59643554688</ele>
        <time>2025-08-01T16:19:40.000+02:00</time>
      </trkpt>
      <trkpt lat="48.59819" lon="-2.54382">
        <ele>192.51354980469</ele>
        <time>2025-08-01T16:19:45.000+02:00</time>
      </trkpt>
      <trkpt lat="48.59816" lon="-2.54409">
        <ele>187.560546875</ele>
        <time>2025-08-01T16:19:50.000+02:00</time>
      </trkpt>
      <trkpt lat="48.5981" lon="-2.54439">
        <ele>189.998046875</ele>
        <time>2025-08-01T16:19:55.000+02:00</time>
      </trkpt>
      <trkpt lat="48.59809" lon="-2.54427">
        <ele>188.66345214844</ele>
        <time>2025-08-01T16:20:00.000+02:00</time>
      </trkpt>
      <trkpt lat="48.59802" lon="-2.5437">
        <ele>195.08862304688</ele>
        <time>2025-08-01T16:20:05.000+02:00</time>
      </trkpt>
      <trkpt lat="48.598" lon="-2.54354">
        <ele>206.48321533203</ele>
        <time>2025-08-01T16:20:11.000+02:00</time>
      </trkpt>
      <trkpt lat="48.59818" lon="-2.54412">
        <ele>209.05651855469</ele>
        <time>2025-08-01T16:20:20.000+02:00</time>
      </trkpt>
      <trkpt lat="48.59819" lon="-2.54434">
        <ele>212.52795410156</ele>
        <time>2025-08-01T16:20:25.000+02:00</time>
      </trkpt>
      <trkpt lat="48.59823" lon="-2.5447">
        <ele>206.64477539062</ele>
        <time>2025-08-01T16:20:30.000+02:00</time>
      </trkpt>
      <trkpt lat="48.59824" lon="-2.54497">
        <ele>207.36560058594</ele>
        <time>2025-08-01T16:20:35.000+02:00</time>
      </trkpt>
      <trkpt lat="48.59832" lon="-2.54494">
        <ele>201.19091796875</ele>
        <time>2025-08-01T16:20:40.000+02:00</time>
      </trkpt>
      <trkpt lat="48.59832" lon="-2.54442">
        <ele>187.20422363281</ele>
        <time>2025-08-01T16:20:45.000+02:00</time>
      </trkpt>
      <trkpt lat="48.59808" lon="-2.54376">
        <ele>182.56134033203</ele>
        <time>2025-08-01T16:20:50.000+02:00</time>
      </trkpt>
      <trkpt lat="48.59774" lon="-2.54323">
        <ele>174.28051757812</ele>
        <time>2025-08-01T16:20:55.000+02:00</time>
      </trkpt>
      <trkpt lat="48.59754" lon="-2.54264">
        <ele>177.66430664062</ele>
        <time>2025-08-01T16:21:00.000+02:00</time>
      </trkpt>
      <trkpt lat="48.59767" lon="-2.54275">
        <ele>178.34893798828</ele>
        <time>2025-08-01T16:21:06.000+02:00</time>
      </trkpt>
      <trkpt lat="48.59779" lon="-2.54324">
        <ele>170.4267578125</ele>
        <time>2025-08-01T16:21:15.000+02:00</time>
      </trkpt>
      <trkpt lat="48.59783" lon="-2.54348">
        <ele>166.42834472656</ele>
        <time>2025-08-01T16:21:20.000+02:00</time>
      </trkpt>
      <trkpt lat="48.59788" lon="-2.54387">
        <ele>170.59484863281</ele>
        <time>2025-08-01T16:21:25.000+02:00</time>
      </trkpt>
      <trkpt lat="48.59791" lon="-2.54409">
        <ele>168.6279296875</ele>
        <time>2025-08-01T16:21:30.000+02:00</time>
      </trkpt>
      <trkpt lat="48.59787" lon="-2.54435">
        <ele>163.96350097656</ele>
        <time>2025-08-01T16:21:35.000+02:00</time>
      </trkpt>
      <trkpt lat="48.59781" lon="-2.54449">
        <ele>150.51800537109</ele>
        <time>2025-08-01T16:21:40.000+02:00</time>
      </trkpt>
      <trkpt lat="48.59786" lon="-2.54478">
        <ele>152.21746826172</ele>
        <time>2025-08-01T16:21:45.000+02:00</time>
      </trkpt>
      <trkpt lat="48.59792" lon="-2.54481">
        <ele>154.59857177734</ele>
        <time>2025-08-01T16:21:50.000+02:00</time>
      </trkpt>
      <trkpt lat="48.59796" lon="-2.54492">
        <ele>160.54217529297</ele>
        <time>2025-08-01T16:21:55.000+02:00</time>
      </trkpt>
      <trkpt lat="48.59792" lon="-2.5452">
        <ele>164.59356689453</ele>
        <time>2025-08-01T16:22:00.000+02:00</time>
      </trkpt>
      <trkpt lat="48.59799" lon="-2.54523">
        <ele>161.9990234375</ele>
        <time>2025-08-01T16:22:05.000+02:00</time>
      </trkpt>
      <trkpt lat="48.59812" lon="-2.54534">
        <ele>163.57287597656</ele>
        <time>2025-08-01T16:22:10.000+02:00</time>
      </trkpt>
      <trkpt lat="48.59816" lon="-2.54551">
        <ele>159.52172851562</ele>
        <time>2025-08-01T16:22:15.000+02:00</time>
      </trkpt>
      <trkpt lat="48.59808" lon="-2.54589">
        <ele>155.30126953125</ele>
        <time>2025-08-01T16:22:20.000+02:00</time>
      </trkpt>
      <trkpt lat="48.59799" lon="-2.54633">
        <ele>152.07653808594</ele>
        <time>2025-08-01T16:22:25.000+02:00</time>
      </trkpt>
      <trkpt lat="48.59797" lon="-2.54654">
        <ele>156.49212646484</ele>
        <time>2025-08-01T16:22:30.000+02:00</time>
      </trkpt>
      <trkpt lat="48.59792" lon="-2.54608">
        <ele>158.03436279297</ele>
        <time>2025-08-01T16:22:35.000+02:00</time>
      </trkpt>
      <trkpt lat="48.59774" lon="-2.54548">
        <ele>160.66717529297</ele>
        <time>2025-08-01T16:22:40.000+02:00</time>
      </trkpt>
      <trkpt lat="48.59756" lon="-2.54469">
        <ele>160.02880859375</ele>
        <time>2025-08-01T16:22:45.000+02:00</time>
      </trkpt>
      <trkpt lat="48.59761" lon="-2.54419">
        <ele>144.33123779297</ele>
        <time>2025-08-01T16:22:51.000+02:00</time>
      </trkpt>
      <trkpt lat="48.59765" lon="-2.5445">
        <ele>143.880859375</ele>
        <time>2025-08-01T16:22:56.000+02:00</time>
      </trkpt>
      <trkpt lat="48.59777" lon="-2.54512">
        <ele>154.21313476562</ele>
        <time>2025-08-01T16:23:05.000+02:00</time>
      </trkpt>
      <trkpt lat="48.59785" lon="-2.54507">
        <ele>153.265625</ele>
        <time>2025-08-01T16:23:10.000+02:00</time>
      </trkpt>
      <trkpt lat="48.59764" lon="-2.54456">
        <ele>153.05297851562</ele>
        <time>2025-08-01T16:23:15.000+02:00</time>
      </trkpt>
      <trkpt lat="48.59747" lon="-2.54387">
        <ele>158.17401123047</ele>
        <time>2025-08-01T16:23:20.000+02:00</time>
      </trkpt>
      <trkpt lat="48.59755" lon="-2.54355">
        <ele>148.44201660156</ele>
        <time>2025-08-01T16:23:25.000+02:00</time>
      </trkpt>
      <trkpt lat="48.59763" lon="-2.54362">
        <ele>147.81707763672</ele>
        <time>2025-08-01T16:23:30.000+02:00</time>
      </trkpt>
      <trkpt lat="48.5977" lon="-2.54389">
        <ele>140.97766113281</ele>
        <time>2025-08-01T16:23:35.000+02:00</time>
      </trkpt>
      <trkpt lat="48.5978" lon="-2.54424">
        <ele>146.17193603516</ele>
        <time>2025-08-01T16:23:40.000+02:00</time>
      </trkpt>
      <trkpt lat="48.59779" lon="-2.54456">
        <ele>155.10192871094</ele>
        <time>2025-08-01T16:23:45.000+02:00</time>
      </trkpt>
      <trkpt lat="48.59781" lon="-2.54492">
        <ele>146.63586425781</ele>
        <time>2025-08-01T16:23:50.000+02:00</time>
      </trkpt>
      <trkpt lat="48.59787" lon="-2.54517">
        <ele>134.53680419922</ele>
        <time>2025-08-01T16:23:55.000+02:00</time>
      </trkpt>
      <trkpt lat="48.59804" lon="-2.54482">
        <ele>128.33605957031</ele>
        <time>2025-08-01T16:24:00.000+02:00</time>
      </trkpt>
      <trkpt lat="48.59808" lon="-2.54493">
        <ele>128.50518798828</ele>
        <time>2025-08-01T16:24:05.000+02:00</time>
      </trkpt>
      <trkpt lat="48.59808" lon="-2.54541">
        <ele>131.70666503906</ele>
        <time>2025-08-01T16:24:10.000+02:00</time>
      </trkpt>
      <trkpt lat="48.59802" lon="-2.54555">
        <ele>132.42956542969</ele>
        <time>2025-08-01T16:24:15.000+02:00</time>
      </trkpt>
      <trkpt lat="48.59802" lon="-2.54572">
        <ele>139.64959716797</ele>
        <time>2025-08-01T16:24:20.000+02:00</time>
      </trkpt>
      <trkpt lat="48.59809" lon="-2.54538">
        <ele>144.45251464844</ele>
        <time>2025-08-01T16:24:25.000+02:00</time>
      </trkpt>
      <trkpt lat="48.59799" lon="-2.5448">
        <ele>144.61584472656</ele>
        <time>2025-08-01T16:24:30.000+02:00</time>
      </trkpt>
      <trkpt lat="48.59776" lon="-2.5443">
        <ele>138.10833740234</ele>
        <time>2025-08-01T16:24:35.000+02:00</time>
      </trkpt>
      <trkpt lat="48.59777" lon="-2.54377">
        <ele>145.64562988281</ele>
        <time>2025-08-01T16:24:41.000+02:00</time>
      </trkpt>
      <trkpt lat="48.59788" lon="-2.54377">
        <ele>148.89575195312</ele>
        <time>2025-08-01T16:24:46.000+02:00</time>
      </trkpt>
      <trkpt lat="48.59801" lon="-2.54393">
        <ele>155.3466796875</ele>
        <time>2025-08-01T16:24:55.000+02:00</time>
      </trkpt>
      <trkpt lat="48.5981" lon="-2.54394">
        <ele>154.75927734375</ele>
        <time>2025-08-01T16:25:00.000+02:00</time>
      </trkpt>
      <trkpt lat="48.59818" lon="-2.54429">
        <ele>151.99768066406</ele>
        <time>2025-08-01T16:25:05.000+02:00</time>
      </trkpt>
      <trkpt lat="48.59832" lon="-2.54468">
        <ele>155.068359375</ele>
        <time>2025-08-01T16:25:10.000+02:00</time>
      </trkpt>
      <trkpt lat="48.59842" lon="-2.54504">
        <ele>140.42272949219</ele>
        <time>2025-08-01T16:25:15.000+02:00</time>
      </trkpt>
      <trkpt lat="48.59845" lon="-2.54517">
        <ele>152.03259277344</ele>
        <time>2025-08-01T16:25:21.000+02:00</time>
      </trkpt>
      <trkpt lat="48.59845" lon="-2.54543">
        <ele>139.36370849609</ele>
        <time>2025-08-01T16:25:26.000+02:00</time>
      </trkpt>
      <trkpt lat="48.59847" lon="-2.5461">
        <ele>140.33721923828</ele>
        <time>2025-08-01T16:25:35.000+02:00</time>
      </trkpt>
      <trkpt lat="48.59851" lon="-2.54651">
        <ele>140.75378417969</ele>
        <time>2025-08-01T16:25:40.000+02:00</time>
      </trkpt>
      <trkpt lat="48.59854" lon="-2.54688">
        <ele>138.71643066406</ele>
        <time>2025-08-01T16:25:45.000+02:00</time>
      </trkpt>
      <trkpt lat="48.59862" lon="-2.54734">
        <ele>150.23333740234</ele>
        <time>2025-08-01T16:25:51.000+02:00</time>
      </trkpt>
      <trkpt lat="48.59872" lon="-2.5479">
        <ele>152.88720703125</ele>
        <time>2025-08-01T16:25:56.000+02:00</time>
      </trkpt>
      <trkpt lat="48.59872" lon="-2.54827">
        <ele>143.69409179688</ele>
        <time>2025-08-01T16:26:01.000+02:00</time>
      </trkpt>
      <trkpt lat="48.59868" lon="-2.54889">
        <ele>133.02215576172</ele>
        <time>2025-08-01T16:26:10.000+02:00</time>
      </trkpt>
      <trkpt lat="48.59868" lon="-2.54924">
        <ele>123.2353515625</ele>
        <time>2025-08-01T16:26:15.000+02:00</time>
      </trkpt>
      <trkpt lat="48.59875" lon="-2.5497">
        <ele>123.1845703125</ele>
        <time>2025-08-01T16:26:20.000+02:00</time>
      </trkpt>
      <trkpt lat="48.59881" lon="-2.55014">
        <ele>126.41497802734</ele>
        <time>2025-08-01T16:26:25.000+02:00</time>
      </trkpt>
      <trkpt lat="48.59887" lon="-2.55042">
        <ele>138.28515625</ele>
        <time>2025-08-01T16:26:30.000+02:00</time>
      </trkpt>
      <trkpt lat="48.59893" lon="-2.55079">
        <ele>147.18420410156</ele>
        <time>2025-08-01T16:26:35.000+02:00</time>
      </trkpt>
      <trkpt lat="48.59901" lon="-2.551">
        <ele>151.28448486328</ele>
        <time>2025-08-01T16:26:40.000+02:00</time>
      </trkpt>
      <trkpt lat="48.59908" lon="-2.55134">
        <ele>153.69256591797</ele>
        <time>2025-08-01T16:26:45.000+02:00</time>
      </trkpt>
      <trkpt lat="48.5991" lon="-2.55166">
        <ele>155.44488525391</ele>
        <time>2025-08-01T16:26:50.000+02:00</time>
      </trkpt>
      <trkpt lat="48.5991" lon="-2.55184">
        <ele>151.35095214844</ele>
        <time>2025-08-01T16:26:55.000+02:00</time>
      </trkpt>
      <trkpt lat="48.5992" lon="-2.55199">
        <ele>154.98510742188</ele>
        <time>2025-08-01T16:27:00.000+02:00</time>
      </trkpt>
      <trkpt lat="48.59929" lon="-2.55223">
        <ele>145.49682617188</ele>
        <time>2025-08-01T16:27:05.000+02:00</time>
      </trkpt>
      <trkpt lat="48.5994" lon="-2.55237">
        <ele>148.70465087891</ele>
        <time>2025-08-01T16:27:10.000+02:00</time>
      </trkpt>
      <trkpt lat="48.59952" lon="-2.55243">
        <ele>146.84332275391</ele>
        <time>2025-08-01T16:27:15.000+02:00</time>
      </trkpt>
      <trkpt lat="48.59952" lon="-2.55206">
        <ele>152.99151611328</ele>
        <time>2025-08-01T16:27:20.000+02:00</time>
      </trkpt>
      <trkpt lat="48.59914" lon="-2.55157">
        <ele>146.82409667969</ele>
        <time>2025-08-01T16:27:25.000+02:00</time>
      </trkpt>
      <trkpt lat="48.59896" lon="-2.55087">
        <ele>149.30120849609</ele>
        <time>2025-08-01T16:27:30.000+02:00</time>
      </trkpt>
      <trkpt lat="48.59901" lon="-2.55115">
        <ele>140.9208984375</ele>
        <time>2025-08-01T16:27:36.000+02:00</time>
      </trkpt>
      <trkpt lat="48.59904" lon="-2.55189">
        <ele>143.29986572266</ele>
        <time>2025-08-01T16:27:45.000+02:00</time>
      </trkpt>
      <trkpt lat="48.59909" lon="-2.55213">
        <ele>145.90985107422</ele>
        <time>2025-08-01T16:27:50.000+02:00</time>
      </trkpt>
      <trkpt lat="48.59916" lon="-2.55243">
        <ele>149.62298583984</ele>
        <time>2025-08-01T16:27:55.000+02:00</time>
      </trkpt>
      <trkpt lat="48.59928" lon="-2.55252">
        <ele>151.45849609375</ele>
        <time>2025-08-01T16:28:00.000+02:00</time>
      </trkpt>
      <trkpt lat="48.59925" lon="-2.55211">
        <ele>147.71789550781</ele>
        <time>2025-08-01T16:28:05.000+02:00</time>
      </trkpt>
      <trkpt lat="48.59892" lon="-2.55152">
        <ele>146.25531005859</ele>
        <time>2025-08-01T16:28:10.000+02:00</time>
      </trkpt>
      <trkpt lat="48.59876" lon="-2.551">
        <ele>148.44232177734</ele>
        <time>2025-08-01T16:28:15.000+02:00</time>
      </trkpt>
      <trkpt lat="48.59886" lon="-2.55107">
        <ele>150.24639892578</ele>
        <time>2025-08-01T16:28:20.000+02:00</time>
      </trkpt>
      <trkpt lat="48.59887" lon="-2.55142">
        <ele>152.19909667969</ele>
        <time>2025-08-01T16:28:25.000+02:00</time>
      </trkpt>
      <trkpt lat="48.59888" lon="-2.55188">
        <ele>148.24084472656</ele>
        <time>2025-08-01T16:28:30.000+02:00</time>
      </trkpt>
      <trkpt lat="48.59894" lon="-2.55194">
        <ele>152.99151611328</ele>
        <time>2025-08-01T16:28:35.000+02:00</time>
      </trkpt>
      <trkpt lat="48.59879" lon="-2.55144">
        <ele>143.7255859375</ele>
        <time>2025-08-01T16:28:40.000+02:00</time>
      </trkpt>
      <trkpt lat="48.59864" lon="-2.55086">
        <ele>145.72912597656</ele>
        <time>2025-08-01T16:28:45.000+02:00</time>
      </trkpt>
      <trkpt lat="48.59853" lon="-2.55029">
        <ele>145.89392089844</ele>
        <time>2025-08-01T16:28:50.000+02:00</time>
      </trkpt>
      <trkpt lat="48.59847" lon="-2.54975">
        <ele>148.91516113281</ele>
        <time>2025-08-01T16:28:55.000+02:00</time>
      </trkpt>
      <trkpt lat="48.59851" lon="-2.54968">
        <ele>147.87585449219</ele>
        <time>2025-08-01T16:29:00.000+02:00</time>
      </trkpt>
      <trkpt lat="48.59868" lon="-2.5499">
        <ele>143.00256347656</ele>
        <time>2025-08-01T16:29:05.000+02:00</time>
      </trkpt>
      <trkpt lat="48.59877" lon="-2.55002">
        <ele>136.20080566406</ele>
        <time>2025-08-01T16:29:10.000+02:00</time>
      </trkpt>
      <trkpt lat="48.59885" lon="-2.54972">
        <ele>133.68572998047</ele>
        <time>2025-08-01T16:29:15.000+02:00</time>
      </trkpt>
      <trkpt lat="48.59871" lon="-2.54909">
        <ele>139.53961181641</ele>
        <time>2025-08-01T16:29:20.000+02:00</time>
      </trkpt>
      <trkpt lat="48.59855" lon="-2.5485">
        <ele>142.61584472656</ele>
        <time>2025-08-01T16:29:25.000+02:00</time>
      </trkpt>
      <trkpt lat="48.59823" lon="-2.54797">
        <ele>139.216796875</ele>
        <time>2025-08-01T16:29:30.000+02:00</time>
      </trkpt>
      <trkpt lat="48.5981" lon="-2.54736">
        <ele>134.60247802734</ele>
        <time>2025-08-01T16:29:35.000+02:00</time>
      </trkpt>
      <trkpt lat="48.59799" lon="-2.5468">
        <ele>126.81866455078</ele>
        <time>2025-08-01T16:29:40.000+02:00</time>
      </trkpt>
      <trkpt lat="48.59788" lon="-2.54623">
        <ele>124.40924072266</ele>
        <time>2025-08-01T16:29:45.000+02:00</time>
      </trkpt>
      <trkpt lat="48.59767" lon="-2.54555">
        <ele>135.51513671875</ele>
        <time>2025-08-01T16:29:50.000+02:00</time>
      </trkpt>
      <trkpt lat="48.59772" lon="-2.54502">
        <ele>137.97845458984</ele>
        <time>2025-08-01T16:29:55.000+02:00</time>
      </trkpt>
      <trkpt lat="48.59779" lon="-2.54463">
        <ele>133.46728515625</ele>
        <time>2025-08-01T16:30:00.000+02:00</time>
      </trkpt>
      <trkpt lat="48.59765" lon="-2.54414">
        <ele>137.53247070312</ele>
        <time>2025-08-01T16:30:05.000+02:00</time>
      </trkpt>
      <trkpt lat="48.59753" lon="-2.54367">
        <ele>137.68505859375</ele>
        <time>2025-08-01T16:30:10.000+02:00</time>
      </trkpt>
      <trkpt lat="48.59763" lon="-2.54354">
        <ele>137.03314208984</ele>
        <time>2025-08-01T16:30:15.000+02:00</time>
      </trkpt>
      <trkpt lat="48.59778" lon="-2.5437">
        <ele>137.98547363281</ele>
        <time>2025-08-01T16:30:20.000+02:00</time>
      </trkpt>
      <trkpt lat="48.59779" lon="-2.54402">
        <ele>137.13250732422</ele>
        <time>2025-08-01T16:30:25.000+02:00</time>
      </trkpt>
      <trkpt lat="48.5978" lon="-2.5445">
        <ele>141.63458251953</ele>
        <time>2025-08-01T16:30:30.000+02:00</time>
      </trkpt>
      <trkpt lat="48.59794" lon="-2.54453">
        <ele>146.97351074219</ele>
        <time>2025-08-01T16:30:35.000+02:00</time>
      </trkpt>
      <trkpt lat="48.59799" lon="-2.5441">
        <ele>146.81549072266</ele>
        <time>2025-08-01T16:30:40.000+02:00</time>
      </trkpt>
      <trkpt lat="48.59797" lon="-2.54417">
        <ele>151.81158447266</ele>
        <time>2025-08-01T16:30:45.000+02:00</time>
      </trkpt>
      <trkpt lat="48.59802" lon="-2.54444">
        <ele>155.36785888672</ele>
        <time>2025-08-01T16:30:50.000+02:00</time>
      </trkpt>
      <trkpt lat="48.59808" lon="-2.54426">
        <ele>155.11431884766</ele>
        <time>2025-08-01T16:30:55.000+02:00</time>
      </trkpt>
      <trkpt lat="48.59786" lon="-2.54374">
        <ele>153.99932861328</ele>
        <time>2025-08-01T16:31:00.000+02:00</time>
      </trkpt>
      <trkpt lat="48.59781" lon="-2.54355">
        <ele>150.02410888672</ele>
        <time>2025-08-01T16:31:06.000+02:00</time>
      </trkpt>
      <trkpt lat="48.59786" lon="-2.54369">
        <ele>151.37579345703</ele>
        <time>2025-08-01T16:31:11.000+02:00</time>
      </trkpt>
      <trkpt lat="48.59788" lon="-2.54426">
        <ele>139.06634521484</ele>
        <time>2025-08-01T16:31:20.000+02:00</time>
      </trkpt>
      <trkpt lat="48.5978" lon="-2.54449">
        <ele>149.77990722656</ele>
        <time>2025-08-01T16:31:25.000+02:00</time>
      </trkpt>
      <trkpt lat="48.59779" lon="-2.54472">
        <ele>148.33477783203</ele>
        <time>2025-08-01T16:31:30.000+02:00</time>
      </trkpt>
      <trkpt lat="48.5978" lon="-2.54506">
        <ele>146.03649902344</ele>
        <time>2025-08-01T16:31:35.000+02:00</time>
      </trkpt>
      <trkpt lat="48.59774" lon="-2.5453">
        <ele>154.01898193359</ele>
        <time>2025-08-01T16:31:40.000+02:00</time>
      </trkpt>
      <trkpt lat="48.59778" lon="-2.54567">
        <ele>151.27819824219</ele>
        <time>2025-08-01T16:31:45.000+02:00</time>
      </trkpt>
      <trkpt lat="48.59781" lon="-2.54549">
        <ele>159.85345458984</ele>
        <time>2025-08-01T16:31:50.000+02:00</time>
      </trkpt>
      <trkpt lat="48.59773" lon="-2.54489">
        <ele>155.59497070312</ele>
        <time>2025-08-01T16:31:55.000+02:00</time>
      </trkpt>
      <trkpt lat="48.59768" lon="-2.54494">
        <ele>152.46746826172</ele>
        <time>2025-08-01T16:32:00.000+02:00</time>
      </trkpt>
      <trkpt lat="48.59765" lon="-2.54529">
        <ele>148.98071289062</ele>
        <time>2025-08-01T16:32:05.000+02:00</time>
      </trkpt>
      <trkpt lat="48.59769" lon="-2.54551">
        <ele>149.71997070312</ele>
        <time>2025-08-01T16:32:10.000+02:00</time>
      </trkpt>
      <trkpt lat="48.59773" lon="-2.54577">
        <ele>156.09649658203</ele>
        <time>2025-08-01T16:32:15.000+02:00</time>
      </trkpt>
      <trkpt lat="48.59773" lon="-2.54545">
        <ele>149.11889648438</ele>
        <time>2025-08-01T16:32:20.000+02:00</time>
      </trkpt>
      <trkpt lat="48.59754" lon="-2.54487">
        <ele>153.46636962891</ele>
        <time>2025-08-01T16:32:25.000+02:00</time>
      </trkpt>
      <trkpt lat="48.59756" lon="-2.54463">
        <ele>152.04705810547</ele>
        <time>2025-08-01T16:32:30.000+02:00</time>
      </trkpt>
      <trkpt lat="48.59765" lon="-2.54482">
        <ele>150.93408203125</ele>
        <time>2025-08-01T16:32:35.000+02:00</time>
      </trkpt>
      <trkpt lat="48.59763" lon="-2.54493">
        <ele>150.50988769531</ele>
        <time>2025-08-01T16:32:40.000+02:00</time>
      </trkpt>
      <trkpt lat="48.59772" lon="-2.54503">
        <ele>158.96545410156</ele>
        <time>2025-08-01T16:32:45.000+02:00</time>
      </trkpt>
      <trkpt lat="48.59777" lon="-2.54523">
        <ele>160.91918945312</ele>
        <time>2025-08-01T16:32:50.000+02:00</time>
      </trkpt>
      <trkpt lat="48.59776" lon="-2.54515">
        <ele>165.98065185547</ele>
        <time>2025-08-01T16:32:55.000+02:00</time>
      </trkpt>
      <trkpt lat="48.59779" lon="-2.54503">
        <ele>164.51501464844</ele>
        <time>2025-08-01T16:33:00.000+02:00</time>
      </trkpt>
      <trkpt lat="48.59781" lon="-2.54534">
        <ele>162.54132080078</ele>
        <time>2025-08-01T16:33:05.000+02:00</time>
      </trkpt>
      <trkpt lat="48.59777" lon="-2.5449">
        <ele>158.69940185547</ele>
        <time>2025-08-01T16:33:10.000+02:00</time>
      </trkpt>
      <trkpt lat="48.59757" lon="-2.54435">
        <ele>159.37634277344</ele>
        <time>2025-08-01T16:33:15.000+02:00</time>
      </trkpt>
      <trkpt lat="48.5973" lon="-2.54358">
        <ele>159.013671875</ele>
        <time>2025-08-01T16:33:20.000+02:00</time>
      </trkpt>
      <trkpt lat="48.59715" lon="-2.5429">
        <ele>163.45239257812</ele>
        <time>2025-08-01T16:33:25.000+02:00</time>
      </trkpt>
      <trkpt lat="48.59706" lon="-2.54218">
        <ele>162.22570800781</ele>
        <time>2025-08-01T16:33:30.000+02:00</time>
      </trkpt>
      <trkpt lat="48.59704" lon="-2.54176">
        <ele>162.91741943359</ele>
        <time>2025-08-01T16:33:35.000+02:00</time>
      </trkpt>
      <trkpt lat="48.59712" lon="-2.54169">
        <ele>163.79296875</ele>
        <time>2025-08-01T16:33:40.000+02:00</time>
      </trkpt>
      <trkpt lat="48.59727" lon="-2.54175">
        <ele>172.25891113281</ele>
        <time>2025-08-01T16:33:46.000+02:00</time>
      </trkpt>
      <trkpt lat="48.5974" lon="-2.54224">
        <ele>170.07214355469</ele>
        <time>2025-08-01T16:33:55.000+02:00</time>
      </trkpt>
      <trkpt lat="48.59745" lon="-2.54255">
        <ele>168.83117675781</ele>
        <time>2025-08-01T16:34:00.000+02:00</time>
      </trkpt>
      <trkpt lat="48.5975" lon="-2.54282">
        <ele>159.77954101562</ele>
        <time>2025-08-01T16:34:05.000+02:00</time>
      </trkpt>
      <trkpt lat="48.59754" lon="-2.54311">
        <ele>165.1640625</ele>
        <time>2025-08-01T16:34:10.000+02:00</time>
      </trkpt>
      <trkpt lat="48.5976" lon="-2.54336">
        <ele>166.99029541016</ele>
        <time>2025-08-01T16:34:15.000+02:00</time>
      </trkpt>
      <trkpt lat="48.59765" lon="-2.54349">
        <ele>168.56909179688</ele>
        <time>2025-08-01T16:34:20.000+02:00</time>
      </trkpt>
      <trkpt lat="48.59771" lon="-2.5436">
        <ele>171.37194824219</ele>
        <time>2025-08-01T16:34:25.000+02:00</time>
      </trkpt>
      <trkpt lat="48.59762" lon="-2.54287">
        <ele>164.80877685547</ele>
        <time>2025-08-01T16:34:30.000+02:00</time>
      </trkpt>
      <trkpt lat="48.59727" lon="-2.54204">
        <ele>165.25726318359</ele>
        <time>2025-08-01T16:34:35.000+02:00</time>
      </trkpt>
      <trkpt lat="48.59708" lon="-2.54132">
        <ele>172.72564697266</ele>
        <time>2025-08-01T16:34:40.000+02:00</time>
      </trkpt>
      <trkpt lat="48.59691" lon="-2.54054">
        <ele>172.63555908203</ele>
        <time>2025-08-01T16:34:45.000+02:00</time>
      </trkpt>
      <trkpt lat="48.59676" lon="-2.53971">
        <ele>168.41540527344</ele>
        <time>2025-08-01T16:34:50.000+02:00</time>
      </trkpt>
      <trkpt lat="48.59667" lon="-2.53887">
        <ele>165.85949707031</ele>
        <time>2025-08-01T16:34:55.000+02:00</time>
      </trkpt>
      <trkpt lat="48.5966" lon="-2.53827">
        <ele>169.35559082031</ele>
        <time>2025-08-01T16:35:00.000+02:00</time>
      </trkpt>
      <trkpt lat="48.59668" lon="-2.53754">
        <ele>167.98114013672</ele>
        <time>2025-08-01T16:35:05.000+02:00</time>
      </trkpt>
      <trkpt lat="48.59669" lon="-2.53692">
        <ele>173.05523681641</ele>
        <time>2025-08-01T16:35:10.000+02:00</time>
      </trkpt>
      <trkpt lat="48.59678" lon="-2.53628">
        <ele>169.64532470703</ele>
        <time>2025-08-01T16:35:15.000+02:00</time>
      </trkpt>
      <trkpt lat="48.59687" lon="-2.53567">
        <ele>162.00866699219</ele>
        <time>2025-08-01T16:35:20.000+02:00</time>
      </trkpt>
      <trkpt lat="48.59687" lon="-2.53493">
        <ele>161.42950439453</ele>
        <time>2025-08-01T16:35:26.000+02:00</time>
      </trkpt>
      <trkpt lat="48.59702" lon="-2.53361">
        <ele>163.33673095703</ele>
        <time>2025-08-01T16:35:35.000+02:00</time>
      </trkpt>
      <trkpt lat="48.59702" lon="-2.53281">
        <ele>163.27673339844</ele>
        <time>2025-08-01T16:35:41.000+02:00</time>
      </trkpt>
      <trkpt lat="48.59714" lon="-2.53265">
        <ele>155.84442138672</ele>
        <time>2025-08-01T16:35:50.000+02:00</time>
      </trkpt>
      <trkpt lat="48.5972" lon="-2.53283">
        <ele>155.53643798828</ele>
        <time>2025-08-01T16:35:55.000+02:00</time>
      </trkpt>
      <trkpt lat="48.59731" lon="-2.53264">
        <ele>164.07153320312</ele>
        <time>2025-08-01T16:36:00.000+02:00</time>
      </trkpt>
      <trkpt lat="48.59731" lon="-2.5326">
        <ele>163.34387207031</ele>
        <time>2025-08-01T16:36:05.000+02:00</time>
      </trkpt>
      <trkpt lat="48.59729" lon="-2.5329">
        <ele>168.79992675781</ele>
        <time>2025-08-01T16:36:10.000+02:00</time>
      </trkpt>
      <trkpt lat="48.5973" lon="-2.53317">
        <ele>178.79669189453</ele>
        <time>2025-08-01T16:36:15.000+02:00</time>
      </trkpt>
      <trkpt lat="48.59745" lon="-2.53277">
        <ele>177.14208984375</ele>
        <time>2025-08-01T16:36:20.000+02:00</time>
      </trkpt>
      <trkpt lat="48.5973" lon="-2.53287">
        <ele>172.08215332031</ele>
        <time>2025-08-01T16:36:25.000+02:00</time>
      </trkpt>
      <trkpt lat="48.59724" lon="-2.53317">
        <ele>175.48693847656</ele>
        <time>2025-08-01T16:36:30.000+02:00</time>
      </trkpt>
      <trkpt lat="48.59738" lon="-2.53292">
        <ele>179.12286376953</ele>
        <time>2025-08-01T16:36:35.000+02:00</time>
      </trkpt>
      <trkpt lat="48.59745" lon="-2.53234">
        <ele>181.91168212891</ele>
        <time>2025-08-01T16:36:40.000+02:00</time>
      </trkpt>
      <trkpt lat="48.59741" lon="-2.53207">
        <ele>179.29193115234</ele>
        <time>2025-08-01T16:36:45.000+02:00</time>
      </trkpt>
      <trkpt lat="48.59754" lon="-2.53222">
        <ele>176.52563476562</ele>
        <time>2025-08-01T16:36:50.000+02:00</time>
      </trkpt>
      <trkpt lat="48.59753" lon="-2.53232">
        <ele>180.52795410156</ele>
        <time>2025-08-01T16:36:55.000+02:00</time>
      </trkpt>
      <trkpt lat="48.59753" lon="-2.53199">
        <ele>185.49322509766</ele>
        <time>2025-08-01T16:37:00.000+02:00</time>
      </trkpt>
      <trkpt lat="48.59763" lon="-2.53181">
        <ele>186.74981689453</ele>
        <time>2025-08-01T16:37:05.000+02:00</time>
      </trkpt>
      <trkpt lat="48.59756" lon="-2.53205">
        <ele>187.0810546875</ele>
        <time>2025-08-01T16:37:10.000+02:00</time>
      </trkpt>
      <trkpt lat="48.59754" lon="-2.53224">
        <ele>190.61450195312</ele>
        <time>2025-08-01T16:37:15.000+02:00</time>
      </trkpt>
      <trkpt lat="48.59769" lon="-2.53209">
        <ele>194.37133789062</ele>
        <time>2025-08-01T16:37:20.000+02:00</time>
      </trkpt>
      <trkpt lat="48.59766" lon="-2.53157">
        <ele>195.06829833984</ele>
        <time>2025-08-01T16:37:25.000+02:00</time>
      </trkpt>
      <trkpt lat="48.59765" lon="-2.53116">
        <ele>191.21325683594</ele>
        <time>2025-08-01T16:37:31.000+02:00</time>
      </trkpt>
      <trkpt lat="48.59754" lon="-2.53219">
        <ele>203.66339111328</ele>
        <time>2025-08-01T16:37:40.000+02:00</time>
      </trkpt>
      <trkpt lat="48.59746" lon="-2.53246">
        <ele>208.52795410156</ele>
        <time>2025-08-01T16:37:45.000+02:00</time>
      </trkpt>
      <trkpt lat="48.59752" lon="-2.53214">
        <ele>205.26037597656</ele>
        <time>2025-08-01T16:37:50.000+02:00</time>
      </trkpt>
      <trkpt lat="48.59752" lon="-2.53206">
        <ele>206.32153320312</ele>
        <time>2025-08-01T16:37:55.000+02:00</time>
      </trkpt>
      <trkpt lat="48.59736" lon="-2.53247">
        <ele>209.72027587891</ele>
        <time>2025-08-01T16:38:01.000+02:00</time>
      </trkpt>
      <trkpt lat="48.59748" lon="-2.53229">
        <ele>215.35571289062</ele>
        <time>2025-08-01T16:38:10.000+02:00</time>
      </trkpt>
      <trkpt lat="48.59755" lon="-2.53213">
        <ele>210.51916503906</ele>
        <time>2025-08-01T16:38:15.000+02:00</time>
      </trkpt>
      <trkpt lat="48.59743" lon="-2.53258">
        <ele>215.23468017578</ele>
        <time>2025-08-01T16:38:21.000+02:00</time>
      </trkpt>
      <trkpt lat="48.5974" lon="-2.53288">
        <ele>216.548828125</ele>
        <time>2025-08-01T16:38:26.000+02:00</time>
      </trkpt>
      <trkpt lat="48.59746" lon="-2.53238">
        <ele>228.76727294922</ele>
        <time>2025-08-01T16:38:35.000+02:00</time>
      </trkpt>
      <trkpt lat="48.59751" lon="-2.53223">
        <ele>235.28344726562</ele>
        <time>2025-08-01T16:38:40.000+02:00</time>
      </trkpt>
      <trkpt lat="48.59714" lon="-2.53251">
        <ele>244.57806396484</ele>
        <time>2025-08-01T16:38:45.000+02:00</time>
      </trkpt>
      <trkpt lat="48.59686" lon="-2.53206">
        <ele>238.71942138672</ele>
        <time>2025-08-01T16:38:51.000+02:00</time>
      </trkpt>
      <trkpt lat="48.5969" lon="-2.53182">
        <ele>242.25836181641</ele>
        <time>2025-08-01T16:38:56.000+02:00</time>
      </trkpt>
      <trkpt lat="48.59705" lon="-2.53191">
        <ele>242.91607666016</ele>
        <time>2025-08-01T16:39:01.000+02:00</time>
      </trkpt>
      <trkpt lat="48.59711" lon="-2.53249">
        <ele>236.50756835938</ele>
        <time>2025-08-01T16:39:10.000+02:00</time>
      </trkpt>
      <trkpt lat="48.59718" lon="-2.53215">
        <ele>238.23132324219</ele>
        <time>2025-08-01T16:39:15.000+02:00</time>
      </trkpt>
      <trkpt lat="48.59717" lon="-2.53174">
        <ele>232.83166503906</ele>
        <time>2025-08-01T16:39:20.000+02:00</time>
      </trkpt>
      <trkpt lat="48.59731" lon="-2.53212">
        <ele>231.03680419922</ele>
        <time>2025-08-01T16:39:26.000+02:00</time>
      </trkpt>
      <trkpt lat="48.5974" lon="-2.53281">
        <ele>229.34851074219</ele>
        <time>2025-08-01T16:39:35.000+02:00</time>
      </trkpt>
      <trkpt lat="48.59744" lon="-2.53245">
        <ele>229.97302246094</ele>
        <time>2025-08-01T16:39:40.000+02:00</time>
      </trkpt>
      <trkpt lat="48.59755" lon="-2.5318">
        <ele>226.78582763672</ele>
        <time>2025-08-01T16:39:45.000+02:00</time>
      </trkpt>
      <trkpt lat="48.59755" lon="-2.53103">
        <ele>236.31945800781</ele>
        <time>2025-08-01T16:39:50.000+02:00</time>
      </trkpt>
      <trkpt lat="48.59761" lon="-2.53044">
        <ele>232.75799560547</ele>
        <time>2025-08-01T16:39:55.000+02:00</time>
      </trkpt>
      <trkpt lat="48.59767" lon="-2.52977">
        <ele>231.43054199219</ele>
        <time>2025-08-01T16:40:00.000+02:00</time>
      </trkpt>
      <trkpt lat="48.59779" lon="-2.52914">
        <ele>226.48931884766</ele>
        <time>2025-08-01T16:40:05.000+02:00</time>
      </trkpt>
      <trkpt lat="48.59792" lon="-2.52859">
        <ele>221.60064697266</ele>
        <time>2025-08-01T16:40:10.000+02:00</time>
      </trkpt>
      <trkpt lat="48.59801" lon="-2.52801">
        <ele>233.89074707031</ele>
        <time>2025-08-01T16:40:15.000+02:00</time>
      </trkpt>
      <trkpt lat="48.59813" lon="-2.52729">
        <ele>233.66656494141</ele>
        <time>2025-08-01T16:40:21.000+02:00</time>
      </trkpt>
      <trkpt lat="48.59827" lon="-2.52675">
        <ele>229.32873535156</ele>
        <time>2025-08-01T16:40:26.000+02:00</time>
      </trkpt>
      <trkpt lat="48.59842" lon="-2.5259">
        <ele>214.69012451172</ele>
        <time>2025-08-01T16:40:36.000+02:00</time>
      </trkpt>
      <trkpt lat="48.5986" lon="-2.52527">
        <ele>207.05755615234</ele>
        <time>2025-08-01T16:40:45.000+02:00</time>
      </trkpt>
      <trkpt lat="48.59865" lon="-2.52483">
        <ele>200.78015136719</ele>
        <time>2025-08-01T16:40:50.000+02:00</time>
      </trkpt>
      <trkpt lat="48.59874" lon="-2.52448">
        <ele>196.77453613281</ele>
        <time>2025-08-01T16:40:55.000+02:00</time>
      </trkpt>
      <trkpt lat="48.59887" lon="-2.52404">
        <ele>187.77038574219</ele>
        <time>2025-08-01T16:41:00.000+02:00</time>
      </trkpt>
      <trkpt lat="48.59895" lon="-2.52334">
        <ele>196.36096191406</ele>
        <time>2025-08-01T16:41:06.000+02:00</time>
      </trkpt>
      <trkpt lat="48.59904" lon="-2.52292">
        <ele>203.00775146484</ele>
        <time>2025-08-01T16:41:11.000+02:00</time>
      </trkpt>
      <trkpt lat="48.59926" lon="-2.52227">
        <ele>204.33801269531</ele>
        <time>2025-08-01T16:41:20.000+02:00</time>
      </trkpt>
      <trkpt lat="48.59932" lon="-2.52189">
        <ele>202.58331298828</ele>
        <time>2025-08-01T16:41:25.000+02:00</time>
      </trkpt>
      <trkpt lat="48.59941" lon="-2.52133">
        <ele>197.96295166016</ele>
        <time>2025-08-01T16:41:30.000+02:00</time>
      </trkpt>
      <trkpt lat="48.59935" lon="-2.52079">
        <ele>192.42211914062</ele>
        <time>2025-08-01T16:41:35.000+02:00</time>
      </trkpt>
      <trkpt lat="48.59949" lon="-2.52032">
        <ele>183.5</ele>
        <time>2025-08-01T16:41:40.000+02:00</time>
      </trkpt>
      <trkpt lat="48.59954" lon="-2.51976">
        <ele>174.91253662109</ele>
        <time>2025-08-01T16:41:45.000+02:00</time>
      </trkpt>
      <trkpt lat="48.59965" lon="-2.51948">
        <ele>181.33660888672</ele>
        <time>2025-08-01T16:41:50.000+02:00</time>
      </trkpt>
      <trkpt lat="48.5998" lon="-2.51931">
        <ele>184.8681640625</ele>
        <time>2025-08-01T16:41:56.000+02:00</time>
      </trkpt>
      <trkpt lat="48.59992" lon="-2.51961">
        <ele>193.97521972656</ele>
        <time>2025-08-01T16:42:06.000+02:00</time>
      </trkpt>
      <trkpt lat="48.59993" lon="-2.52002">
        <ele>187.02746582031</ele>
        <time>2025-08-01T16:42:15.000+02:00</time>
      </trkpt>
      <trkpt lat="48.59995" lon="-2.52028">
        <ele>190.22802734375</ele>
        <time>2025-08-01T16:42:20.000+02:00</time>
      </trkpt>
      <trkpt lat="48.59999" lon="-2.52049">
        <ele>185.14099121094</ele>
        <time>2025-08-01T16:42:25.000+02:00</time>
      </trkpt>
      <trkpt lat="48.60002" lon="-2.51983">
        <ele>188.99145507812</ele>
        <time>2025-08-01T16:42:30.000+02:00</time>
      </trkpt>
      <trkpt lat="48.60003" lon="-2.51944">
        <ele>182.98681640625</ele>
        <time>2025-08-01T16:42:35.000+02:00</time>
      </trkpt>
      <trkpt lat="48.60005" lon="-2.51971">
        <ele>180.06115722656</ele>
        <time>2025-08-01T16:42:40.000+02:00</time>
      </trkpt>
      <trkpt lat="48.60006" lon="-2.52015">
        <ele>180.41333007812</ele>
        <time>2025-08-01T16:42:45.000+02:00</time>
      </trkpt>
      <trkpt lat="48.59999" lon="-2.52051">
        <ele>182.52203369141</ele>
        <time>2025-08-01T16:42:50.000+02:00</time>
      </trkpt>
      <trkpt lat="48.59997" lon="-2.52098">
        <ele>181.67687988281</ele>
        <time>2025-08-01T16:42:55.000+02:00</time>
      </trkpt>
      <trkpt lat="48.60003" lon="-2.52119">
        <ele>176.85375976562</ele>
        <time>2025-08-01T16:43:00.000+02:00</time>
      </trkpt>
      <trkpt lat="48.6" lon="-2.52077">
        <ele>173.85467529297</ele>
        <time>2025-08-01T16:43:05.000+02:00</time>
      </trkpt>
      <trkpt lat="48.59988" lon="-2.52006">
        <ele>173.54107666016</ele>
        <time>2025-08-01T16:43:10.000+02:00</time>
      </trkpt>
      <trkpt lat="48.59988" lon="-2.51949">
        <ele>177.27191162109</ele>
        <time>2025-08-01T16:43:15.000+02:00</time>
      </trkpt>
      <trkpt lat="48.59993" lon="-2.51878">
        <ele>179.63330078125</ele>
        <time>2025-08-01T16:43:20.000+02:00</time>
      </trkpt>
      <trkpt lat="48.59998" lon="-2.5183">
        <ele>186.52514648438</ele>
        <time>2025-08-01T16:43:25.000+02:00</time>
      </trkpt>
      <trkpt lat="48.60021" lon="-2.51814">
        <ele>186.93200683594</ele>
        <time>2025-08-01T16:43:31.000+02:00</time>
      </trkpt>
      <trkpt lat="48.60044" lon="-2.51808">
        <ele>175.89892578125</ele>
        <time>2025-08-01T16:43:40.000+02:00</time>
      </trkpt>
      <trkpt lat="48.60054" lon="-2.5176">
        <ele>177.78381347656</ele>
        <time>2025-08-01T16:43:45.000+02:00</time>
      </trkpt>
      <trkpt lat="48.60066" lon="-2.51713">
        <ele>174.85424804688</ele>
        <time>2025-08-01T16:43:50.000+02:00</time>
      </trkpt>
      <trkpt lat="48.60073" lon="-2.51668">
        <ele>164.69366455078</ele>
        <time>2025-08-01T16:43:55.000+02:00</time>
      </trkpt>
      <trkpt lat="48.60091" lon="-2.51604">
        <ele>160.49145507812</ele>
        <time>2025-08-01T16:44:00.000+02:00</time>
      </trkpt>
      <trkpt lat="48.60115" lon="-2.51553">
        <ele>163.14233398438</ele>
        <time>2025-08-01T16:44:05.000+02:00</time>
      </trkpt>
      <trkpt lat="48.60141" lon="-2.51507">
        <ele>168.87585449219</ele>
        <time>2025-08-01T16:44:10.000+02:00</time>
      </trkpt>
      <trkpt lat="48.60158" lon="-2.51455">
        <ele>170.22723388672</ele>
        <time>2025-08-01T16:44:15.000+02:00</time>
      </trkpt>
      <trkpt lat="48.60173" lon="-2.5139">
        <ele>165.81585693359</ele>
        <time>2025-08-01T16:44:20.000+02:00</time>
      </trkpt>
      <trkpt lat="48.60182" lon="-2.5135">
        <ele>153.84753417969</ele>
        <time>2025-08-01T16:44:25.000+02:00</time>
      </trkpt>
      <trkpt lat="48.60195" lon="-2.51295">
        <ele>156.21618652344</ele>
        <time>2025-08-01T16:44:31.000+02:00</time>
      </trkpt>
      <trkpt lat="48.60225" lon="-2.51223">
        <ele>159.75036621094</ele>
        <time>2025-08-01T16:44:40.000+02:00</time>
      </trkpt>
      <trkpt lat="48.60234" lon="-2.51179">
        <ele>158.00384521484</ele>
        <time>2025-08-01T16:44:45.000+02:00</time>
      </trkpt>
      <trkpt lat="48.60249" lon="-2.51139">
        <ele>159.90093994141</ele>
        <time>2025-08-01T16:44:50.000+02:00</time>
      </trkpt>
      <trkpt lat="48.60262" lon="-2.51101">
        <ele>160.82971191406</ele>
        <time>2025-08-01T16:44:55.000+02:00</time>
      </trkpt>
      <trkpt lat="48.60266" lon="-2.51063">
        <ele>159.6083984375</ele>
        <time>2025-08-01T16:45:00.000+02:00</time>
      </trkpt>
      <trkpt lat="48.60272" lon="-2.51017">
        <ele>165.14678955078</ele>
        <time>2025-08-01T16:45:05.000+02:00</time>
      </trkpt>
      <trkpt lat="48.60279" lon="-2.50984">
        <ele>160.74798583984</ele>
        <time>2025-08-01T16:45:10.000+02:00</time>
      </trkpt>
      <trkpt lat="48.60294" lon="-2.50943">
        <ele>160.76226806641</ele>
        <time>2025-08-01T16:45:15.000+02:00</time>
      </trkpt>
      <trkpt lat="48.60301" lon="-2.509">
        <ele>151.873046875</ele>
        <time>2025-08-01T16:45:20.000+02:00</time>
      </trkpt>
      <trkpt lat="48.60303" lon="-2.50841">
        <ele>148.04382324219</ele>
        <time>2025-08-01T16:45:25.000+02:00</time>
      </trkpt>
      <trkpt lat="48.60309" lon="-2.50805">
        <ele>153.62774658203</ele>
        <time>2025-08-01T16:45:30.000+02:00</time>
      </trkpt>
      <trkpt lat="48.60318" lon="-2.5075">
        <ele>148.15539550781</ele>
        <time>2025-08-01T16:45:35.000+02:00</time>
      </trkpt>
      <trkpt lat="48.60326" lon="-2.50713">
        <ele>148.95916748047</ele>
        <time>2025-08-01T16:45:40.000+02:00</time>
      </trkpt>
      <trkpt lat="48.60338" lon="-2.50706">
        <ele>153.67083740234</ele>
        <time>2025-08-01T16:45:45.000+02:00</time>
      </trkpt>
      <trkpt lat="48.60349" lon="-2.50738">
        <ele>155.51373291016</ele>
        <time>2025-08-01T16:45:50.000+02:00</time>
      </trkpt>
      <trkpt lat="48.60344" lon="-2.50776">
        <ele>147.69091796875</ele>
        <time>2025-08-01T16:45:55.000+02:00</time>
      </trkpt>
      <trkpt lat="48.60343" lon="-2.50803">
        <ele>146.49926757812</ele>
        <time>2025-08-01T16:46:00.000+02:00</time>
      </trkpt>
      <trkpt lat="48.60352" lon="-2.50791">
        <ele>141.29760742188</ele>
        <time>2025-08-01T16:46:05.000+02:00</time>
      </trkpt>
      <trkpt lat="48.60348" lon="-2.50747">
        <ele>145.31164550781</ele>
        <time>2025-08-01T16:46:10.000+02:00</time>
      </trkpt>
      <trkpt lat="48.60346" lon="-2.50742">
        <ele>151.67065429688</ele>
        <time>2025-08-01T16:46:15.000+02:00</time>
      </trkpt>
      <trkpt lat="48.60343" lon="-2.5079">
        <ele>151.15893554688</ele>
        <time>2025-08-01T16:46:20.000+02:00</time>
      </trkpt>
      <trkpt lat="48.60341" lon="-2.50842">
        <ele>150.75537109375</ele>
        <time>2025-08-01T16:46:25.000+02:00</time>
      </trkpt>
      <trkpt lat="48.60332" lon="-2.50877">
        <ele>151.43121337891</ele>
        <time>2025-08-01T16:46:30.000+02:00</time>
      </trkpt>
      <trkpt lat="48.60333" lon="-2.509">
        <ele>157.53515625</ele>
        <time>2025-08-01T16:46:35.000+02:00</time>
      </trkpt>
      <trkpt lat="48.60337" lon="-2.50876">
        <ele>158.52197265625</ele>
        <time>2025-08-01T16:46:40.000+02:00</time>
      </trkpt>
      <trkpt lat="48.6034" lon="-2.50833">
        <ele>159.30072021484</ele>
        <time>2025-08-01T16:46:45.000+02:00</time>
      </trkpt>
      <trkpt lat="48.60343" lon="-2.50778">
        <ele>159.53216552734</ele>
        <time>2025-08-01T16:46:50.000+02:00</time>
      </trkpt>
      <trkpt lat="48.60341" lon="-2.50737">
        <ele>164.95239257812</ele>
        <time>2025-08-01T16:46:55.000+02:00</time>
      </trkpt>
      <trkpt lat="48.60354" lon="-2.50743">
        <ele>159.88244628906</ele>
        <time>2025-08-01T16:47:01.000+02:00</time>
      </trkpt>
      <trkpt lat="48.60352" lon="-2.50807">
        <ele>152.26391601562</ele>
        <time>2025-08-01T16:47:10.000+02:00</time>
      </trkpt>
      <trkpt lat="48.60336" lon="-2.50847">
        <ele>148.90594482422</ele>
        <time>2025-08-01T16:47:15.000+02:00</time>
      </trkpt>
      <trkpt lat="48.60316" lon="-2.50903">
        <ele>155.53552246094</ele>
        <time>2025-08-01T16:47:20.000+02:00</time>
      </trkpt>
      <trkpt lat="48.60293" lon="-2.50949">
        <ele>158.86749267578</ele>
        <time>2025-08-01T16:47:25.000+02:00</time>
      </trkpt>
      <trkpt lat="48.60297" lon="-2.50963">
        <ele>158.76403808594</ele>
        <time>2025-08-01T16:47:30.000+02:00</time>
      </trkpt>
      <trkpt lat="48.6031" lon="-2.50938">
        <ele>155.15399169922</ele>
        <time>2025-08-01T16:47:35.000+02:00</time>
      </trkpt>
      <trkpt lat="48.60314" lon="-2.50885">
        <ele>155.63098144531</ele>
        <time>2025-08-01T16:47:40.000+02:00</time>
      </trkpt>
      <trkpt lat="48.60323" lon="-2.50848">
        <ele>163.48919677734</ele>
        <time>2025-08-01T16:47:45.000+02:00</time>
      </trkpt>
      <trkpt lat="48.60338" lon="-2.50821">
        <ele>176.67437744141</ele>
        <time>2025-08-01T16:47:50.000+02:00</time>
      </trkpt>
      <trkpt lat="48.60339" lon="-2.50836">
        <ele>172.04406738281</ele>
        <time>2025-08-01T16:47:55.000+02:00</time>
      </trkpt>
      <trkpt lat="48.60323" lon="-2.50846">
        <ele>165.56866455078</ele>
        <time>2025-08-01T16:48:00.000+02:00</time>
      </trkpt>
      <trkpt lat="48.60312" lon="-2.5093">
        <ele>160.84637451172</ele>
        <time>2025-08-01T16:48:06.000+02:00</time>
      </trkpt>
      <trkpt lat="48.60314" lon="-2.50932">
        <ele>160.17150878906</ele>
        <time>2025-08-01T16:48:15.000+02:00</time>
      </trkpt>
      <trkpt lat="48.60316" lon="-2.50878">
        <ele>159.09338378906</ele>
        <time>2025-08-01T16:48:20.000+02:00</time>
      </trkpt>
      <trkpt lat="48.60325" lon="-2.50831">
        <ele>159.33209228516</ele>
        <time>2025-08-01T16:48:25.000+02:00</time>
      </trkpt>
      <trkpt lat="48.60348" lon="-2.50798">
        <ele>162.26635742188</ele>
        <time>2025-08-01T16:48:31.000+02:00</time>
      </trkpt>
      <trkpt lat="48.60335" lon="-2.50852">
        <ele>153.17254638672</ele>
        <time>2025-08-01T16:48:40.000+02:00</time>
      </trkpt>
      <trkpt lat="48.60338" lon="-2.50888">
        <ele>156.55493164062</ele>
        <time>2025-08-01T16:48:45.000+02:00</time>
      </trkpt>
      <trkpt lat="48.60342" lon="-2.50864">
        <ele>157.7138671875</ele>
        <time>2025-08-01T16:48:50.000+02:00</time>
      </trkpt>
      <trkpt lat="48.60347" lon="-2.50837">
        <ele>149.06176757812</ele>
        <time>2025-08-01T16:48:55.000+02:00</time>
      </trkpt>
      <trkpt lat="48.60341" lon="-2.50875">
        <ele>150.33215332031</ele>
        <time>2025-08-01T16:49:00.000+02:00</time>
      </trkpt>
      <trkpt lat="48.60344" lon="-2.50907">
        <ele>147.97241210938</ele>
        <time>2025-08-01T16:49:05.000+02:00</time>
      </trkpt>
      <trkpt lat="48.60342" lon="-2.50871">
        <ele>149.77990722656</ele>
        <time>2025-08-01T16:49:10.000+02:00</time>
      </trkpt>
      <trkpt lat="48.60323" lon="-2.50804">
        <ele>151.74285888672</ele>
        <time>2025-08-01T16:49:15.000+02:00</time>
      </trkpt>
      <trkpt lat="48.60337" lon="-2.50755">
        <ele>149.97583007812</ele>
        <time>2025-08-01T16:49:20.000+02:00</time>
      </trkpt>
      <trkpt lat="48.60347" lon="-2.50762">
        <ele>147.01593017578</ele>
        <time>2025-08-01T16:49:25.000+02:00</time>
      </trkpt>
      <trkpt lat="48.60333" lon="-2.50772">
        <ele>149.69873046875</ele>
        <time>2025-08-01T16:49:30.000+02:00</time>
      </trkpt>
      <trkpt lat="48.60336" lon="-2.508">
        <ele>145.33227539062</ele>
        <time>2025-08-01T16:49:35.000+02:00</time>
      </trkpt>
      <trkpt lat="48.60338" lon="-2.50846">
        <ele>142.69610595703</ele>
        <time>2025-08-01T16:49:40.000+02:00</time>
      </trkpt>
      <trkpt lat="48.60336" lon="-2.50879">
        <ele>139.50207519531</ele>
        <time>2025-08-01T16:49:45.000+02:00</time>
      </trkpt>
      <trkpt lat="48.60349" lon="-2.50857">
        <ele>142.58654785156</ele>
        <time>2025-08-01T16:49:50.000+02:00</time>
      </trkpt>
      <trkpt lat="48.60345" lon="-2.50802">
        <ele>147.78649902344</ele>
        <time>2025-08-01T16:49:55.000+02:00</time>
      </trkpt>
      <trkpt lat="48.60354" lon="-2.50788">
        <ele>150.49639892578</ele>
        <time>2025-08-01T16:50:00.000+02:00</time>
      </trkpt>
      <trkpt lat="48.60347" lon="-2.50822">
        <ele>146.10095214844</ele>
        <time>2025-08-01T16:50:05.000+02:00</time>
      </trkpt>
      <trkpt lat="48.6033" lon="-2.50865">
        <ele>146.35223388672</ele>
        <time>2025-08-01T16:50:10.000+02:00</time>
      </trkpt>
      <trkpt lat="48.60314" lon="-2.50903">
        <ele>148.56945800781</ele>
        <time>2025-08-01T16:50:15.000+02:00</time>
      </trkpt>
      <trkpt lat="48.60325" lon="-2.50893">
        <ele>152.03991699219</ele>
        <time>2025-08-01T16:50:20.000+02:00</time>
      </trkpt>
      <trkpt lat="48.60332" lon="-2.50844">
        <ele>156.08575439453</ele>
        <time>2025-08-01T16:50:25.000+02:00</time>
      </trkpt>
      <trkpt lat="48.60332" lon="-2.5081">
        <ele>136.765625</ele>
        <time>2025-08-01T16:50:30.000+02:00</time>
      </trkpt>
      <trkpt lat="48.60349" lon="-2.50821">
        <ele>136.48876953125</ele>
        <time>2025-08-01T16:50:35.000+02:00</time>
      </trkpt>
      <trkpt lat="48.60349" lon="-2.50853">
        <ele>138.48590087891</ele>
        <time>2025-08-01T16:50:40.000+02:00</time>
      </trkpt>
      <trkpt lat="48.60326" lon="-2.50897">
        <ele>138.04772949219</ele>
        <time>2025-08-01T16:50:45.000+02:00</time>
      </trkpt>
      <trkpt lat="48.603" lon="-2.50952">
        <ele>140.45886230469</ele>
        <time>2025-08-01T16:50:50.000+02:00</time>
      </trkpt>
      <trkpt lat="48.60283" lon="-2.50993">
        <ele>143.60394287109</ele>
        <time>2025-08-01T16:50:55.000+02:00</time>
      </trkpt>
      <trkpt lat="48.60276" lon="-2.51034">
        <ele>149.34991455078</ele>
        <time>2025-08-01T16:51:00.000+02:00</time>
      </trkpt>
      <trkpt lat="48.60263" lon="-2.5108">
        <ele>147.3486328125</ele>
        <time>2025-08-01T16:51:05.000+02:00</time>
      </trkpt>
      <trkpt lat="48.60238" lon="-2.51127">
        <ele>146.25311279297</ele>
        <time>2025-08-01T16:51:10.000+02:00</time>
      </trkpt>
      <trkpt lat="48.60221" lon="-2.51173">
        <ele>144.08117675781</ele>
        <time>2025-08-01T16:51:15.000+02:00</time>
      </trkpt>
      <trkpt lat="48.60213" lon="-2.51224">
        <ele>139.41363525391</ele>
        <time>2025-08-01T16:51:20.000+02:00</time>
      </trkpt>
      <trkpt lat="48.6021" lon="-2.51267">
        <ele>142.57598876953</ele>
        <time>2025-08-01T16:51:25.000+02:00</time>
      </trkpt>
      <trkpt lat="48.60223" lon="-2.51269">
        <ele>145.787109375</ele>
        <time>2025-08-01T16:51:30.000+02:00</time>
      </trkpt>
      <trkpt lat="48.60217" lon="-2.51215">
        <ele>149.03601074219</ele>
        <time>2025-08-01T16:51:35.000+02:00</time>
      </trkpt>
      <trkpt lat="48.60215" lon="-2.51161">
        <ele>146.76947021484</ele>
        <time>2025-08-01T16:51:40.000+02:00</time>
      </trkpt>
      <trkpt lat="48.60227" lon="-2.51122">
        <ele>156.17059326172</ele>
        <time>2025-08-01T16:51:45.000+02:00</time>
      </trkpt>
      <trkpt lat="48.60242" lon="-2.51092">
        <ele>152.03881835938</ele>
        <time>2025-08-01T16:51:50.000+02:00</time>
      </trkpt>
      <trkpt lat="48.60251" lon="-2.51115">
        <ele>151.29858398438</ele>
        <time>2025-08-01T16:51:55.000+02:00</time>
      </trkpt>
      <trkpt lat="48.60249" lon="-2.51158">
        <ele>157.59350585938</ele>
        <time>2025-08-01T16:52:00.000+02:00</time>
      </trkpt>
      <trkpt lat="48.60252" lon="-2.51188">
        <ele>160.99523925781</ele>
        <time>2025-08-01T16:52:05.000+02:00</time>
      </trkpt>
      <trkpt lat="48.60242" lon="-2.51234">
        <ele>156.34362792969</ele>
        <time>2025-08-01T16:52:10.000+02:00</time>
      </trkpt>
      <trkpt lat="48.60224" lon="-2.51284">
        <ele>151.369140625</ele>
        <time>2025-08-01T16:52:15.000+02:00</time>
      </trkpt>
      <trkpt lat="48.60235" lon="-2.51321">
        <ele>153.03198242188</ele>
        <time>2025-08-01T16:52:20.000+02:00</time>
      </trkpt>
      <trkpt lat="48.60231" lon="-2.5127">
        <ele>151.76953125</ele>
        <time>2025-08-01T16:52:25.000+02:00</time>
      </trkpt>
      <trkpt lat="48.60228" lon="-2.51203">
        <ele>149.96661376953</ele>
        <time>2025-08-01T16:52:30.000+02:00</time>
      </trkpt>
      <trkpt lat="48.60237" lon="-2.51157">
        <ele>148.85314941406</ele>
        <time>2025-08-01T16:52:35.000+02:00</time>
      </trkpt>
      <trkpt lat="48.60245" lon="-2.51114">
        <ele>149.69738769531</ele>
        <time>2025-08-01T16:52:40.000+02:00</time>
      </trkpt>
      <trkpt lat="48.60257" lon="-2.51063">
        <ele>138.74810791016</ele>
        <time>2025-08-01T16:52:45.000+02:00</time>
      </trkpt>
      <trkpt lat="48.60267" lon="-2.51013">
        <ele>139.96911621094</ele>
        <time>2025-08-01T16:52:50.000+02:00</time>
      </trkpt>
      <trkpt lat="48.60272" lon="-2.5096">
        <ele>149.37078857422</ele>
        <time>2025-08-01T16:52:55.000+02:00</time>
      </trkpt>
      <trkpt lat="48.60286" lon="-2.50932">
        <ele>155.95831298828</ele>
        <time>2025-08-01T16:53:00.000+02:00</time>
      </trkpt>
      <trkpt lat="48.60303" lon="-2.50922">
        <ele>147.37762451172</ele>
        <time>2025-08-01T16:53:06.000+02:00</time>
      </trkpt>
      <trkpt lat="48.60304" lon="-2.50989">
        <ele>144.69738769531</ele>
        <time>2025-08-01T16:53:15.000+02:00</time>
      </trkpt>
      <trkpt lat="48.60292" lon="-2.51037">
        <ele>143.55505371094</ele>
        <time>2025-08-01T16:53:20.000+02:00</time>
      </trkpt>
      <trkpt lat="48.60274" lon="-2.51083">
        <ele>143.51300048828</ele>
        <time>2025-08-01T16:53:25.000+02:00</time>
      </trkpt>
      <trkpt lat="48.60259" lon="-2.51132">
        <ele>138.80700683594</ele>
        <time>2025-08-01T16:53:30.000+02:00</time>
      </trkpt>
      <trkpt lat="48.60241" lon="-2.51158">
        <ele>134.9580078125</ele>
        <time>2025-08-01T16:53:35.000+02:00</time>
      </trkpt>
      <trkpt lat="48.60233" lon="-2.51204">
        <ele>136.05639648438</ele>
        <time>2025-08-01T16:53:40.000+02:00</time>
      </trkpt>
      <trkpt lat="48.60224" lon="-2.51246">
        <ele>135.52667236328</ele>
        <time>2025-08-01T16:53:45.000+02:00</time>
      </trkpt>
      <trkpt lat="48.6022" lon="-2.51295">
        <ele>131.61511230469</ele>
        <time>2025-08-01T16:53:50.000+02:00</time>
      </trkpt>
      <trkpt lat="48.6021" lon="-2.51336">
        <ele>129.44342041016</ele>
        <time>2025-08-01T16:53:55.000+02:00</time>
      </trkpt>
      <trkpt lat="48.60185" lon="-2.5138">
        <ele>130.88195800781</ele>
        <time>2025-08-01T16:54:00.000+02:00</time>
      </trkpt>
      <trkpt lat="48.60161" lon="-2.51426">
        <ele>125.92340087891</ele>
        <time>2025-08-01T16:54:05.000+02:00</time>
      </trkpt>
      <trkpt lat="48.60142" lon="-2.51486">
        <ele>129.99133300781</ele>
        <time>2025-08-01T16:54:10.000+02:00</time>
      </trkpt>
      <trkpt lat="48.60121" lon="-2.51537">
        <ele>131.03509521484</ele>
        <time>2025-08-01T16:54:15.000+02:00</time>
      </trkpt>
      <trkpt lat="48.60109" lon="-2.51586">
        <ele>136.82849121094</ele>
        <time>2025-08-01T16:54:20.000+02:00</time>
      </trkpt>
      <trkpt lat="48.60104" lon="-2.51639">
        <ele>136.06323242188</ele>
        <time>2025-08-01T16:54:25.000+02:00</time>
      </trkpt>
      <trkpt lat="48.6009" lon="-2.51699">
        <ele>138.35363769531</ele>
        <time>2025-08-01T16:54:30.000+02:00</time>
      </trkpt>
      <trkpt lat="48.60067" lon="-2.51753">
        <ele>134.95385742188</ele>
        <time>2025-08-01T16:54:35.000+02:00</time>
      </trkpt>
      <trkpt lat="48.60049" lon="-2.51784">
        <ele>136.89367675781</ele>
        <time>2025-08-01T16:54:40.000+02:00</time>
      </trkpt>
      <trkpt lat="48.6003" lon="-2.51825">
        <ele>137.44683837891</ele>
        <time>2025-08-01T16:54:45.000+02:00</time>
      </trkpt>
      <trkpt lat="48.60018" lon="-2.51861">
        <ele>144.99133300781</ele>
        <time>2025-08-01T16:54:50.000+02:00</time>
      </trkpt>
      <trkpt lat="48.60006" lon="-2.51899">
        <ele>140.79382324219</ele>
        <time>2025-08-01T16:54:55.000+02:00</time>
      </trkpt>
      <trkpt lat="48.59997" lon="-2.5192">
        <ele>137.41619873047</ele>
        <time>2025-08-01T16:55:00.000+02:00</time>
      </trkpt>
      <trkpt lat="48.60009" lon="-2.51915">
        <ele>136.12963867188</ele>
        <time>2025-08-01T16:55:05.000+02:00</time>
      </trkpt>
      <trkpt lat="48.6001" lon="-2.5186">
        <ele>139.12713623047</ele>
        <time>2025-08-01T16:55:10.000+02:00</time>
      </trkpt>
      <trkpt lat="48.6001" lon="-2.518">
        <ele>141.85076904297</ele>
        <time>2025-08-01T16:55:15.000+02:00</time>
      </trkpt>
      <trkpt lat="48.60013" lon="-2.51772">
        <ele>135.27893066406</ele>
        <time>2025-08-01T16:55:20.000+02:00</time>
      </trkpt>
      <trkpt lat="48.60005" lon="-2.51799">
        <ele>135.90985107422</ele>
        <time>2025-08-01T16:55:25.000+02:00</time>
      </trkpt>
      <trkpt lat="48.59992" lon="-2.51851">
        <ele>136.43444824219</ele>
        <time>2025-08-01T16:55:30.000+02:00</time>
      </trkpt>
      <trkpt lat="48.5999" lon="-2.5188">
        <ele>141.79565429688</ele>
        <time>2025-08-01T16:55:35.000+02:00</time>
      </trkpt>
      <trkpt lat="48.59987" lon="-2.51914">
        <ele>143.83642578125</ele>
        <time>2025-08-01T16:55:40.000+02:00</time>
      </trkpt>
      <trkpt lat="48.59982" lon="-2.5195">
        <ele>142.99450683594</ele>
        <time>2025-08-01T16:55:45.000+02:00</time>
      </trkpt>
      <trkpt lat="48.59989" lon="-2.51965">
        <ele>142.01440429688</ele>
        <time>2025-08-01T16:55:50.000+02:00</time>
      </trkpt>
      <trkpt lat="48.5999" lon="-2.51984">
        <ele>141.10546875</ele>
        <time>2025-08-01T16:55:55.000+02:00</time>
      </trkpt>
      <trkpt lat="48.5999" lon="-2.52017">
        <ele>137.40563964844</ele>
        <time>2025-08-01T16:56:00.000+02:00</time>
      </trkpt>
      <trkpt lat="48.59995" lon="-2.52008">
        <ele>141.62866210938</ele>
        <time>2025-08-01T16:56:05.000+02:00</time>
      </trkpt>
      <trkpt lat="48.59986" lon="-2.52037">
        <ele>140.79138183594</ele>
        <time>2025-08-01T16:56:10.000+02:00</time>
      </trkpt>
      <trkpt lat="48.59979" lon="-2.52087">
        <ele>140.1396484375</ele>
        <time>2025-08-01T16:56:15.000+02:00</time>
      </trkpt>
      <trkpt lat="48.59972" lon="-2.52128">
        <ele>144.2998046875</ele>
        <time>2025-08-01T16:56:20.000+02:00</time>
      </trkpt>
      <trkpt lat="48.59971" lon="-2.52156">
        <ele>144.64801025391</ele>
        <time>2025-08-01T16:56:25.000+02:00</time>
      </trkpt>
      <trkpt lat="48.59979" lon="-2.52186">
        <ele>145.63745117188</ele>
        <time>2025-08-01T16:56:30.000+02:00</time>
      </trkpt>
      <trkpt lat="48.59975" lon="-2.52226">
        <ele>146.59851074219</ele>
        <time>2025-08-01T16:56:35.000+02:00</time>
      </trkpt>
      <trkpt lat="48.59973" lon="-2.52236">
        <ele>148.92419433594</ele>
        <time>2025-08-01T16:56:40.000+02:00</time>
      </trkpt>
      <trkpt lat="48.59975" lon="-2.5219">
        <ele>153.82592773438</ele>
        <time>2025-08-01T16:56:45.000+02:00</time>
      </trkpt>
      <trkpt lat="48.59974" lon="-2.52134">
        <ele>149.13134765625</ele>
        <time>2025-08-01T16:56:50.000+02:00</time>
      </trkpt>
      <trkpt lat="48.59971" lon="-2.52078">
        <ele>151.70495605469</ele>
        <time>2025-08-01T16:56:55.000+02:00</time>
      </trkpt>
      <trkpt lat="48.59974" lon="-2.52082">
        <ele>153.048828125</ele>
        <time>2025-08-01T16:57:00.000+02:00</time>
      </trkpt>
      <trkpt lat="48.59981" lon="-2.52086">
        <ele>160.80487060547</ele>
        <time>2025-08-01T16:57:05.000+02:00</time>
      </trkpt>
      <trkpt lat="48.59991" lon="-2.52102">
        <ele>154.02795410156</ele>
        <time>2025-08-01T16:57:10.000+02:00</time>
      </trkpt>
      <trkpt lat="48.59991" lon="-2.5213">
        <ele>150.07873535156</ele>
        <time>2025-08-01T16:57:15.000+02:00</time>
      </trkpt>
      <trkpt lat="48.59995" lon="-2.52143">
        <ele>143.81793212891</ele>
        <time>2025-08-01T16:57:20.000+02:00</time>
      </trkpt>
      <trkpt lat="48.59997" lon="-2.52155">
        <ele>148.92181396484</ele>
        <time>2025-08-01T16:57:25.000+02:00</time>
      </trkpt>
      <trkpt lat="48.59989" lon="-2.52177">
        <ele>143.73809814453</ele>
        <time>2025-08-01T16:57:30.000+02:00</time>
      </trkpt>
      <trkpt lat="48.59986" lon="-2.52215">
        <ele>154.29632568359</ele>
        <time>2025-08-01T16:57:35.000+02:00</time>
      </trkpt>
      <trkpt lat="48.59993" lon="-2.5219">
        <ele>151.90344238281</ele>
        <time>2025-08-01T16:57:40.000+02:00</time>
      </trkpt>
      <trkpt lat="48.59992" lon="-2.52125">
        <ele>152.49896240234</ele>
        <time>2025-08-01T16:57:45.000+02:00</time>
      </trkpt>
      <trkpt lat="48.59987" lon="-2.52072">
        <ele>149.62908935547</ele>
        <time>2025-08-01T16:57:51.000+02:00</time>
      </trkpt>
      <trkpt lat="48.60001" lon="-2.5213">
        <ele>157.13842773438</ele>
        <time>2025-08-01T16:58:00.000+02:00</time>
      </trkpt>
      <trkpt lat="48.59997" lon="-2.52156">
        <ele>161.01428222656</ele>
        <time>2025-08-01T16:58:05.000+02:00</time>
      </trkpt>
      <trkpt lat="48.59989" lon="-2.52187">
        <ele>148.56982421875</ele>
        <time>2025-08-01T16:58:10.000+02:00</time>
      </trkpt>
      <trkpt lat="48.59984" lon="-2.52199">
        <ele>144.67712402344</ele>
        <time>2025-08-01T16:58:15.000+02:00</time>
      </trkpt>
      <trkpt lat="48.59988" lon="-2.52141">
        <ele>144.30444335938</ele>
        <time>2025-08-01T16:58:20.000+02:00</time>
      </trkpt>
      <trkpt lat="48.59988" lon="-2.52135">
        <ele>146.66723632812</ele>
        <time>2025-08-01T16:58:25.000+02:00</time>
      </trkpt>
      <trkpt lat="48.59966" lon="-2.52171">
        <ele>150.29473876953</ele>
        <time>2025-08-01T16:58:30.000+02:00</time>
      </trkpt>
      <trkpt lat="48.59952" lon="-2.52192">
        <ele>151.845703125</ele>
        <time>2025-08-01T16:58:35.000+02:00</time>
      </trkpt>
      <trkpt lat="48.59954" lon="-2.52205">
        <ele>157.47473144531</ele>
        <time>2025-08-01T16:58:40.000+02:00</time>
      </trkpt>
      <trkpt lat="48.59968" lon="-2.52174">
        <ele>162.26513671875</ele>
        <time>2025-08-01T16:58:45.000+02:00</time>
      </trkpt>
      <trkpt lat="48.59977" lon="-2.52113">
        <ele>161.64343261719</ele>
        <time>2025-08-01T16:58:50.000+02:00</time>
      </trkpt>
      <trkpt lat="48.59975" lon="-2.52063">
        <ele>170.78387451172</ele>
        <time>2025-08-01T16:58:55.000+02:00</time>
      </trkpt>
      <trkpt lat="48.59985" lon="-2.52046">
        <ele>163.54614257812</ele>
        <time>2025-08-01T16:59:00.000+02:00</time>
      </trkpt>
      <trkpt lat="48.59995" lon="-2.5207">
        <ele>166.50665283203</ele>
        <time>2025-08-01T16:59:05.000+02:00</time>
      </trkpt>
      <trkpt lat="48.59994" lon="-2.52077">
        <ele>164.79632568359</ele>
        <time>2025-08-01T16:59:10.000+02:00</time>
      </trkpt>
      <trkpt lat="48.59998" lon="-2.5203">
        <ele>163.33837890625</ele>
        <time>2025-08-01T16:59:15.000+02:00</time>
      </trkpt>
      <trkpt lat="48.59997" lon="-2.52015">
        <ele>159.42810058594</ele>
        <time>2025-08-01T16:59:20.000+02:00</time>
      </trkpt>
      <trkpt lat="48.5999" lon="-2.52003">
        <ele>139.26837158203</ele>
        <time>2025-08-01T16:59:25.000+02:00</time>
      </trkpt>
      <trkpt lat="48.59998" lon="-2.52013">
        <ele>138.42413330078</ele>
        <time>2025-08-01T16:59:31.000+02:00</time>
      </trkpt>
      <trkpt lat="48.60005" lon="-2.52052">
        <ele>141.51409912109</ele>
        <time>2025-08-01T16:59:36.000+02:00</time>
      </trkpt>
      <trkpt lat="48.59999" lon="-2.52108">
        <ele>152.67578125</ele>
        <time>2025-08-01T16:59:45.000+02:00</time>
      </trkpt>
      <trkpt lat="48.59993" lon="-2.52128">
        <ele>158.68774414062</ele>
        <time>2025-08-01T16:59:50.000+02:00</time>
      </trkpt>
      <trkpt lat="48.59985" lon="-2.52154">
        <ele>162.05688476562</ele>
        <time>2025-08-01T16:59:55.000+02:00</time>
      </trkpt>
      <trkpt lat="48.59982" lon="-2.5217">
        <ele>161.38696289062</ele>
        <time>2025-08-01T17:00:00.000+02:00</time>
      </trkpt>
      <trkpt lat="48.59994" lon="-2.52138">
        <ele>161.49548339844</ele>
        <time>2025-08-01T17:00:05.000+02:00</time>
      </trkpt>
      <trkpt lat="48.59985" lon="-2.52075">
        <ele>167.28271484375</ele>
        <time>2025-08-01T17:00:10.000+02:00</time>
      </trkpt>
      <trkpt lat="48.5998" lon="-2.52049">
        <ele>161.18524169922</ele>
        <time>2025-08-01T17:00:16.000+02:00</time>
      </trkpt>
      <trkpt lat="48.59985" lon="-2.52069">
        <ele>155.86041259766</ele>
        <time>2025-08-01T17:00:21.000+02:00</time>
      </trkpt>
      <trkpt lat="48.59996" lon="-2.52092">
        <ele>163.29626464844</ele>
        <time>2025-08-01T17:00:30.000+02:00</time>
      </trkpt>
      <trkpt lat="48.6" lon="-2.52108">
        <ele>157.65417480469</ele>
        <time>2025-08-01T17:00:35.000+02:00</time>
      </trkpt>
      <trkpt lat="48.60005" lon="-2.52123">
        <ele>159.11584472656</ele>
        <time>2025-08-01T17:00:40.000+02:00</time>
      </trkpt>
      <trkpt lat="48.59998" lon="-2.52152">
        <ele>154.451171875</ele>
        <time>2025-08-01T17:00:45.000+02:00</time>
      </trkpt>
      <trkpt lat="48.59976" lon="-2.52182">
        <ele>155.61895751953</ele>
        <time>2025-08-01T17:00:50.000+02:00</time>
      </trkpt>
      <trkpt lat="48.59956" lon="-2.52209">
        <ele>156.00299072266</ele>
        <time>2025-08-01T17:00:55.000+02:00</time>
      </trkpt>
      <trkpt lat="48.59953" lon="-2.52228">
        <ele>158.80187988281</ele>
        <time>2025-08-01T17:01:00.000+02:00</time>
      </trkpt>
      <trkpt lat="48.59943" lon="-2.52255">
        <ele>156.859375</ele>
        <time>2025-08-01T17:01:05.000+02:00</time>
      </trkpt>
      <trkpt lat="48.59924" lon="-2.52285">
        <ele>153.45330810547</ele>
        <time>2025-08-01T17:01:10.000+02:00</time>
      </trkpt>
      <trkpt lat="48.599" lon="-2.52313">
        <ele>154.71740722656</ele>
        <time>2025-08-01T17:01:15.000+02:00</time>
      </trkpt>
      <trkpt lat="48.59876" lon="-2.52345">
        <ele>158.32312011719</ele>
        <time>2025-08-01T17:01:20.000+02:00</time>
      </trkpt>
      <trkpt lat="48.59862" lon="-2.52372">
        <ele>169.37774658203</ele>
        <time>2025-08-01T17:01:25.000+02:00</time>
      </trkpt>
      <trkpt lat="48.59857" lon="-2.5239">
        <ele>167.84692382812</ele>
        <time>2025-08-01T17:01:30.000+02:00</time>
      </trkpt>
      <trkpt lat="48.59859" lon="-2.52347">
        <ele>167.80920410156</ele>
        <time>2025-08-01T17:01:35.000+02:00</time>
      </trkpt>
      <trkpt lat="48.59868" lon="-2.52294">
        <ele>166.74230957031</ele>
        <time>2025-08-01T17:01:40.000+02:00</time>
      </trkpt>
      <trkpt lat="48.59876" lon="-2.52264">
        <ele>166.70483398438</ele>
        <time>2025-08-01T17:01:45.000+02:00</time>
      </trkpt>
      <trkpt lat="48.59892" lon="-2.52238">
        <ele>163.2177734375</ele>
        <time>2025-08-01T17:01:50.000+02:00</time>
      </trkpt>
      <trkpt lat="48.59906" lon="-2.52189">
        <ele>158.64855957031</ele>
        <time>2025-08-01T17:01:55.000+02:00</time>
      </trkpt>
      <trkpt lat="48.59914" lon="-2.52166">
        <ele>155.04010009766</ele>
        <time>2025-08-01T17:02:00.000+02:00</time>
      </trkpt>
      <trkpt lat="48.59922" lon="-2.52181">
        <ele>158.87945556641</ele>
        <time>2025-08-01T17:02:05.000+02:00</time>
      </trkpt>
      <trkpt lat="48.59917" lon="-2.52201">
        <ele>159.76544189453</ele>
        <time>2025-08-01T17:02:10.000+02:00</time>
      </trkpt>
      <trkpt lat="48.59925" lon="-2.522">
        <ele>167.25830078125</ele>
        <time>2025-08-01T17:02:16.000+02:00</time>
      </trkpt>
      <trkpt lat="48.59925" lon="-2.52188">
        <ele>166.70648193359</ele>
        <time>2025-08-01T17:02:25.000+02:00</time>
      </trkpt>
      <trkpt lat="48.5993" lon="-2.52163">
        <ele>165.59252929688</ele>
        <time>2025-08-01T17:02:31.000+02:00</time>
      </trkpt>
      <trkpt lat="48.59926" lon="-2.52201">
        <ele>165.93829345703</ele>
        <time>2025-08-01T17:02:36.000+02:00</time>
      </trkpt>
      <trkpt lat="48.59929" lon="-2.52231">
        <ele>171.85546875</ele>
        <time>2025-08-01T17:02:41.000+02:00</time>
      </trkpt>
      <trkpt lat="48.59935" lon="-2.52148">
        <ele>179.06750488281</ele>
        <time>2025-08-01T17:02:51.000+02:00</time>
      </trkpt>
      <trkpt lat="48.5993" lon="-2.52184">
        <ele>174.24645996094</ele>
        <time>2025-08-01T17:03:00.000+02:00</time>
      </trkpt>
      <trkpt lat="48.59922" lon="-2.52223">
        <ele>173.82983398438</ele>
        <time>2025-08-01T17:03:05.000+02:00</time>
      </trkpt>
      <trkpt lat="48.59931" lon="-2.52221">
        <ele>177.03601074219</ele>
        <time>2025-08-01T17:03:10.000+02:00</time>
      </trkpt>
      <trkpt lat="48.59938" lon="-2.52179">
        <ele>176.81579589844</ele>
        <time>2025-08-01T17:03:15.000+02:00</time>
      </trkpt>
      <trkpt lat="48.59932" lon="-2.52149">
        <ele>174.30938720703</ele>
        <time>2025-08-01T17:03:21.000+02:00</time>
      </trkpt>
      <trkpt lat="48.59923" lon="-2.5219">
        <ele>174.47131347656</ele>
        <time>2025-08-01T17:03:26.000+02:00</time>
      </trkpt>
      <trkpt lat="48.5993" lon="-2.52193">
        <ele>176.53442382812</ele>
        <time>2025-08-01T17:03:35.000+02:00</time>
      </trkpt>
      <trkpt lat="48.59935" lon="-2.52149">
        <ele>175.84210205078</ele>
        <time>2025-08-01T17:03:40.000+02:00</time>
      </trkpt>
      <trkpt lat="48.59928" lon="-2.52127">
        <ele>172.48370361328</ele>
        <time>2025-08-01T17:03:45.000+02:00</time>
      </trkpt>
      <trkpt lat="48.59936" lon="-2.52143">
        <ele>171.51342773438</ele>
        <time>2025-08-01T17:03:50.000+02:00</time>
      </trkpt>
      <trkpt lat="48.59937" lon="-2.5217">
        <ele>166.23223876953</ele>
        <time>2025-08-01T17:03:55.000+02:00</time>
      </trkpt>
      <trkpt lat="48.59941" lon="-2.52142">
        <ele>163.83911132812</ele>
        <time>2025-08-01T17:04:00.000+02:00</time>
      </trkpt>
      <trkpt lat="48.59947" lon="-2.52101">
        <ele>169.54016113281</ele>
        <time>2025-08-01T17:04:05.000+02:00</time>
      </trkpt>
      <trkpt lat="48.59953" lon="-2.52058">
        <ele>170.92102050781</ele>
        <time>2025-08-01T17:04:10.000+02:00</time>
      </trkpt>
      <trkpt lat="48.59959" lon="-2.52053">
        <ele>161.59222412109</ele>
        <time>2025-08-01T17:04:15.000+02:00</time>
      </trkpt>
      <trkpt lat="48.59963" lon="-2.52067">
        <ele>167.13531494141</ele>
        <time>2025-08-01T17:04:20.000+02:00</time>
      </trkpt>
      <trkpt lat="48.59971" lon="-2.52089">
        <ele>172.10137939453</ele>
        <time>2025-08-01T17:04:25.000+02:00</time>
      </trkpt>
      <trkpt lat="48.59976" lon="-2.52071">
        <ele>166.56042480469</ele>
        <time>2025-08-01T17:04:30.000+02:00</time>
      </trkpt>
      <trkpt lat="48.59982" lon="-2.52014">
        <ele>164.5537109375</ele>
        <time>2025-08-01T17:04:35.000+02:00</time>
      </trkpt>
      <trkpt lat="48.59985" lon="-2.51945">
        <ele>162.99298095703</ele>
        <time>2025-08-01T17:04:40.000+02:00</time>
      </trkpt>
      <trkpt lat="48.59986" lon="-2.51881">
        <ele>162.16125488281</ele>
        <time>2025-08-01T17:04:45.000+02:00</time>
      </trkpt>
      <trkpt lat="48.59992" lon="-2.51833">
        <ele>168.27355957031</ele>
        <time>2025-08-01T17:04:50.000+02:00</time>
      </trkpt>
      <trkpt lat="48.60008" lon="-2.51803">
        <ele>166.89959716797</ele>
        <time>2025-08-01T17:04:55.000+02:00</time>
      </trkpt>
      <trkpt lat="48.6003" lon="-2.51798">
        <ele>165.67431640625</ele>
        <time>2025-08-01T17:05:00.000+02:00</time>
      </trkpt>
      <trkpt lat="48.60038" lon="-2.51773">
        <ele>177.05493164062</ele>
        <time>2025-08-01T17:05:05.000+02:00</time>
      </trkpt>
      <trkpt lat="48.60045" lon="-2.51722">
        <ele>172.88275146484</ele>
        <time>2025-08-01T17:05:10.000+02:00</time>
      </trkpt>
      <trkpt lat="48.60047" lon="-2.51656">
        <ele>174.32275390625</ele>
        <time>2025-08-01T17:05:15.000+02:00</time>
      </trkpt>
      <trkpt lat="48.60057" lon="-2.51635">
        <ele>175.89196777344</ele>
        <time>2025-08-01T17:05:20.000+02:00</time>
      </trkpt>
      <trkpt lat="48.60079" lon="-2.51593">
        <ele>169.29943847656</ele>
        <time>2025-08-01T17:05:25.000+02:00</time>
      </trkpt>
      <trkpt lat="48.60101" lon="-2.51548">
        <ele>165.12585449219</ele>
        <time>2025-08-01T17:05:31.000+02:00</time>
      </trkpt>
      <trkpt lat="48.60131" lon="-2.51458">
        <ele>162.26519775391</ele>
        <time>2025-08-01T17:05:41.000+02:00</time>
      </trkpt>
      <trkpt lat="48.60156" lon="-2.51353">
        <ele>158.81042480469</ele>
        <time>2025-08-01T17:05:50.000+02:00</time>
      </trkpt>
      <trkpt lat="48.60164" lon="-2.51297">
        <ele>159.45318603516</ele>
        <time>2025-08-01T17:05:55.000+02:00</time>
      </trkpt>
      <trkpt lat="48.60174" lon="-2.51247">
        <ele>156.90228271484</ele>
        <time>2025-08-01T17:06:00.000+02:00</time>
      </trkpt>
      <trkpt lat="48.60185" lon="-2.51198">
        <ele>160.95043945312</ele>
        <time>2025-08-01T17:06:05.000+02:00</time>
      </trkpt>
      <trkpt lat="48.60194" lon="-2.51147">
        <ele>164.19720458984</ele>
        <time>2025-08-01T17:06:10.000+02:00</time>
      </trkpt>
      <trkpt lat="48.60193" lon="-2.51101">
        <ele>151.97717285156</ele>
        <time>2025-08-01T17:06:15.000+02:00</time>
      </trkpt>
      <trkpt lat="48.60207" lon="-2.5113">
        <ele>159.66558837891</ele>
        <time>2025-08-01T17:06:20.000+02:00</time>
      </trkpt>
      <trkpt lat="48.60218" lon="-2.51101">
        <ele>168.43115234375</ele>
        <time>2025-08-01T17:06:25.000+02:00</time>
      </trkpt>
      <trkpt lat="48.60214" lon="-2.51084">
        <ele>159.69714355469</ele>
        <time>2025-08-01T17:06:30.000+02:00</time>
      </trkpt>
      <trkpt lat="48.60226" lon="-2.51113">
        <ele>169.35003662109</ele>
        <time>2025-08-01T17:06:35.000+02:00</time>
      </trkpt>
      <trkpt lat="48.60226" lon="-2.511">
        <ele>165.72418212891</ele>
        <time>2025-08-01T17:06:40.000+02:00</time>
      </trkpt>
      <trkpt lat="48.60232" lon="-2.51076">
        <ele>160.56262207031</ele>
        <time>2025-08-01T17:06:46.000+02:00</time>
      </trkpt>
      <trkpt lat="48.60241" lon="-2.5111">
        <ele>180.625</ele>
        <time>2025-08-01T17:06:51.000+02:00</time>
      </trkpt>
      <trkpt lat="48.60255" lon="-2.51119">
        <ele>201.64453125</ele>
        <time>2025-08-01T17:07:00.000+02:00</time>
      </trkpt>
      <trkpt lat="48.60222" lon="-2.51082">
        <ele>211.57727050781</ele>
        <time>2025-08-01T17:07:05.000+02:00</time>
      </trkpt>
      <trkpt lat="48.60194" lon="-2.5111">
        <ele>215.22265625</ele>
        <time>2025-08-01T17:07:10.000+02:00</time>
      </trkpt>
      <trkpt lat="48.60203" lon="-2.51136">
        <ele>222.56115722656</ele>
        <time>2025-08-01T17:07:15.000+02:00</time>
      </trkpt>
      <trkpt lat="48.602" lon="-2.5107">
        <ele>225.18432617188</ele>
        <time>2025-08-01T17:07:20.000+02:00</time>
      </trkpt>
      <trkpt lat="48.60161" lon="-2.51073">
        <ele>227.04626464844</ele>
        <time>2025-08-01T17:07:25.000+02:00</time>
      </trkpt>
      <trkpt lat="48.60142" lon="-2.51107">
        <ele>228.44934082031</ele>
        <time>2025-08-01T17:07:30.000+02:00</time>
      </trkpt>
      <trkpt lat="48.60145" lon="-2.51124">
        <ele>231.68353271484</ele>
        <time>2025-08-01T17:07:35.000+02:00</time>
      </trkpt>
      <trkpt lat="48.6016" lon="-2.51136">
        <ele>239.15313720703</ele>
        <time>2025-08-01T17:07:40.000+02:00</time>
      </trkpt>
      <trkpt lat="48.60182" lon="-2.51121">
        <ele>243.49719238281</ele>
        <time>2025-08-01T17:07:45.000+02:00</time>
      </trkpt>
      <trkpt lat="48.60174" lon="-2.51057">
        <ele>244.38726806641</ele>
        <time>2025-08-01T17:07:50.000+02:00</time>
      </trkpt>
      <trkpt lat="48.60134" lon="-2.51049">
        <ele>241.21435546875</ele>
        <time>2025-08-01T17:07:55.000+02:00</time>
      </trkpt>
      <trkpt lat="48.60113" lon="-2.51077">
        <ele>243.65423583984</ele>
        <time>2025-08-01T17:08:00.000+02:00</time>
      </trkpt>
      <trkpt lat="48.60119" lon="-2.51093">
        <ele>247.92449951172</ele>
        <time>2025-08-01T17:08:05.000+02:00</time>
      </trkpt>
      <trkpt lat="48.60136" lon="-2.51089">
        <ele>252.08117675781</ele>
        <time>2025-08-01T17:08:10.000+02:00</time>
      </trkpt>
      <trkpt lat="48.60147" lon="-2.51072">
        <ele>247.77301025391</ele>
        <time>2025-08-01T17:08:15.000+02:00</time>
      </trkpt>
      <trkpt lat="48.60169" lon="-2.51046">
        <ele>249.68444824219</ele>
        <time>2025-08-01T17:08:20.000+02:00</time>
      </trkpt>
      <trkpt lat="48.60192" lon="-2.51015">
        <ele>251.74914550781</ele>
        <time>2025-08-01T17:08:26.000+02:00</time>
      </trkpt>
      <trkpt lat="48.60207" lon="-2.50999">
        <ele>254.17419433594</ele>
        <time>2025-08-01T17:08:31.000+02:00</time>
      </trkpt>
      <trkpt lat="48.60214" lon="-2.50993">
        <ele>255.92712402344</ele>
        <time>2025-08-01T17:08:36.000+02:00</time>
      </trkpt>
      <trkpt lat="48.60239" lon="-2.51047">
        <ele>259.26446533203</ele>
        <time>2025-08-01T17:08:45.000+02:00</time>
      </trkpt>
      <trkpt lat="48.60238" lon="-2.51043">
        <ele>247.77221679688</ele>
        <time>2025-08-01T17:08:51.000+02:00</time>
      </trkpt>
      <trkpt lat="48.60255" lon="-2.51079">
        <ele>244.78894042969</ele>
        <time>2025-08-01T17:09:00.000+02:00</time>
      </trkpt>
      <trkpt lat="48.60254" lon="-2.5112">
        <ele>242.91149902344</ele>
        <time>2025-08-01T17:09:05.000+02:00</time>
      </trkpt>
      <trkpt lat="48.60253" lon="-2.5116">
        <ele>241.88891601562</ele>
        <time>2025-08-01T17:09:10.000+02:00</time>
      </trkpt>
      <trkpt lat="48.60251" lon="-2.51198">
        <ele>243.34350585938</ele>
        <time>2025-08-01T17:09:15.000+02:00</time>
      </trkpt>
      <trkpt lat="48.60242" lon="-2.51239">
        <ele>242.20043945312</ele>
        <time>2025-08-01T17:09:20.000+02:00</time>
      </trkpt>
      <trkpt lat="48.60244" lon="-2.51282">
        <ele>245.81610107422</ele>
        <time>2025-08-01T17:09:25.000+02:00</time>
      </trkpt>
      <trkpt lat="48.60251" lon="-2.51317">
        <ele>243.17443847656</ele>
        <time>2025-08-01T17:09:30.000+02:00</time>
      </trkpt>
      <trkpt lat="48.60256" lon="-2.51291">
        <ele>239.35968017578</ele>
        <time>2025-08-01T17:09:35.000+02:00</time>
      </trkpt>
      <trkpt lat="48.60245" lon="-2.51228">
        <ele>241.60211181641</ele>
        <time>2025-08-01T17:09:40.000+02:00</time>
      </trkpt>
      <trkpt lat="48.60239" lon="-2.51186">
        <ele>241.43603515625</ele>
        <time>2025-08-01T17:09:45.000+02:00</time>
      </trkpt>
      <trkpt lat="48.60258" lon="-2.51138">
        <ele>246.26818847656</ele>
        <time>2025-08-01T17:09:51.000+02:00</time>
      </trkpt>
      <trkpt lat="48.60282" lon="-2.51123">
        <ele>225.65075683594</ele>
        <time>2025-08-01T17:10:00.000+02:00</time>
      </trkpt>
      <trkpt lat="48.60305" lon="-2.51098">
        <ele>223.24353027344</ele>
        <time>2025-08-01T17:10:05.000+02:00</time>
      </trkpt>
      <trkpt lat="48.60324" lon="-2.51063">
        <ele>224.14172363281</ele>
        <time>2025-08-01T17:10:10.000+02:00</time>
      </trkpt>
      <trkpt lat="48.60335" lon="-2.50991">
        <ele>203.07147216797</ele>
        <time>2025-08-01T17:10:16.000+02:00</time>
      </trkpt>
      <trkpt lat="48.60349" lon="-2.50945">
        <ele>210.74108886719</ele>
        <time>2025-08-01T17:10:21.000+02:00</time>
      </trkpt>
      <trkpt lat="48.60379" lon="-2.50845">
        <ele>216.34564208984</ele>
        <time>2025-08-01T17:10:31.000+02:00</time>
      </trkpt>
      <trkpt lat="48.604" lon="-2.50797">
        <ele>216.16040039062</ele>
        <time>2025-08-01T17:10:36.000+02:00</time>
      </trkpt>
      <trkpt lat="48.60426" lon="-2.50755">
        <ele>222.7978515625</ele>
        <time>2025-08-01T17:10:41.000+02:00</time>
      </trkpt>
      <trkpt lat="48.60437" lon="-2.50736">
        <ele>213.61242675781</ele>
        <time>2025-08-01T17:10:46.000+02:00</time>
      </trkpt>
      <trkpt lat="48.60446" lon="-2.50758">
        <ele>209.48516845703</ele>
        <time>2025-08-01T17:10:51.000+02:00</time>
      </trkpt>
      <trkpt lat="48.60437" lon="-2.50803">
        <ele>203.33264160156</ele>
        <time>2025-08-01T17:10:56.000+02:00</time>
      </trkpt>
      <trkpt lat="48.60395" lon="-2.50885">
        <ele>203.41094970703</ele>
        <time>2025-08-01T17:11:06.000+02:00</time>
      </trkpt>
      <trkpt lat="48.60366" lon="-2.50939">
        <ele>202.7841796875</ele>
        <time>2025-08-01T17:11:11.000+02:00</time>
      </trkpt>
      <trkpt lat="48.6034" lon="-2.50987">
        <ele>202.62042236328</ele>
        <time>2025-08-01T17:11:16.000+02:00</time>
      </trkpt>
      <trkpt lat="48.60321" lon="-2.51034">
        <ele>204.74658203125</ele>
        <time>2025-08-01T17:11:21.000+02:00</time>
      </trkpt>
      <trkpt lat="48.60276" lon="-2.51112">
        <ele>202.62554931641</ele>
        <time>2025-08-01T17:11:30.000+02:00</time>
      </trkpt>
      <trkpt lat="48.60268" lon="-2.51154">
        <ele>202.79400634766</ele>
        <time>2025-08-01T17:11:35.000+02:00</time>
      </trkpt>
      <trkpt lat="48.60256" lon="-2.51176">
        <ele>198.62731933594</ele>
        <time>2025-08-01T17:11:40.000+02:00</time>
      </trkpt>
      <trkpt lat="48.60262" lon="-2.51135">
        <ele>193.90618896484</ele>
        <time>2025-08-01T17:11:45.000+02:00</time>
      </trkpt>
      <trkpt lat="48.60267" lon="-2.5108">
        <ele>191.86041259766</ele>
        <time>2025-08-01T17:11:50.000+02:00</time>
      </trkpt>
      <trkpt lat="48.60269" lon="-2.5102">
        <ele>194.77380371094</ele>
        <time>2025-08-01T17:11:55.000+02:00</time>
      </trkpt>
      <trkpt lat="48.60269" lon="-2.5097">
        <ele>196.60827636719</ele>
        <time>2025-08-01T17:12:00.000+02:00</time>
      </trkpt>
      <trkpt lat="48.60279" lon="-2.50925">
        <ele>197.10815429688</ele>
        <time>2025-08-01T17:12:05.000+02:00</time>
      </trkpt>
      <trkpt lat="48.60261" lon="-2.50911">
        <ele>172.91455078125</ele>
        <time>2025-08-01T17:12:11.000+02:00</time>
      </trkpt>
      <trkpt lat="48.60275" lon="-2.50922">
        <ele>181.28820800781</ele>
        <time>2025-08-01T17:12:16.000+02:00</time>
      </trkpt>
      <trkpt lat="48.60283" lon="-2.50932">
        <ele>181.99633789062</ele>
        <time>2025-08-01T17:12:21.000+02:00</time>
      </trkpt>
      <trkpt lat="48.60298" lon="-2.5086">
        <ele>190.38055419922</ele>
        <time>2025-08-01T17:12:30.000+02:00</time>
      </trkpt>
      <trkpt lat="48.60297" lon="-2.5084">
        <ele>181.47296142578</ele>
        <time>2025-08-01T17:12:35.000+02:00</time>
      </trkpt>
      <trkpt lat="48.60298" lon="-2.50855">
        <ele>182.189453125</ele>
        <time>2025-08-01T17:12:40.000+02:00</time>
      </trkpt>
      <trkpt lat="48.60303" lon="-2.50866">
        <ele>186.81628417969</ele>
        <time>2025-08-01T17:12:45.000+02:00</time>
      </trkpt>
      <trkpt lat="48.60313" lon="-2.50856">
        <ele>188.59832763672</ele>
        <time>2025-08-01T17:12:50.000+02:00</time>
      </trkpt>
      <trkpt lat="48.60327" lon="-2.50885">
        <ele>191.22082519531</ele>
        <time>2025-08-01T17:12:56.000+02:00</time>
      </trkpt>
      <trkpt lat="48.60346" lon="-2.50823">
        <ele>200.18664550781</ele>
        <time>2025-08-01T17:13:06.000+02:00</time>
      </trkpt>
      <trkpt lat="48.60353" lon="-2.50827">
        <ele>213.67150878906</ele>
        <time>2025-08-01T17:13:15.000+02:00</time>
      </trkpt>
      <trkpt lat="48.60345" lon="-2.50869">
        <ele>207.91748046875</ele>
        <time>2025-08-01T17:13:21.000+02:00</time>
      </trkpt>
      <trkpt lat="48.60326" lon="-2.50936">
        <ele>203.75378417969</ele>
        <time>2025-08-01T17:13:30.000+02:00</time>
      </trkpt>
      <trkpt lat="48.60311" lon="-2.50968">
        <ele>199.392578125</ele>
        <time>2025-08-01T17:13:35.000+02:00</time>
      </trkpt>
      <trkpt lat="48.60296" lon="-2.51006">
        <ele>198.06945800781</ele>
        <time>2025-08-01T17:13:40.000+02:00</time>
      </trkpt>
      <trkpt lat="48.6028" lon="-2.5104">
        <ele>194.83752441406</ele>
        <time>2025-08-01T17:13:45.000+02:00</time>
      </trkpt>
      <trkpt lat="48.60264" lon="-2.51073">
        <ele>194.46411132812</ele>
        <time>2025-08-01T17:13:50.000+02:00</time>
      </trkpt>
      <trkpt lat="48.6026" lon="-2.51097">
        <ele>189.17700195312</ele>
        <time>2025-08-01T17:13:55.000+02:00</time>
      </trkpt>
      <trkpt lat="48.60265" lon="-2.51059">
        <ele>188.86480712891</ele>
        <time>2025-08-01T17:14:00.000+02:00</time>
      </trkpt>
      <trkpt lat="48.60268" lon="-2.51003">
        <ele>188.89306640625</ele>
        <time>2025-08-01T17:14:05.000+02:00</time>
      </trkpt>
      <trkpt lat="48.60284" lon="-2.50951">
        <ele>189.23272705078</ele>
        <time>2025-08-01T17:14:10.000+02:00</time>
      </trkpt>
      <trkpt lat="48.60295" lon="-2.50901">
        <ele>189.41821289062</ele>
        <time>2025-08-01T17:14:15.000+02:00</time>
      </trkpt>
      <trkpt lat="48.60296" lon="-2.50858">
        <ele>187.04052734375</ele>
        <time>2025-08-01T17:14:20.000+02:00</time>
      </trkpt>
      <trkpt lat="48.60296" lon="-2.50835">
        <ele>183.92565917969</ele>
        <time>2025-08-01T17:14:25.000+02:00</time>
      </trkpt>
      <trkpt lat="48.60308" lon="-2.50859">
        <ele>176.39404296875</ele>
        <time>2025-08-01T17:14:30.000+02:00</time>
      </trkpt>
      <trkpt lat="48.60315" lon="-2.50894">
        <ele>176.59600830078</ele>
        <time>2025-08-01T17:14:35.000+02:00</time>
      </trkpt>
      <trkpt lat="48.60321" lon="-2.50923">
        <ele>176.52551269531</ele>
        <time>2025-08-01T17:14:40.000+02:00</time>
      </trkpt>
      <trkpt lat="48.60319" lon="-2.50943">
        <ele>170.07427978516</ele>
        <time>2025-08-01T17:14:45.000+02:00</time>
      </trkpt>
      <trkpt lat="48.60319" lon="-2.50965">
        <ele>167.06555175781</ele>
        <time>2025-08-01T17:14:50.000+02:00</time>
      </trkpt>
      <trkpt lat="48.60314" lon="-2.50994">
        <ele>173.45635986328</ele>
        <time>2025-08-01T17:14:55.000+02:00</time>
      </trkpt>
      <trkpt lat="48.60302" lon="-2.51026">
        <ele>181.55645751953</ele>
        <time>2025-08-01T17:15:00.000+02:00</time>
      </trkpt>
      <trkpt lat="48.60301" lon="-2.51071">
        <ele>181.78240966797</ele>
        <time>2025-08-01T17:15:05.000+02:00</time>
      </trkpt>
      <trkpt lat="48.60283" lon="-2.51102">
        <ele>179.83135986328</ele>
        <time>2025-08-01T17:15:10.000+02:00</time>
      </trkpt>
      <trkpt lat="48.60287" lon="-2.5109">
        <ele>170.24285888672</ele>
        <time>2025-08-01T17:15:15.000+02:00</time>
      </trkpt>
      <trkpt lat="48.60294" lon="-2.51044">
        <ele>170.54949951172</ele>
        <time>2025-08-01T17:15:20.000+02:00</time>
      </trkpt>
      <trkpt lat="48.60303" lon="-2.50998">
        <ele>167.92218017578</ele>
        <time>2025-08-01T17:15:25.000+02:00</time>
      </trkpt>
      <trkpt lat="48.60306" lon="-2.50956">
        <ele>174.37127685547</ele>
        <time>2025-08-01T17:15:30.000+02:00</time>
      </trkpt>
      <trkpt lat="48.60319" lon="-2.50899">
        <ele>172.24462890625</ele>
        <time>2025-08-01T17:15:35.000+02:00</time>
      </trkpt>
      <trkpt lat="48.60332" lon="-2.50848">
        <ele>179.10314941406</ele>
        <time>2025-08-01T17:15:41.000+02:00</time>
      </trkpt>
      <trkpt lat="48.6033" lon="-2.50874">
        <ele>161.64953613281</ele>
        <time>2025-08-01T17:15:50.000+02:00</time>
      </trkpt>
      <trkpt lat="48.60305" lon="-2.50918">
        <ele>158.08325195312</ele>
        <time>2025-08-01T17:15:55.000+02:00</time>
      </trkpt>
      <trkpt lat="48.60285" lon="-2.50948">
        <ele>159.86053466797</ele>
        <time>2025-08-01T17:16:00.000+02:00</time>
      </trkpt>
      <trkpt lat="48.60295" lon="-2.50926">
        <ele>166.71691894531</ele>
        <time>2025-08-01T17:16:05.000+02:00</time>
      </trkpt>
      <trkpt lat="48.60302" lon="-2.50872">
        <ele>168.96112060547</ele>
        <time>2025-08-01T17:16:10.000+02:00</time>
      </trkpt>
      <trkpt lat="48.60309" lon="-2.50832">
        <ele>162.89471435547</ele>
        <time>2025-08-01T17:16:15.000+02:00</time>
      </trkpt>
      <trkpt lat="48.60326" lon="-2.50842">
        <ele>160.71978759766</ele>
        <time>2025-08-01T17:16:20.000+02:00</time>
      </trkpt>
      <trkpt lat="48.60335" lon="-2.50854">
        <ele>161.32287597656</ele>
        <time>2025-08-01T17:16:25.000+02:00</time>
      </trkpt>
      <trkpt lat="48.60326" lon="-2.5089">
        <ele>152.18963623047</ele>
        <time>2025-08-01T17:16:30.000+02:00</time>
      </trkpt>
      <trkpt lat="48.60308" lon="-2.50943">
        <ele>155.92309570312</ele>
        <time>2025-08-01T17:16:35.000+02:00</time>
      </trkpt>
      <trkpt lat="48.60288" lon="-2.50984">
        <ele>154.78558349609</ele>
        <time>2025-08-01T17:16:40.000+02:00</time>
      </trkpt>
      <trkpt lat="48.60272" lon="-2.51021">
        <ele>155.32171630859</ele>
        <time>2025-08-01T17:16:45.000+02:00</time>
      </trkpt>
      <trkpt lat="48.60269" lon="-2.51045">
        <ele>155.41455078125</ele>
        <time>2025-08-01T17:16:50.000+02:00</time>
      </trkpt>
      <trkpt lat="48.60281" lon="-2.5104">
        <ele>140.71520996094</ele>
        <time>2025-08-01T17:16:55.000+02:00</time>
      </trkpt>
      <trkpt lat="48.60303" lon="-2.50997">
        <ele>149.87280273438</ele>
        <time>2025-08-01T17:17:01.000+02:00</time>
      </trkpt>
      <trkpt lat="48.6032" lon="-2.50908">
        <ele>149.92474365234</ele>
        <time>2025-08-01T17:17:10.000+02:00</time>
      </trkpt>
      <trkpt lat="48.60325" lon="-2.50861">
        <ele>150.78698730469</ele>
        <time>2025-08-01T17:17:15.000+02:00</time>
      </trkpt>
      <trkpt lat="48.60339" lon="-2.50819">
        <ele>152.70831298828</ele>
        <time>2025-08-01T17:17:20.000+02:00</time>
      </trkpt>
      <trkpt lat="48.60352" lon="-2.50788">
        <ele>162.20935058594</ele>
        <time>2025-08-01T17:17:25.000+02:00</time>
      </trkpt>
      <trkpt lat="48.60357" lon="-2.50786">
        <ele>169.77313232422</ele>
        <time>2025-08-01T17:17:30.000+02:00</time>
      </trkpt>
      <trkpt lat="48.60362" lon="-2.50824">
        <ele>169.45324707031</ele>
        <time>2025-08-01T17:17:35.000+02:00</time>
      </trkpt>
      <trkpt lat="48.60372" lon="-2.50833">
        <ele>180.11193847656</ele>
        <time>2025-08-01T17:17:40.000+02:00</time>
      </trkpt>
      <trkpt lat="48.60374" lon="-2.50783">
        <ele>179.93518066406</ele>
        <time>2025-08-01T17:17:45.000+02:00</time>
      </trkpt>
      <trkpt lat="48.60381" lon="-2.50761">
        <ele>181.95678710938</ele>
        <time>2025-08-01T17:17:50.000+02:00</time>
      </trkpt>
      <trkpt lat="48.60369" lon="-2.508">
        <ele>178.93536376953</ele>
        <time>2025-08-01T17:17:56.000+02:00</time>
      </trkpt>
      <trkpt lat="48.6038" lon="-2.50778">
        <ele>186.05541992188</ele>
        <time>2025-08-01T17:18:05.000+02:00</time>
      </trkpt>
      <trkpt lat="48.60381" lon="-2.50747">
        <ele>176.30712890625</ele>
        <time>2025-08-01T17:18:10.000+02:00</time>
      </trkpt>
      <trkpt lat="48.60384" lon="-2.50761">
        <ele>177.65246582031</ele>
        <time>2025-08-01T17:18:15.000+02:00</time>
      </trkpt>
      <trkpt lat="48.60381" lon="-2.50797">
        <ele>175.59466552734</ele>
        <time>2025-08-01T17:18:20.000+02:00</time>
      </trkpt>
      <trkpt lat="48.60376" lon="-2.50834">
        <ele>181.47613525391</ele>
        <time>2025-08-01T17:18:25.000+02:00</time>
      </trkpt>
      <trkpt lat="48.60362" lon="-2.50863">
        <ele>183.32751464844</ele>
        <time>2025-08-01T17:18:30.000+02:00</time>
      </trkpt>
      <trkpt lat="48.6035" lon="-2.50928">
        <ele>173.86071777344</ele>
        <time>2025-08-01T17:18:35.000+02:00</time>
      </trkpt>
      <trkpt lat="48.60337" lon="-2.50974">
        <ele>176.22918701172</ele>
        <time>2025-08-01T17:18:40.000+02:00</time>
      </trkpt>
      <trkpt lat="48.60334" lon="-2.50998">
        <ele>181.57452392578</ele>
        <time>2025-08-01T17:18:45.000+02:00</time>
      </trkpt>
      <trkpt lat="48.60346" lon="-2.50987">
        <ele>176.48364257812</ele>
        <time>2025-08-01T17:18:50.000+02:00</time>
      </trkpt>
      <trkpt lat="48.60342" lon="-2.50932">
        <ele>185.38134765625</ele>
        <time>2025-08-01T17:18:55.000+02:00</time>
      </trkpt>
      <trkpt lat="48.60348" lon="-2.50885">
        <ele>188.14599609375</ele>
        <time>2025-08-01T17:19:00.000+02:00</time>
      </trkpt>
      <trkpt lat="48.60354" lon="-2.50845">
        <ele>184.92199707031</ele>
        <time>2025-08-01T17:19:05.000+02:00</time>
      </trkpt>
      <trkpt lat="48.60349" lon="-2.50833">
        <ele>179.47888183594</ele>
        <time>2025-08-01T17:19:10.000+02:00</time>
      </trkpt>
      <trkpt lat="48.60346" lon="-2.50864">
        <ele>176.14245605469</ele>
        <time>2025-08-01T17:19:15.000+02:00</time>
      </trkpt>
      <trkpt lat="48.60333" lon="-2.509">
        <ele>175.40173339844</ele>
        <time>2025-08-01T17:19:20.000+02:00</time>
      </trkpt>
      <trkpt lat="48.60328" lon="-2.5091">
        <ele>186.0234375</ele>
        <time>2025-08-01T17:19:25.000+02:00</time>
      </trkpt>
      <trkpt lat="48.60338" lon="-2.50878">
        <ele>192.65295410156</ele>
        <time>2025-08-01T17:19:30.000+02:00</time>
      </trkpt>
      <trkpt lat="48.60342" lon="-2.50875">
        <ele>195.66253662109</ele>
        <time>2025-08-01T17:19:35.000+02:00</time>
      </trkpt>
      <trkpt lat="48.6035" lon="-2.50889">
        <ele>200.97192382812</ele>
        <time>2025-08-01T17:19:40.000+02:00</time>
      </trkpt>
      <trkpt lat="48.60359" lon="-2.50845">
        <ele>204.92504882812</ele>
        <time>2025-08-01T17:19:45.000+02:00</time>
      </trkpt>
      <trkpt lat="48.60361" lon="-2.50842">
        <ele>211.74578857422</ele>
        <time>2025-08-01T17:19:50.000+02:00</time>
      </trkpt>
      <trkpt lat="48.60363" lon="-2.50856">
        <ele>214.17572021484</ele>
        <time>2025-08-01T17:19:55.000+02:00</time>
      </trkpt>
      <trkpt lat="48.60372" lon="-2.5082">
        <ele>213.9453125</ele>
        <time>2025-08-01T17:20:00.000+02:00</time>
      </trkpt>
      <trkpt lat="48.60377" lon="-2.50812">
        <ele>215.32000732422</ele>
        <time>2025-08-01T17:20:05.000+02:00</time>
      </trkpt>
      <trkpt lat="48.60363" lon="-2.50838">
        <ele>218.58911132812</ele>
        <time>2025-08-01T17:20:10.000+02:00</time>
      </trkpt>
      <trkpt lat="48.60368" lon="-2.50835">
        <ele>219.65850830078</ele>
        <time>2025-08-01T17:20:15.000+02:00</time>
      </trkpt>
      <trkpt lat="48.60375" lon="-2.50787">
        <ele>219.80499267578</ele>
        <time>2025-08-01T17:20:20.000+02:00</time>
      </trkpt>
      <trkpt lat="48.60373" lon="-2.5076">
        <ele>217.01867675781</ele>
        <time>2025-08-01T17:20:25.000+02:00</time>
      </trkpt>
      <trkpt lat="48.60364" lon="-2.50777">
        <ele>215.68402099609</ele>
        <time>2025-08-01T17:20:30.000+02:00</time>
      </trkpt>
      <trkpt lat="48.60359" lon="-2.50801">
        <ele>220.56689453125</ele>
        <time>2025-08-01T17:20:35.000+02:00</time>
      </trkpt>
      <trkpt lat="48.60368" lon="-2.50793">
        <ele>226.29113769531</ele>
        <time>2025-08-01T17:20:40.000+02:00</time>
      </trkpt>
      <trkpt lat="48.60376" lon="-2.50738">
        <ele>224.18560791016</ele>
        <time>2025-08-01T17:20:45.000+02:00</time>
      </trkpt>
      <trkpt lat="48.60373" lon="-2.50701">
        <ele>218.68347167969</ele>
        <time>2025-08-01T17:20:50.000+02:00</time>
      </trkpt>
      <trkpt lat="48.60376" lon="-2.5071">
        <ele>216.54614257812</ele>
        <time>2025-08-01T17:20:55.000+02:00</time>
      </trkpt>
      <trkpt lat="48.60373" lon="-2.50724">
        <ele>219.37683105469</ele>
        <time>2025-08-01T17:21:00.000+02:00</time>
      </trkpt>
      <trkpt lat="48.60395" lon="-2.50702">
        <ele>226.02807617188</ele>
        <time>2025-08-01T17:21:05.000+02:00</time>
      </trkpt>
      <trkpt lat="48.60415" lon="-2.50661">
        <ele>228.60766601562</ele>
        <time>2025-08-01T17:21:10.000+02:00</time>
      </trkpt>
      <trkpt lat="48.60433" lon="-2.50627">
        <ele>234.7861328125</ele>
        <time>2025-08-01T17:21:15.000+02:00</time>
      </trkpt>
      <trkpt lat="48.60449" lon="-2.50578">
        <ele>231.57507324219</ele>
        <time>2025-08-01T17:21:20.000+02:00</time>
      </trkpt>
      <trkpt lat="48.60446" lon="-2.50593">
        <ele>216.27746582031</ele>
        <time>2025-08-01T17:21:25.000+02:00</time>
      </trkpt>
      <trkpt lat="48.60448" lon="-2.50612">
        <ele>220.31964111328</ele>
        <time>2025-08-01T17:21:30.000+02:00</time>
      </trkpt>
      <trkpt lat="48.60451" lon="-2.50629">
        <ele>225.34954833984</ele>
        <time>2025-08-01T17:21:35.000+02:00</time>
      </trkpt>
      <trkpt lat="48.60469" lon="-2.50611">
        <ele>230.41705322266</ele>
        <time>2025-08-01T17:21:40.000+02:00</time>
      </trkpt>
      <trkpt lat="48.60477" lon="-2.50618">
        <ele>231.44140625</ele>
        <time>2025-08-01T17:21:45.000+02:00</time>
      </trkpt>
      <trkpt lat="48.60469" lon="-2.50639">
        <ele>237.69787597656</ele>
        <time>2025-08-01T17:21:50.000+02:00</time>
      </trkpt>
      <trkpt lat="48.60463" lon="-2.50666">
        <ele>230.34539794922</ele>
        <time>2025-08-01T17:21:55.000+02:00</time>
      </trkpt>
      <trkpt lat="48.60486" lon="-2.50617">
        <ele>234.00079345703</ele>
        <time>2025-08-01T17:22:00.000+02:00</time>
      </trkpt>
      <trkpt lat="48.60502" lon="-2.50584">
        <ele>228.57989501953</ele>
        <time>2025-08-01T17:22:05.000+02:00</time>
      </trkpt>
      <trkpt lat="48.6051" lon="-2.50538">
        <ele>230.62420654297</ele>
        <time>2025-08-01T17:22:10.000+02:00</time>
      </trkpt>
      <trkpt lat="48.60518" lon="-2.50525">
        <ele>236.86560058594</ele>
        <time>2025-08-01T17:22:15.000+02:00</time>
      </trkpt>
      <trkpt lat="48.60514" lon="-2.50531">
        <ele>243.82885742188</ele>
        <time>2025-08-01T17:22:20.000+02:00</time>
      </trkpt>
      <trkpt lat="48.60514" lon="-2.50555">
        <ele>244.25524902344</ele>
        <time>2025-08-01T17:22:25.000+02:00</time>
      </trkpt>
      <trkpt lat="48.60525" lon="-2.50538">
        <ele>247.63623046875</ele>
        <time>2025-08-01T17:22:30.000+02:00</time>
      </trkpt>
      <trkpt lat="48.60537" lon="-2.50527">
        <ele>253.10729980469</ele>
        <time>2025-08-01T17:22:35.000+02:00</time>
      </trkpt>
      <trkpt lat="48.60526" lon="-2.50558">
        <ele>253.93927001953</ele>
        <time>2025-08-01T17:22:41.000+02:00</time>
      </trkpt>
      <trkpt lat="48.60514" lon="-2.50566">
        <ele>260.66040039062</ele>
        <time>2025-08-01T17:22:50.000+02:00</time>
      </trkpt>
      <trkpt lat="48.60515" lon="-2.50519">
        <ele>269.41949462891</ele>
        <time>2025-08-01T17:22:55.000+02:00</time>
      </trkpt>
      <trkpt lat="48.60512" lon="-2.50527">
        <ele>281.68981933594</ele>
        <time>2025-08-01T17:23:01.000+02:00</time>
      </trkpt>
      <trkpt lat="48.60495" lon="-2.50596">
        <ele>279.99359130859</ele>
        <time>2025-08-01T17:23:10.000+02:00</time>
      </trkpt>
      <trkpt lat="48.60491" lon="-2.50553">
        <ele>282.89776611328</ele>
        <time>2025-08-01T17:23:15.000+02:00</time>
      </trkpt>
      <trkpt lat="48.60512" lon="-2.5051">
        <ele>292.75189208984</ele>
        <time>2025-08-01T17:23:20.000+02:00</time>
      </trkpt>
      <trkpt lat="48.60518" lon="-2.50522">
        <ele>291.99353027344</ele>
        <time>2025-08-01T17:23:25.000+02:00</time>
      </trkpt>
      <trkpt lat="48.60512" lon="-2.50561">
        <ele>291.90405273438</ele>
        <time>2025-08-01T17:23:30.000+02:00</time>
      </trkpt>
      <trkpt lat="48.60518" lon="-2.50563">
        <ele>291.50830078125</ele>
        <time>2025-08-01T17:23:35.000+02:00</time>
      </trkpt>
      <trkpt lat="48.6053" lon="-2.50539">
        <ele>299.10034179688</ele>
        <time>2025-08-01T17:23:41.000+02:00</time>
      </trkpt>
      <trkpt lat="48.605" lon="-2.50585">
        <ele>295.77319335938</ele>
        <time>2025-08-01T17:23:50.000+02:00</time>
      </trkpt>
      <trkpt lat="48.60482" lon="-2.50621">
        <ele>298.39001464844</ele>
        <time>2025-08-01T17:23:56.000+02:00</time>
      </trkpt>
      <trkpt lat="48.60509" lon="-2.50577">
        <ele>291.21221923828</ele>
        <time>2025-08-01T17:24:05.000+02:00</time>
      </trkpt>
      <trkpt lat="48.60528" lon="-2.5057">
        <ele>295.18920898438</ele>
        <time>2025-08-01T17:24:10.000+02:00</time>
      </trkpt>
      <trkpt lat="48.60538" lon="-2.50563">
        <ele>283.09033203125</ele>
        <time>2025-08-01T17:24:15.000+02:00</time>
      </trkpt>
      <trkpt lat="48.60552" lon="-2.50539">
        <ele>284.01440429688</ele>
        <time>2025-08-01T17:24:20.000+02:00</time>
      </trkpt>
      <trkpt lat="48.60559" lon="-2.50479">
        <ele>283.78515625</ele>
        <time>2025-08-01T17:24:25.000+02:00</time>
      </trkpt>
      <trkpt lat="48.60594" lon="-2.5048">
        <ele>284.79016113281</ele>
        <time>2025-08-01T17:24:31.000+02:00</time>
      </trkpt>
      <trkpt lat="48.60629" lon="-2.5046">
        <ele>279.73229980469</ele>
        <time>2025-08-01T17:24:40.000+02:00</time>
      </trkpt>
      <trkpt lat="48.60652" lon="-2.50447">
        <ele>284.01770019531</ele>
        <time>2025-08-01T17:24:45.000+02:00</time>
      </trkpt>
      <trkpt lat="48.60678" lon="-2.50434">
        <ele>286.748046875</ele>
        <time>2025-08-01T17:24:51.000+02:00</time>
      </trkpt>
      <trkpt lat="48.60686" lon="-2.5041">
        <ele>282.39599609375</ele>
        <time>2025-08-01T17:24:56.000+02:00</time>
      </trkpt>
      <trkpt lat="48.60724" lon="-2.50378">
        <ele>288.22619628906</ele>
        <time>2025-08-01T17:25:06.000+02:00</time>
      </trkpt>
      <trkpt lat="48.60754" lon="-2.50328">
        <ele>301.43493652344</ele>
        <time>2025-08-01T17:25:11.000+02:00</time>
      </trkpt>
      <trkpt lat="48.60779" lon="-2.50299">
        <ele>296.78393554688</ele>
        <time>2025-08-01T17:25:20.000+02:00</time>
      </trkpt>
      <trkpt lat="48.60801" lon="-2.50267">
        <ele>289.43627929688</ele>
        <time>2025-08-01T17:25:25.000+02:00</time>
      </trkpt>
      <trkpt lat="48.60816" lon="-2.50229">
        <ele>283.32690429688</ele>
        <time>2025-08-01T17:25:30.000+02:00</time>
      </trkpt>
      <trkpt lat="48.60834" lon="-2.50177">
        <ele>280.72338867188</ele>
        <time>2025-08-01T17:25:35.000+02:00</time>
      </trkpt>
      <trkpt lat="48.60857" lon="-2.50126">
        <ele>287.79162597656</ele>
        <time>2025-08-01T17:25:40.000+02:00</time>
      </trkpt>
      <trkpt lat="48.60878" lon="-2.50081">
        <ele>276.92584228516</ele>
        <time>2025-08-01T17:25:45.000+02:00</time>
      </trkpt>
      <trkpt lat="48.60893" lon="-2.50035">
        <ele>279.86834716797</ele>
        <time>2025-08-01T17:25:50.000+02:00</time>
      </trkpt>
      <trkpt lat="48.60918" lon="-2.49979">
        <ele>277.36547851562</ele>
        <time>2025-08-01T17:25:56.000+02:00</time>
      </trkpt>
      <trkpt lat="48.60952" lon="-2.49921">
        <ele>276.16638183594</ele>
        <time>2025-08-01T17:26:01.000+02:00</time>
      </trkpt>
      <trkpt lat="48.60974" lon="-2.49891">
        <ele>273.95465087891</ele>
        <time>2025-08-01T17:26:06.000+02:00</time>
      </trkpt>
      <trkpt lat="48.60987" lon="-2.49857">
        <ele>266.08142089844</ele>
        <time>2025-08-01T17:26:11.000+02:00</time>
      </trkpt>
      <trkpt lat="48.60997" lon="-2.49821">
        <ele>255.20880126953</ele>
        <time>2025-08-01T17:26:16.000+02:00</time>
      </trkpt>
      <trkpt lat="48.61007" lon="-2.49775">
        <ele>243.36596679688</ele>
        <time>2025-08-01T17:26:21.000+02:00</time>
      </trkpt>
      <trkpt lat="48.61022" lon="-2.4974">
        <ele>238.423828125</ele>
        <time>2025-08-01T17:26:26.000+02:00</time>
      </trkpt>
      <trkpt lat="48.61036" lon="-2.49702">
        <ele>231.99719238281</ele>
        <time>2025-08-01T17:26:31.000+02:00</time>
      </trkpt>
      <trkpt lat="48.61052" lon="-2.49661">
        <ele>227.91705322266</ele>
        <time>2025-08-01T17:26:36.000+02:00</time>
      </trkpt>
      <trkpt lat="48.6107" lon="-2.49628">
        <ele>215.64935302734</ele>
        <time>2025-08-01T17:26:41.000+02:00</time>
      </trkpt>
      <trkpt lat="48.61089" lon="-2.49563">
        <ele>200.31762695312</ele>
        <time>2025-08-01T17:26:50.000+02:00</time>
      </trkpt>
      <trkpt lat="48.61106" lon="-2.49515">
        <ele>200.29467773438</ele>
        <time>2025-08-01T17:26:56.000+02:00</time>
      </trkpt>
      <trkpt lat="48.61126" lon="-2.49459">
        <ele>178.02178955078</ele>
        <time>2025-08-01T17:27:05.000+02:00</time>
      </trkpt>
      <trkpt lat="48.61143" lon="-2.49412">
        <ele>166.95501708984</ele>
        <time>2025-08-01T17:27:11.000+02:00</time>
      </trkpt>
      <trkpt lat="48.61189" lon="-2.49319">
        <ele>170.27337646484</ele>
        <time>2025-08-01T17:27:21.000+02:00</time>
      </trkpt>
      <trkpt lat="48.61216" lon="-2.49277">
        <ele>171.30847167969</ele>
        <time>2025-08-01T17:27:30.000+02:00</time>
      </trkpt>
      <trkpt lat="48.61232" lon="-2.49238">
        <ele>169.01458740234</ele>
        <time>2025-08-01T17:27:35.000+02:00</time>
      </trkpt>
      <trkpt lat="48.61245" lon="-2.49206">
        <ele>162.36364746094</ele>
        <time>2025-08-01T17:27:40.000+02:00</time>
      </trkpt>
      <trkpt lat="48.61261" lon="-2.49177">
        <ele>163.59259033203</ele>
        <time>2025-08-01T17:27:45.000+02:00</time>
      </trkpt>
      <trkpt lat="48.61271" lon="-2.49155">
        <ele>155.84741210938</ele>
        <time>2025-08-01T17:27:50.000+02:00</time>
      </trkpt>
      <trkpt lat="48.61277" lon="-2.49132">
        <ele>155.17419433594</ele>
        <time>2025-08-01T17:27:55.000+02:00</time>
      </trkpt>
      <trkpt lat="48.6129" lon="-2.49101">
        <ele>160.60375976562</ele>
        <time>2025-08-01T17:28:00.000+02:00</time>
      </trkpt>
      <trkpt lat="48.61297" lon="-2.4906">
        <ele>143.63641357422</ele>
        <time>2025-08-01T17:28:05.000+02:00</time>
      </trkpt>
      <trkpt lat="48.61325" lon="-2.49037">
        <ele>143.9052734375</ele>
        <time>2025-08-01T17:28:11.000+02:00</time>
      </trkpt>
      <trkpt lat="48.61357" lon="-2.49019">
        <ele>147.89202880859</ele>
        <time>2025-08-01T17:28:20.000+02:00</time>
      </trkpt>
      <trkpt lat="48.6137" lon="-2.49001">
        <ele>147.73315429688</ele>
        <time>2025-08-01T17:28:25.000+02:00</time>
      </trkpt>
      <trkpt lat="48.61379" lon="-2.48991">
        <ele>147.58654785156</ele>
        <time>2025-08-01T17:28:30.000+02:00</time>
      </trkpt>
      <trkpt lat="48.61392" lon="-2.48965">
        <ele>143.84930419922</ele>
        <time>2025-08-01T17:28:35.000+02:00</time>
      </trkpt>
      <trkpt lat="48.61405" lon="-2.48937">
        <ele>139.14477539062</ele>
        <time>2025-08-01T17:28:41.000+02:00</time>
      </trkpt>
      <trkpt lat="48.61411" lon="-2.4887">
        <ele>145.21789550781</ele>
        <time>2025-08-01T17:28:50.000+02:00</time>
      </trkpt>
      <trkpt lat="48.61413" lon="-2.48831">
        <ele>148.87548828125</ele>
        <time>2025-08-01T17:28:55.000+02:00</time>
      </trkpt>
      <trkpt lat="48.61416" lon="-2.48805">
        <ele>142.57409667969</ele>
        <time>2025-08-01T17:29:00.000+02:00</time>
      </trkpt>
      <trkpt lat="48.61417" lon="-2.4876">
        <ele>142.77526855469</ele>
        <time>2025-08-01T17:29:05.000+02:00</time>
      </trkpt>
      <trkpt lat="48.61421" lon="-2.48708">
        <ele>140.49395751953</ele>
        <time>2025-08-01T17:29:10.000+02:00</time>
      </trkpt>
      <trkpt lat="48.61422" lon="-2.48665">
        <ele>143.49554443359</ele>
        <time>2025-08-01T17:29:15.000+02:00</time>
      </trkpt>
      <trkpt lat="48.61437" lon="-2.48664">
        <ele>141.19805908203</ele>
        <time>2025-08-01T17:29:20.000+02:00</time>
      </trkpt>
      <trkpt lat="48.61443" lon="-2.4868">
        <ele>144.49041748047</ele>
        <time>2025-08-01T17:29:25.000+02:00</time>
      </trkpt>
      <trkpt lat="48.61449" lon="-2.48646">
        <ele>148.3017578125</ele>
        <time>2025-08-01T17:29:30.000+02:00</time>
      </trkpt>
      <trkpt lat="48.61463" lon="-2.48633">
        <ele>153.50427246094</ele>
        <time>2025-08-01T17:29:35.000+02:00</time>
      </trkpt>
      <trkpt lat="48.61465" lon="-2.48647">
        <ele>156.27954101562</ele>
        <time>2025-08-01T17:29:40.000+02:00</time>
      </trkpt>
      <trkpt lat="48.61472" lon="-2.48657">
        <ele>155.50402832031</ele>
        <time>2025-08-01T17:29:45.000+02:00</time>
      </trkpt>
      <trkpt lat="48.6147" lon="-2.48673">
        <ele>153.46875</ele>
        <time>2025-08-01T17:29:50.000+02:00</time>
      </trkpt>
      <trkpt lat="48.61466" lon="-2.4869">
        <ele>150.23315429688</ele>
        <time>2025-08-01T17:29:55.000+02:00</time>
      </trkpt>
      <trkpt lat="48.61464" lon="-2.48717">
        <ele>150.68640136719</ele>
        <time>2025-08-01T17:30:00.000+02:00</time>
      </trkpt>
      <trkpt lat="48.61465" lon="-2.48749">
        <ele>153.04156494141</ele>
        <time>2025-08-01T17:30:05.000+02:00</time>
      </trkpt>
      <trkpt lat="48.61462" lon="-2.48791">
        <ele>154.06494140625</ele>
        <time>2025-08-01T17:30:10.000+02:00</time>
      </trkpt>
      <trkpt lat="48.61464" lon="-2.48792">
        <ele>153.64331054688</ele>
        <time>2025-08-01T17:30:15.000+02:00</time>
      </trkpt>
      <trkpt lat="48.61455" lon="-2.48731">
        <ele>157.38977050781</ele>
        <time>2025-08-01T17:30:20.000+02:00</time>
      </trkpt>
      <trkpt lat="48.61451" lon="-2.48666">
        <ele>159.13549804688</ele>
        <time>2025-08-01T17:30:25.000+02:00</time>
      </trkpt>
      <trkpt lat="48.61455" lon="-2.48622">
        <ele>158.72723388672</ele>
        <time>2025-08-01T17:30:30.000+02:00</time>
      </trkpt>
      <trkpt lat="48.6146" lon="-2.48638">
        <ele>161.07928466797</ele>
        <time>2025-08-01T17:30:35.000+02:00</time>
      </trkpt>
      <trkpt lat="48.61459" lon="-2.48663">
        <ele>162.45465087891</ele>
        <time>2025-08-01T17:30:40.000+02:00</time>
      </trkpt>
      <trkpt lat="48.61465" lon="-2.48675">
        <ele>160.31518554688</ele>
        <time>2025-08-01T17:30:45.000+02:00</time>
      </trkpt>
      <trkpt lat="48.61471" lon="-2.48666">
        <ele>155.50811767578</ele>
        <time>2025-08-01T17:30:50.000+02:00</time>
      </trkpt>
      <trkpt lat="48.61475" lon="-2.48671">
        <ele>158.77160644531</ele>
        <time>2025-08-01T17:30:55.000+02:00</time>
      </trkpt>
      <trkpt lat="48.61473" lon="-2.48703">
        <ele>164.23486328125</ele>
        <time>2025-08-01T17:31:00.000+02:00</time>
      </trkpt>
      <trkpt lat="48.61489" lon="-2.48687">
        <ele>171.50030517578</ele>
        <time>2025-08-01T17:31:05.000+02:00</time>
      </trkpt>
      <trkpt lat="48.61496" lon="-2.4866">
        <ele>152.00744628906</ele>
        <time>2025-08-01T17:31:10.000+02:00</time>
      </trkpt>
      <trkpt lat="48.61498" lon="-2.48694">
        <ele>156.10675048828</ele>
        <time>2025-08-01T17:31:15.000+02:00</time>
      </trkpt>
      <trkpt lat="48.61482" lon="-2.48732">
        <ele>148.97497558594</ele>
        <time>2025-08-01T17:31:20.000+02:00</time>
      </trkpt>
      <trkpt lat="48.61484" lon="-2.4877">
        <ele>167.95440673828</ele>
        <time>2025-08-01T17:31:25.000+02:00</time>
      </trkpt>
      <trkpt lat="48.61482" lon="-2.48791">
        <ele>170.91247558594</ele>
        <time>2025-08-01T17:31:30.000+02:00</time>
      </trkpt>
      <trkpt lat="48.6149" lon="-2.48758">
        <ele>169.73559570312</ele>
        <time>2025-08-01T17:31:35.000+02:00</time>
      </trkpt>
      <trkpt lat="48.61476" lon="-2.48693">
        <ele>165.82525634766</ele>
        <time>2025-08-01T17:31:40.000+02:00</time>
      </trkpt>
      <trkpt lat="48.61462" lon="-2.48625">
        <ele>171.51458740234</ele>
        <time>2025-08-01T17:31:45.000+02:00</time>
      </trkpt>
      <trkpt lat="48.61478" lon="-2.48604">
        <ele>167.28381347656</ele>
        <time>2025-08-01T17:31:50.000+02:00</time>
      </trkpt>
      <trkpt lat="48.61475" lon="-2.48639">
        <ele>162.59436035156</ele>
        <time>2025-08-01T17:31:55.000+02:00</time>
      </trkpt>
      <trkpt lat="48.61466" lon="-2.48676">
        <ele>160.89282226562</ele>
        <time>2025-08-01T17:32:00.000+02:00</time>
      </trkpt>
      <trkpt lat="48.61452" lon="-2.48716">
        <ele>155.51391601562</ele>
        <time>2025-08-01T17:32:05.000+02:00</time>
      </trkpt>
      <trkpt lat="48.61442" lon="-2.48753">
        <ele>156.81237792969</ele>
        <time>2025-08-01T17:32:10.000+02:00</time>
      </trkpt>
      <trkpt lat="48.61443" lon="-2.48775">
        <ele>160.52514648438</ele>
        <time>2025-08-01T17:32:15.000+02:00</time>
      </trkpt>
      <trkpt lat="48.61445" lon="-2.48778">
        <ele>158.32775878906</ele>
        <time>2025-08-01T17:32:20.000+02:00</time>
      </trkpt>
      <trkpt lat="48.61439" lon="-2.48816">
        <ele>155.00708007812</ele>
        <time>2025-08-01T17:32:25.000+02:00</time>
      </trkpt>
      <trkpt lat="48.61435" lon="-2.48856">
        <ele>155.72375488281</ele>
        <time>2025-08-01T17:32:30.000+02:00</time>
      </trkpt>
      <trkpt lat="48.61443" lon="-2.48844">
        <ele>156.50634765625</ele>
        <time>2025-08-01T17:32:35.000+02:00</time>
      </trkpt>
      <trkpt lat="48.61453" lon="-2.48824">
        <ele>156.74468994141</ele>
        <time>2025-08-01T17:32:40.000+02:00</time>
      </trkpt>
      <trkpt lat="48.61435" lon="-2.48842">
        <ele>156.16448974609</ele>
        <time>2025-08-01T17:32:45.000+02:00</time>
      </trkpt>
      <trkpt lat="48.61434" lon="-2.48862">
        <ele>160.16973876953</ele>
        <time>2025-08-01T17:32:50.000+02:00</time>
      </trkpt>
      <trkpt lat="48.61438" lon="-2.48815">
        <ele>163.53875732422</ele>
        <time>2025-08-01T17:32:55.000+02:00</time>
      </trkpt>
      <trkpt lat="48.61431" lon="-2.4876">
        <ele>155.81597900391</ele>
        <time>2025-08-01T17:33:00.000+02:00</time>
      </trkpt>
      <trkpt lat="48.61438" lon="-2.48762">
        <ele>154.32135009766</ele>
        <time>2025-08-01T17:33:05.000+02:00</time>
      </trkpt>
      <trkpt lat="48.61434" lon="-2.48792">
        <ele>153.76489257812</ele>
        <time>2025-08-01T17:33:10.000+02:00</time>
      </trkpt>
      <trkpt lat="48.61435" lon="-2.48821">
        <ele>148.77282714844</ele>
        <time>2025-08-01T17:33:15.000+02:00</time>
      </trkpt>
      <trkpt lat="48.61443" lon="-2.4884">
        <ele>150.73223876953</ele>
        <time>2025-08-01T17:33:20.000+02:00</time>
      </trkpt>
      <trkpt lat="48.61441" lon="-2.48794">
        <ele>152.10552978516</ele>
        <time>2025-08-01T17:33:25.000+02:00</time>
      </trkpt>
      <trkpt lat="48.61449" lon="-2.48779">
        <ele>156.31781005859</ele>
        <time>2025-08-01T17:33:30.000+02:00</time>
      </trkpt>
      <trkpt lat="48.61437" lon="-2.48812">
        <ele>156.74053955078</ele>
        <time>2025-08-01T17:33:35.000+02:00</time>
      </trkpt>
      <trkpt lat="48.61423" lon="-2.48837">
        <ele>162.14562988281</ele>
        <time>2025-08-01T17:33:40.000+02:00</time>
      </trkpt>
      <trkpt lat="48.61432" lon="-2.4881">
        <ele>161.25823974609</ele>
        <time>2025-08-01T17:33:45.000+02:00</time>
      </trkpt>
      <trkpt lat="48.61417" lon="-2.48764">
        <ele>155.78356933594</ele>
        <time>2025-08-01T17:33:50.000+02:00</time>
      </trkpt>
      <trkpt lat="48.6142" lon="-2.48748">
        <ele>162.28137207031</ele>
        <time>2025-08-01T17:33:55.000+02:00</time>
      </trkpt>
      <trkpt lat="48.61418" lon="-2.48775">
        <ele>170.23449707031</ele>
        <time>2025-08-01T17:34:00.000+02:00</time>
      </trkpt>
      <trkpt lat="48.61421" lon="-2.48742">
        <ele>168.71301269531</ele>
        <time>2025-08-01T17:34:05.000+02:00</time>
      </trkpt>
      <trkpt lat="48.61437" lon="-2.48709">
        <ele>180.0673828125</ele>
        <time>2025-08-01T17:34:10.000+02:00</time>
      </trkpt>
      <trkpt lat="48.61438" lon="-2.48736">
        <ele>179.09539794922</ele>
        <time>2025-08-01T17:34:15.000+02:00</time>
      </trkpt>
      <trkpt lat="48.61439" lon="-2.48738">
        <ele>175.15393066406</ele>
        <time>2025-08-01T17:34:20.000+02:00</time>
      </trkpt>
      <trkpt lat="48.61434" lon="-2.48685">
        <ele>176.1298828125</ele>
        <time>2025-08-01T17:34:25.000+02:00</time>
      </trkpt>
      <trkpt lat="48.61449" lon="-2.48678">
        <ele>176.81579589844</ele>
        <time>2025-08-01T17:34:30.000+02:00</time>
      </trkpt>
      <trkpt lat="48.61457" lon="-2.48691">
        <ele>177.28369140625</ele>
        <time>2025-08-01T17:34:35.000+02:00</time>
      </trkpt>
      <trkpt lat="48.61456" lon="-2.48721">
        <ele>172.32019042969</ele>
        <time>2025-08-01T17:34:40.000+02:00</time>
      </trkpt>
      <trkpt lat="48.61463" lon="-2.48748">
        <ele>175.95422363281</ele>
        <time>2025-08-01T17:34:45.000+02:00</time>
      </trkpt>
      <trkpt lat="48.61465" lon="-2.48758">
        <ele>173.03527832031</ele>
        <time>2025-08-01T17:34:50.000+02:00</time>
      </trkpt>
      <trkpt lat="48.61471" lon="-2.48719">
        <ele>176.1650390625</ele>
        <time>2025-08-01T17:34:55.000+02:00</time>
      </trkpt>
      <trkpt lat="48.61478" lon="-2.48695">
        <ele>184.3642578125</ele>
        <time>2025-08-01T17:35:00.000+02:00</time>
      </trkpt>
      <trkpt lat="48.6147" lon="-2.48729">
        <ele>184.84167480469</ele>
        <time>2025-08-01T17:35:05.000+02:00</time>
      </trkpt>
      <trkpt lat="48.61463" lon="-2.48768">
        <ele>186.79919433594</ele>
        <time>2025-08-01T17:35:10.000+02:00</time>
      </trkpt>
      <trkpt lat="48.61474" lon="-2.48762">
        <ele>191.84820556641</ele>
        <time>2025-08-01T17:35:15.000+02:00</time>
      </trkpt>
      <trkpt lat="48.61438" lon="-2.48721">
        <ele>191.55444335938</ele>
        <time>2025-08-01T17:35:20.000+02:00</time>
      </trkpt>
      <trkpt lat="48.61418" lon="-2.4875">
        <ele>194.57080078125</ele>
        <time>2025-08-01T17:35:25.000+02:00</time>
      </trkpt>
      <trkpt lat="48.61424" lon="-2.48769">
        <ele>199.61206054688</ele>
        <time>2025-08-01T17:35:30.000+02:00</time>
      </trkpt>
      <trkpt lat="48.61413" lon="-2.4871">
        <ele>200.27008056641</ele>
        <time>2025-08-01T17:35:35.000+02:00</time>
      </trkpt>
      <trkpt lat="48.61387" lon="-2.48718">
        <ele>203.02520751953</ele>
        <time>2025-08-01T17:35:40.000+02:00</time>
      </trkpt>
      <trkpt lat="48.61383" lon="-2.48742">
        <ele>212.46942138672</ele>
        <time>2025-08-01T17:35:45.000+02:00</time>
      </trkpt>
      <trkpt lat="48.61387" lon="-2.48739">
        <ele>214.19842529297</ele>
        <time>2025-08-01T17:35:50.000+02:00</time>
      </trkpt>
      <trkpt lat="48.614" lon="-2.48709">
        <ele>203.88659667969</ele>
        <time>2025-08-01T17:35:55.000+02:00</time>
      </trkpt>
      <trkpt lat="48.6141" lon="-2.48665">
        <ele>196.09088134766</ele>
        <time>2025-08-01T17:36:00.000+02:00</time>
      </trkpt>
      <trkpt lat="48.61415" lon="-2.48613">
        <ele>190.92230224609</ele>
        <time>2025-08-01T17:36:05.000+02:00</time>
      </trkpt>
      <trkpt lat="48.61421" lon="-2.48556">
        <ele>189.65478515625</ele>
        <time>2025-08-01T17:36:10.000+02:00</time>
      </trkpt>
      <trkpt lat="48.61428" lon="-2.48508">
        <ele>185.30493164062</ele>
        <time>2025-08-01T17:36:15.000+02:00</time>
      </trkpt>
      <trkpt lat="48.61435" lon="-2.4847">
        <ele>185.88952636719</ele>
        <time>2025-08-01T17:36:20.000+02:00</time>
      </trkpt>
      <trkpt lat="48.61444" lon="-2.48425">
        <ele>187.47094726562</ele>
        <time>2025-08-01T17:36:25.000+02:00</time>
      </trkpt>
      <trkpt lat="48.61461" lon="-2.48414">
        <ele>193.41870117188</ele>
        <time>2025-08-01T17:36:30.000+02:00</time>
      </trkpt>
      <trkpt lat="48.61474" lon="-2.48437">
        <ele>197.80773925781</ele>
        <time>2025-08-01T17:36:35.000+02:00</time>
      </trkpt>
      <trkpt lat="48.61483" lon="-2.48433">
        <ele>200.57482910156</ele>
        <time>2025-08-01T17:36:40.000+02:00</time>
      </trkpt>
      <trkpt lat="48.61495" lon="-2.48404">
        <ele>201.42376708984</ele>
        <time>2025-08-01T17:36:45.000+02:00</time>
      </trkpt>
      <trkpt lat="48.61498" lon="-2.48379">
        <ele>191.76373291016</ele>
        <time>2025-08-01T17:36:50.000+02:00</time>
      </trkpt>
      <trkpt lat="48.61496" lon="-2.48382">
        <ele>191.95989990234</ele>
        <time>2025-08-01T17:36:55.000+02:00</time>
      </trkpt>
      <trkpt lat="48.61514" lon="-2.48388">
        <ele>197.19177246094</ele>
        <time>2025-08-01T17:37:00.000+02:00</time>
      </trkpt>
      <trkpt lat="48.61525" lon="-2.48353">
        <ele>199.83728027344</ele>
        <time>2025-08-01T17:37:05.000+02:00</time>
      </trkpt>
      <trkpt lat="48.61533" lon="-2.48325">
        <ele>202.68548583984</ele>
        <time>2025-08-01T17:37:10.000+02:00</time>
      </trkpt>
      <trkpt lat="48.61537" lon="-2.48348">
        <ele>207.03442382812</ele>
        <time>2025-08-01T17:37:15.000+02:00</time>
      </trkpt>
      <trkpt lat="48.61533" lon="-2.48382">
        <ele>202.63641357422</ele>
        <time>2025-08-01T17:37:20.000+02:00</time>
      </trkpt>
      <trkpt lat="48.61526" lon="-2.48412">
        <ele>196.70471191406</ele>
        <time>2025-08-01T17:37:25.000+02:00</time>
      </trkpt>
      <trkpt lat="48.61519" lon="-2.48454">
        <ele>194.76513671875</ele>
        <time>2025-08-01T17:37:30.000+02:00</time>
      </trkpt>
      <trkpt lat="48.61513" lon="-2.485">
        <ele>202.82244873047</ele>
        <time>2025-08-01T17:37:35.000+02:00</time>
      </trkpt>
      <trkpt lat="48.61517" lon="-2.48507">
        <ele>203.19946289062</ele>
        <time>2025-08-01T17:37:40.000+02:00</time>
      </trkpt>
      <trkpt lat="48.61519" lon="-2.4846">
        <ele>203.6591796875</ele>
        <time>2025-08-01T17:37:45.000+02:00</time>
      </trkpt>
      <trkpt lat="48.61526" lon="-2.4844">
        <ele>212.62048339844</ele>
        <time>2025-08-01T17:37:50.000+02:00</time>
      </trkpt>
      <trkpt lat="48.61519" lon="-2.48463">
        <ele>206.73950195312</ele>
        <time>2025-08-01T17:37:55.000+02:00</time>
      </trkpt>
      <trkpt lat="48.61516" lon="-2.48502">
        <ele>207.95526123047</ele>
        <time>2025-08-01T17:38:00.000+02:00</time>
      </trkpt>
      <trkpt lat="48.61516" lon="-2.48543">
        <ele>207.96112060547</ele>
        <time>2025-08-01T17:38:05.000+02:00</time>
      </trkpt>
      <trkpt lat="48.61516" lon="-2.48573">
        <ele>202.3134765625</ele>
        <time>2025-08-01T17:38:10.000+02:00</time>
      </trkpt>
      <trkpt lat="48.61515" lon="-2.48614">
        <ele>202.69421386719</ele>
        <time>2025-08-01T17:38:15.000+02:00</time>
      </trkpt>
      <trkpt lat="48.61508" lon="-2.48629">
        <ele>200.45837402344</ele>
        <time>2025-08-01T17:38:20.000+02:00</time>
      </trkpt>
      <trkpt lat="48.61515" lon="-2.48616">
        <ele>200.54925537109</ele>
        <time>2025-08-01T17:38:25.000+02:00</time>
      </trkpt>
      <trkpt lat="48.61518" lon="-2.48559">
        <ele>200.52258300781</ele>
        <time>2025-08-01T17:38:30.000+02:00</time>
      </trkpt>
      <trkpt lat="48.61519" lon="-2.48518">
        <ele>200.80236816406</ele>
        <time>2025-08-01T17:38:35.000+02:00</time>
      </trkpt>
      <trkpt lat="48.61527" lon="-2.48501">
        <ele>198.22338867188</ele>
        <time>2025-08-01T17:38:40.000+02:00</time>
      </trkpt>
      <trkpt lat="48.61535" lon="-2.48492">
        <ele>188.51190185547</ele>
        <time>2025-08-01T17:38:45.000+02:00</time>
      </trkpt>
      <trkpt lat="48.61539" lon="-2.48493">
        <ele>185.32244873047</ele>
        <time>2025-08-01T17:38:50.000+02:00</time>
      </trkpt>
      <trkpt lat="48.61542" lon="-2.48535">
        <ele>184.59112548828</ele>
        <time>2025-08-01T17:38:55.000+02:00</time>
      </trkpt>
      <trkpt lat="48.61536" lon="-2.48571">
        <ele>200.69274902344</ele>
        <time>2025-08-01T17:39:00.000+02:00</time>
      </trkpt>
      <trkpt lat="48.61525" lon="-2.48621">
        <ele>189.48822021484</ele>
        <time>2025-08-01T17:39:05.000+02:00</time>
      </trkpt>
      <trkpt lat="48.61505" lon="-2.48668">
        <ele>181.91687011719</ele>
        <time>2025-08-01T17:39:10.000+02:00</time>
      </trkpt>
      <trkpt lat="48.61485" lon="-2.48708">
        <ele>179.85797119141</ele>
        <time>2025-08-01T17:39:15.000+02:00</time>
      </trkpt>
      <trkpt lat="48.6147" lon="-2.48749">
        <ele>176.40075683594</ele>
        <time>2025-08-01T17:39:20.000+02:00</time>
      </trkpt>
      <trkpt lat="48.61453" lon="-2.48791">
        <ele>174.29180908203</ele>
        <time>2025-08-01T17:39:25.000+02:00</time>
      </trkpt>
      <trkpt lat="48.61443" lon="-2.48831">
        <ele>170.20257568359</ele>
        <time>2025-08-01T17:39:30.000+02:00</time>
      </trkpt>
      <trkpt lat="48.61444" lon="-2.48832">
        <ele>176.56884765625</ele>
        <time>2025-08-01T17:39:35.000+02:00</time>
      </trkpt>
      <trkpt lat="48.61442" lon="-2.48785">
        <ele>173.08270263672</ele>
        <time>2025-08-01T17:39:40.000+02:00</time>
      </trkpt>
      <trkpt lat="48.6143" lon="-2.48739">
        <ele>174.17449951172</ele>
        <time>2025-08-01T17:39:45.000+02:00</time>
      </trkpt>
      <trkpt lat="48.6143" lon="-2.48724">
        <ele>178.41357421875</ele>
        <time>2025-08-01T17:39:51.000+02:00</time>
      </trkpt>
      <trkpt lat="48.61442" lon="-2.48772">
        <ele>178.11114501953</ele>
        <time>2025-08-01T17:40:00.000+02:00</time>
      </trkpt>
      <trkpt lat="48.61449" lon="-2.48753">
        <ele>177.13116455078</ele>
        <time>2025-08-01T17:40:05.000+02:00</time>
      </trkpt>
      <trkpt lat="48.61454" lon="-2.48715">
        <ele>178.55859375</ele>
        <time>2025-08-01T17:40:10.000+02:00</time>
      </trkpt>
      <trkpt lat="48.61446" lon="-2.48733">
        <ele>177.37573242188</ele>
        <time>2025-08-01T17:40:15.000+02:00</time>
      </trkpt>
      <trkpt lat="48.61436" lon="-2.48768">
        <ele>176.2138671875</ele>
        <time>2025-08-01T17:40:20.000+02:00</time>
      </trkpt>
      <trkpt lat="48.61448" lon="-2.48782">
        <ele>180.82019042969</ele>
        <time>2025-08-01T17:40:25.000+02:00</time>
      </trkpt>
      <trkpt lat="48.61444" lon="-2.48743">
        <ele>180.3359375</ele>
        <time>2025-08-01T17:40:30.000+02:00</time>
      </trkpt>
      <trkpt lat="48.6144" lon="-2.48702">
        <ele>179.67431640625</ele>
        <time>2025-08-01T17:40:35.000+02:00</time>
      </trkpt>
      <trkpt lat="48.61447" lon="-2.48696">
        <ele>192.81921386719</ele>
        <time>2025-08-01T17:40:40.000+02:00</time>
      </trkpt>
      <trkpt lat="48.61448" lon="-2.48725">
        <ele>194.31646728516</ele>
        <time>2025-08-01T17:40:45.000+02:00</time>
      </trkpt>
      <trkpt lat="48.61447" lon="-2.48745">
        <ele>186.10864257812</ele>
        <time>2025-08-01T17:40:50.000+02:00</time>
      </trkpt>
      <trkpt lat="48.61441" lon="-2.487">
        <ele>190.49151611328</ele>
        <time>2025-08-01T17:40:55.000+02:00</time>
      </trkpt>
      <trkpt lat="48.61452" lon="-2.48663">
        <ele>181.50933837891</ele>
        <time>2025-08-01T17:41:00.000+02:00</time>
      </trkpt>
      <trkpt lat="48.61446" lon="-2.48686">
        <ele>178.92840576172</ele>
        <time>2025-08-01T17:41:05.000+02:00</time>
      </trkpt>
      <trkpt lat="48.61434" lon="-2.48705">
        <ele>186.38256835938</ele>
        <time>2025-08-01T17:41:11.000+02:00</time>
      </trkpt>
      <trkpt lat="48.61445" lon="-2.48758">
        <ele>174.82659912109</ele>
        <time>2025-08-01T17:41:20.000+02:00</time>
      </trkpt>
      <trkpt lat="48.61438" lon="-2.48797">
        <ele>171.41564941406</ele>
        <time>2025-08-01T17:41:25.000+02:00</time>
      </trkpt>
      <trkpt lat="48.61432" lon="-2.48838">
        <ele>166.49450683594</ele>
        <time>2025-08-01T17:41:30.000+02:00</time>
      </trkpt>
      <trkpt lat="48.6143" lon="-2.48864">
        <ele>166.60095214844</ele>
        <time>2025-08-01T17:41:35.000+02:00</time>
      </trkpt>
      <trkpt lat="48.61411" lon="-2.48904">
        <ele>160.162109375</ele>
        <time>2025-08-01T17:41:40.000+02:00</time>
      </trkpt>
      <trkpt lat="48.61407" lon="-2.48942">
        <ele>166.48565673828</ele>
        <time>2025-08-01T17:41:45.000+02:00</time>
      </trkpt>
      <trkpt lat="48.61408" lon="-2.48962">
        <ele>162.47076416016</ele>
        <time>2025-08-01T17:41:50.000+02:00</time>
      </trkpt>
      <trkpt lat="48.6141" lon="-2.48923">
        <ele>158.0859375</ele>
        <time>2025-08-01T17:41:55.000+02:00</time>
      </trkpt>
      <trkpt lat="48.61407" lon="-2.48875">
        <ele>158.10412597656</ele>
        <time>2025-08-01T17:42:00.000+02:00</time>
      </trkpt>
      <trkpt lat="48.6141" lon="-2.48826">
        <ele>158.95843505859</ele>
        <time>2025-08-01T17:42:05.000+02:00</time>
      </trkpt>
      <trkpt lat="48.61416" lon="-2.48799">
        <ele>161.43157958984</ele>
        <time>2025-08-01T17:42:10.000+02:00</time>
      </trkpt>
      <trkpt lat="48.61413" lon="-2.48818">
        <ele>163.46820068359</ele>
        <time>2025-08-01T17:42:15.000+02:00</time>
      </trkpt>
      <trkpt lat="48.61413" lon="-2.48814">
        <ele>161.53698730469</ele>
        <time>2025-08-01T17:42:20.000+02:00</time>
      </trkpt>
      <trkpt lat="48.61413" lon="-2.48775">
        <ele>161.86456298828</ele>
        <time>2025-08-01T17:42:25.000+02:00</time>
      </trkpt>
      <trkpt lat="48.61414" lon="-2.48769">
        <ele>166.11236572266</ele>
        <time>2025-08-01T17:42:30.000+02:00</time>
      </trkpt>
      <trkpt lat="48.61416" lon="-2.48783">
        <ele>160.27630615234</ele>
        <time>2025-08-01T17:42:35.000+02:00</time>
      </trkpt>
      <trkpt lat="48.61414" lon="-2.48768">
        <ele>162.74743652344</ele>
        <time>2025-08-01T17:42:40.000+02:00</time>
      </trkpt>
      <trkpt lat="48.61415" lon="-2.48736">
        <ele>163.61511230469</ele>
        <time>2025-08-01T17:42:45.000+02:00</time>
      </trkpt>
      <trkpt lat="48.61417" lon="-2.48746">
        <ele>162.73791503906</ele>
        <time>2025-08-01T17:42:50.000+02:00</time>
      </trkpt>
      <trkpt lat="48.61425" lon="-2.48735">
        <ele>171.86083984375</ele>
        <time>2025-08-01T17:42:56.000+02:00</time>
      </trkpt>
      <trkpt lat="48.61422" lon="-2.48642">
        <ele>171.98895263672</ele>
        <time>2025-08-01T17:43:05.000+02:00</time>
      </trkpt>
      <trkpt lat="48.61418" lon="-2.48591">
        <ele>171.66149902344</ele>
        <time>2025-08-01T17:43:10.000+02:00</time>
      </trkpt>
      <trkpt lat="48.61426" lon="-2.48557">
        <ele>171.6953125</ele>
        <time>2025-08-01T17:43:15.000+02:00</time>
      </trkpt>
      <trkpt lat="48.61431" lon="-2.48566">
        <ele>168.76403808594</ele>
        <time>2025-08-01T17:43:20.000+02:00</time>
      </trkpt>
      <trkpt lat="48.61437" lon="-2.48594">
        <ele>168.61450195312</ele>
        <time>2025-08-01T17:43:25.000+02:00</time>
      </trkpt>
      <trkpt lat="48.61441" lon="-2.48611">
        <ele>168.90710449219</ele>
        <time>2025-08-01T17:43:30.000+02:00</time>
      </trkpt>
      <trkpt lat="48.61443" lon="-2.48638">
        <ele>165.23876953125</ele>
        <time>2025-08-01T17:43:35.000+02:00</time>
      </trkpt>
      <trkpt lat="48.61447" lon="-2.48665">
        <ele>164.259765625</ele>
        <time>2025-08-01T17:43:40.000+02:00</time>
      </trkpt>
      <trkpt lat="48.61453" lon="-2.48694">
        <ele>164.38928222656</ele>
        <time>2025-08-01T17:43:45.000+02:00</time>
      </trkpt>
      <trkpt lat="48.61454" lon="-2.48718">
        <ele>168.94549560547</ele>
        <time>2025-08-01T17:43:50.000+02:00</time>
      </trkpt>
      <trkpt lat="48.61451" lon="-2.48676">
        <ele>171.00250244141</ele>
        <time>2025-08-01T17:43:55.000+02:00</time>
      </trkpt>
      <trkpt lat="48.61454" lon="-2.48663">
        <ele>173.28063964844</ele>
        <time>2025-08-01T17:44:00.000+02:00</time>
      </trkpt>
      <trkpt lat="48.61449" lon="-2.487">
        <ele>172.97308349609</ele>
        <time>2025-08-01T17:44:05.000+02:00</time>
      </trkpt>
      <trkpt lat="48.61446" lon="-2.4871">
        <ele>166.11181640625</ele>
        <time>2025-08-01T17:44:10.000+02:00</time>
      </trkpt>
      <trkpt lat="48.61444" lon="-2.4866">
        <ele>166.92303466797</ele>
        <time>2025-08-01T17:44:15.000+02:00</time>
      </trkpt>
      <trkpt lat="48.61447" lon="-2.48646">
        <ele>167.91955566406</ele>
        <time>2025-08-01T17:44:20.000+02:00</time>
      </trkpt>
      <trkpt lat="48.61434" lon="-2.48679">
        <ele>168.33215332031</ele>
        <time>2025-08-01T17:44:25.000+02:00</time>
      </trkpt>
      <trkpt lat="48.61433" lon="-2.48703">
        <ele>179.47912597656</ele>
        <time>2025-08-01T17:44:30.000+02:00</time>
      </trkpt>
      <trkpt lat="48.61427" lon="-2.48657">
        <ele>181.85705566406</ele>
        <time>2025-08-01T17:44:35.000+02:00</time>
      </trkpt>
      <trkpt lat="48.61443" lon="-2.48631">
        <ele>186.72692871094</ele>
        <time>2025-08-01T17:44:40.000+02:00</time>
      </trkpt>
      <trkpt lat="48.61446" lon="-2.48652">
        <ele>189.23779296875</ele>
        <time>2025-08-01T17:44:45.000+02:00</time>
      </trkpt>
      <trkpt lat="48.61441" lon="-2.4867">
        <ele>187.99432373047</ele>
        <time>2025-08-01T17:44:50.000+02:00</time>
      </trkpt>
      <trkpt lat="48.61447" lon="-2.48652">
        <ele>185.04418945312</ele>
        <time>2025-08-01T17:44:55.000+02:00</time>
      </trkpt>
      <trkpt lat="48.61461" lon="-2.48638">
        <ele>181.38818359375</ele>
        <time>2025-08-01T17:45:00.000+02:00</time>
      </trkpt>
      <trkpt lat="48.61458" lon="-2.48641">
        <ele>182.59368896484</ele>
        <time>2025-08-01T17:45:05.000+02:00</time>
      </trkpt>
      <trkpt lat="48.6146" lon="-2.48675">
        <ele>180.44958496094</ele>
        <time>2025-08-01T17:45:10.000+02:00</time>
      </trkpt>
      <trkpt lat="48.61465" lon="-2.48673">
        <ele>177.36889648438</ele>
        <time>2025-08-01T17:45:15.000+02:00</time>
      </trkpt>
      <trkpt lat="48.6147" lon="-2.48672">
        <ele>178.47961425781</ele>
        <time>2025-08-01T17:45:20.000+02:00</time>
      </trkpt>
      <trkpt lat="48.61473" lon="-2.48699">
        <ele>178.509765625</ele>
        <time>2025-08-01T17:45:25.000+02:00</time>
      </trkpt>
      <trkpt lat="48.61471" lon="-2.48729">
        <ele>179.45129394531</ele>
        <time>2025-08-01T17:45:30.000+02:00</time>
      </trkpt>
      <trkpt lat="48.61471" lon="-2.48757">
        <ele>177.50427246094</ele>
        <time>2025-08-01T17:45:35.000+02:00</time>
      </trkpt>
      <trkpt lat="48.61468" lon="-2.488">
        <ele>172.76965332031</ele>
        <time>2025-08-01T17:45:40.000+02:00</time>
      </trkpt>
      <trkpt lat="48.61467" lon="-2.48839">
        <ele>175.96929931641</ele>
        <time>2025-08-01T17:45:45.000+02:00</time>
      </trkpt>
      <trkpt lat="48.61459" lon="-2.48887">
        <ele>176.38806152344</ele>
        <time>2025-08-01T17:45:50.000+02:00</time>
      </trkpt>
      <trkpt lat="48.61455" lon="-2.48913">
        <ele>178.81591796875</ele>
        <time>2025-08-01T17:45:55.000+02:00</time>
      </trkpt>
      <trkpt lat="48.61466" lon="-2.4892">
        <ele>184.20324707031</ele>
        <time>2025-08-01T17:46:01.000+02:00</time>
      </trkpt>
      <trkpt lat="48.61456" lon="-2.48957">
        <ele>184.50079345703</ele>
        <time>2025-08-01T17:46:10.000+02:00</time>
      </trkpt>
      <trkpt lat="48.61457" lon="-2.48937">
        <ele>175.27014160156</ele>
        <time>2025-08-01T17:46:15.000+02:00</time>
      </trkpt>
      <trkpt lat="48.61467" lon="-2.48942">
        <ele>156.15875244141</ele>
        <time>2025-08-01T17:46:20.000+02:00</time>
      </trkpt>
      <trkpt lat="48.61457" lon="-2.4897">
        <ele>165.08740234375</ele>
        <time>2025-08-01T17:46:25.000+02:00</time>
      </trkpt>
      <trkpt lat="48.61447" lon="-2.49009">
        <ele>162.392578125</ele>
        <time>2025-08-01T17:46:30.000+02:00</time>
      </trkpt>
      <trkpt lat="48.61452" lon="-2.48991">
        <ele>165.53894042969</ele>
        <time>2025-08-01T17:46:35.000+02:00</time>
      </trkpt>
      <trkpt lat="48.61408" lon="-2.48962">
        <ele>166.78594970703</ele>
        <time>2025-08-01T17:46:40.000+02:00</time>
      </trkpt>
      <trkpt lat="48.61388" lon="-2.48991">
        <ele>165.40252685547</ele>
        <time>2025-08-01T17:46:45.000+02:00</time>
      </trkpt>
      <trkpt lat="48.6138" lon="-2.4901">
        <ele>155.33483886719</ele>
        <time>2025-08-01T17:46:50.000+02:00</time>
      </trkpt>
      <trkpt lat="48.61388" lon="-2.48977">
        <ele>152.47790527344</ele>
        <time>2025-08-01T17:46:55.000+02:00</time>
      </trkpt>
      <trkpt lat="48.61403" lon="-2.48921">
        <ele>158.27105712891</ele>
        <time>2025-08-01T17:47:00.000+02:00</time>
      </trkpt>
      <trkpt lat="48.6141" lon="-2.48868">
        <ele>159.32409667969</ele>
        <time>2025-08-01T17:47:05.000+02:00</time>
      </trkpt>
      <trkpt lat="48.61418" lon="-2.48828">
        <ele>156.68371582031</ele>
        <time>2025-08-01T17:47:10.000+02:00</time>
      </trkpt>
      <trkpt lat="48.61429" lon="-2.48828">
        <ele>155.4541015625</ele>
        <time>2025-08-01T17:47:15.000+02:00</time>
      </trkpt>
      <trkpt lat="48.61435" lon="-2.48844">
        <ele>159.35760498047</ele>
        <time>2025-08-01T17:47:20.000+02:00</time>
      </trkpt>
      <trkpt lat="48.61439" lon="-2.48829">
        <ele>162.01611328125</ele>
        <time>2025-08-01T17:47:25.000+02:00</time>
      </trkpt>
      <trkpt lat="48.61437" lon="-2.48776">
        <ele>155.99822998047</ele>
        <time>2025-08-01T17:47:30.000+02:00</time>
      </trkpt>
      <trkpt lat="48.61444" lon="-2.48737">
        <ele>161.83245849609</ele>
        <time>2025-08-01T17:47:35.000+02:00</time>
      </trkpt>
      <trkpt lat="48.61455" lon="-2.48728">
        <ele>157.95642089844</ele>
        <time>2025-08-01T17:47:40.000+02:00</time>
      </trkpt>
      <trkpt lat="48.61464" lon="-2.48736">
        <ele>151.81823730469</ele>
        <time>2025-08-01T17:47:45.000+02:00</time>
      </trkpt>
      <trkpt lat="48.61468" lon="-2.48775">
        <ele>152.95166015625</ele>
        <time>2025-08-01T17:47:50.000+02:00</time>
      </trkpt>
      <trkpt lat="48.61471" lon="-2.48798">
        <ele>155.2919921875</ele>
        <time>2025-08-01T17:47:55.000+02:00</time>
      </trkpt>
      <trkpt lat="48.61476" lon="-2.48768">
        <ele>153.82366943359</ele>
        <time>2025-08-01T17:48:00.000+02:00</time>
      </trkpt>
      <trkpt lat="48.61461" lon="-2.487">
        <ele>149.91650390625</ele>
        <time>2025-08-01T17:48:05.000+02:00</time>
      </trkpt>
      <trkpt lat="48.61462" lon="-2.4866">
        <ele>163.35931396484</ele>
        <time>2025-08-01T17:48:10.000+02:00</time>
      </trkpt>
      <trkpt lat="48.61465" lon="-2.48671">
        <ele>161.22717285156</ele>
        <time>2025-08-01T17:48:15.000+02:00</time>
      </trkpt>
      <trkpt lat="48.61459" lon="-2.48707">
        <ele>150.03875732422</ele>
        <time>2025-08-01T17:48:20.000+02:00</time>
      </trkpt>
      <trkpt lat="48.61459" lon="-2.4874">
        <ele>151.63977050781</ele>
        <time>2025-08-01T17:48:25.000+02:00</time>
      </trkpt>
      <trkpt lat="48.61453" lon="-2.48778">
        <ele>150.93029785156</ele>
        <time>2025-08-01T17:48:30.000+02:00</time>
      </trkpt>
      <trkpt lat="48.61447" lon="-2.48813">
        <ele>155.71423339844</ele>
        <time>2025-08-01T17:48:35.000+02:00</time>
      </trkpt>
      <trkpt lat="48.61432" lon="-2.48851">
        <ele>150.96667480469</ele>
        <time>2025-08-01T17:48:40.000+02:00</time>
      </trkpt>
      <trkpt lat="48.61422" lon="-2.48894">
        <ele>150.7587890625</ele>
        <time>2025-08-01T17:48:45.000+02:00</time>
      </trkpt>
      <trkpt lat="48.61402" lon="-2.48938">
        <ele>155.74401855469</ele>
        <time>2025-08-01T17:48:50.000+02:00</time>
      </trkpt>
      <trkpt lat="48.61412" lon="-2.48952">
        <ele>148.25402832031</ele>
        <time>2025-08-01T17:48:55.000+02:00</time>
      </trkpt>
      <trkpt lat="48.61413" lon="-2.48911">
        <ele>141.29400634766</ele>
        <time>2025-08-01T17:49:00.000+02:00</time>
      </trkpt>
      <trkpt lat="48.61417" lon="-2.48871">
        <ele>143.76098632812</ele>
        <time>2025-08-01T17:49:05.000+02:00</time>
      </trkpt>
      <trkpt lat="48.61423" lon="-2.48837">
        <ele>139.90277099609</ele>
        <time>2025-08-01T17:49:10.000+02:00</time>
      </trkpt>
      <trkpt lat="48.61427" lon="-2.48797">
        <ele>140.93865966797</ele>
        <time>2025-08-01T17:49:15.000+02:00</time>
      </trkpt>
      <trkpt lat="48.61432" lon="-2.48754">
        <ele>144.94793701172</ele>
        <time>2025-08-01T17:49:20.000+02:00</time>
      </trkpt>
      <trkpt lat="48.61432" lon="-2.48712">
        <ele>146.07904052734</ele>
        <time>2025-08-01T17:49:25.000+02:00</time>
      </trkpt>
      <trkpt lat="48.61436" lon="-2.4867">
        <ele>145.34259033203</ele>
        <time>2025-08-01T17:49:30.000+02:00</time>
      </trkpt>
      <trkpt lat="48.61444" lon="-2.48665">
        <ele>151.32775878906</ele>
        <time>2025-08-01T17:49:35.000+02:00</time>
      </trkpt>
      <trkpt lat="48.61448" lon="-2.48689">
        <ele>155.22814941406</ele>
        <time>2025-08-01T17:49:40.000+02:00</time>
      </trkpt>
      <trkpt lat="48.61459" lon="-2.48678">
        <ele>158.19458007812</ele>
        <time>2025-08-01T17:49:45.000+02:00</time>
      </trkpt>
      <trkpt lat="48.61454" lon="-2.48621">
        <ele>156.59234619141</ele>
        <time>2025-08-01T17:49:50.000+02:00</time>
      </trkpt>
      <trkpt lat="48.6145" lon="-2.48574">
        <ele>158.53411865234</ele>
        <time>2025-08-01T17:49:55.000+02:00</time>
      </trkpt>
      <trkpt lat="48.61458" lon="-2.48553">
        <ele>154.45239257812</ele>
        <time>2025-08-01T17:50:00.000+02:00</time>
      </trkpt>
      <trkpt lat="48.61465" lon="-2.48575">
        <ele>160.25927734375</ele>
        <time>2025-08-01T17:50:05.000+02:00</time>
      </trkpt>
      <trkpt lat="48.61463" lon="-2.48609">
        <ele>164.05114746094</ele>
        <time>2025-08-01T17:50:10.000+02:00</time>
      </trkpt>
      <trkpt lat="48.61462" lon="-2.4864">
        <ele>167.08758544922</ele>
        <time>2025-08-01T17:50:15.000+02:00</time>
      </trkpt>
      <trkpt lat="48.61453" lon="-2.48677">
        <ele>168.18341064453</ele>
        <time>2025-08-01T17:50:20.000+02:00</time>
      </trkpt>
      <trkpt lat="48.61445" lon="-2.48715">
        <ele>162.70642089844</ele>
        <time>2025-08-01T17:50:25.000+02:00</time>
      </trkpt>
      <trkpt lat="48.61436" lon="-2.48754">
        <ele>154.98950195312</ele>
        <time>2025-08-01T17:50:30.000+02:00</time>
      </trkpt>
      <trkpt lat="48.61438" lon="-2.48789">
        <ele>156.64727783203</ele>
        <time>2025-08-01T17:50:35.000+02:00</time>
      </trkpt>
      <trkpt lat="48.61445" lon="-2.48766">
        <ele>157.47796630859</ele>
        <time>2025-08-01T17:50:40.000+02:00</time>
      </trkpt>
      <trkpt lat="48.61447" lon="-2.48728">
        <ele>164.89221191406</ele>
        <time>2025-08-01T17:50:45.000+02:00</time>
      </trkpt>
      <trkpt lat="48.61453" lon="-2.48731">
        <ele>170.63812255859</ele>
        <time>2025-08-01T17:50:50.000+02:00</time>
      </trkpt>
      <trkpt lat="48.61456" lon="-2.48741">
        <ele>166.17010498047</ele>
        <time>2025-08-01T17:50:55.000+02:00</time>
      </trkpt>
      <trkpt lat="48.61457" lon="-2.4871">
        <ele>159.25604248047</ele>
        <time>2025-08-01T17:51:01.000+02:00</time>
      </trkpt>
      <trkpt lat="48.61461" lon="-2.48728">
        <ele>158.02484130859</ele>
        <time>2025-08-01T17:51:10.000+02:00</time>
      </trkpt>
      <trkpt lat="48.61458" lon="-2.48758">
        <ele>158.49908447266</ele>
        <time>2025-08-01T17:51:15.000+02:00</time>
      </trkpt>
      <trkpt lat="48.61455" lon="-2.48797">
        <ele>155.71643066406</ele>
        <time>2025-08-01T17:51:20.000+02:00</time>
      </trkpt>
      <trkpt lat="48.61453" lon="-2.48831">
        <ele>156.81921386719</ele>
        <time>2025-08-01T17:51:25.000+02:00</time>
      </trkpt>
      <trkpt lat="48.61456" lon="-2.48863">
        <ele>158.61743164062</ele>
        <time>2025-08-01T17:51:30.000+02:00</time>
      </trkpt>
      <trkpt lat="48.6146" lon="-2.48892">
        <ele>160.04870605469</ele>
        <time>2025-08-01T17:51:35.000+02:00</time>
      </trkpt>
      <trkpt lat="48.61455" lon="-2.48932">
        <ele>159.13616943359</ele>
        <time>2025-08-01T17:51:40.000+02:00</time>
      </trkpt>
      <trkpt lat="48.61444" lon="-2.4897">
        <ele>157.28930664062</ele>
        <time>2025-08-01T17:51:45.000+02:00</time>
      </trkpt>
      <trkpt lat="48.61453" lon="-2.48962">
        <ele>154.33715820312</ele>
        <time>2025-08-01T17:51:50.000+02:00</time>
      </trkpt>
      <trkpt lat="48.61447" lon="-2.48906">
        <ele>146.62512207031</ele>
        <time>2025-08-01T17:51:55.000+02:00</time>
      </trkpt>
      <trkpt lat="48.61442" lon="-2.48844">
        <ele>143.47485351562</ele>
        <time>2025-08-01T17:52:00.000+02:00</time>
      </trkpt>
      <trkpt lat="48.61436" lon="-2.48789">
        <ele>143.90881347656</ele>
        <time>2025-08-01T17:52:05.000+02:00</time>
      </trkpt>
      <trkpt lat="48.61439" lon="-2.48727">
        <ele>146.40881347656</ele>
        <time>2025-08-01T17:52:10.000+02:00</time>
      </trkpt>
      <trkpt lat="48.61438" lon="-2.48703">
        <ele>148.85180664062</ele>
        <time>2025-08-01T17:52:17.720+02:00</time>
      </trkpt>
      <trkpt lat="48.61438" lon="-2.48703">
        <ele>148.85180664062</ele>
        <time>2025-08-01T17:52:22.726+02:00</time>
      </trkpt>
      <trkpt lat="48.61438" lon="-2.48703">
        <ele>148.85180664062</ele>
        <time>2025-08-01T17:52:27.734+02:00</time>
      </trkpt>
      <trkpt lat="48.61438" lon="-2.48703">
        <ele>148.85180664062</ele>
        <time>2025-08-01T17:52:32.740+02:00</time>
      </trkpt>
      <trkpt lat="48.61438" lon="-2.48703">
        <ele>148.85180664062</ele>
        <time>2025-08-01T17:52:37.752+02:00</time>
      </trkpt>
      <trkpt lat="48.61438" lon="-2.48703">
        <ele>148.85180664062</ele>
        <time>2025-08-01T17:52:42.758+02:00</time>
      </trkpt>
      <trkpt lat="48.61438" lon="-2.48703">
        <ele>148.85180664062</ele>
        <time>2025-08-01T17:52:47.765+02:00</time>
      </trkpt>
      <trkpt lat="48.61438" lon="-2.48703">
        <ele>148.85180664062</ele>
        <time>2025-08-01T17:52:52.772+02:00</time>
      </trkpt>
      <trkpt lat="48.61438" lon="-2.48703">
        <ele>148.85180664062</ele>
        <time>2025-08-01T17:52:57.779+02:00</time>
      </trkpt>
      <trkpt lat="48.61438" lon="-2.48703">
        <ele>148.85180664062</ele>
        <time>2025-08-01T17:53:02.786+02:00</time>
      </trkpt>
      <trkpt lat="48.61438" lon="-2.48703">
        <ele>148.85180664062</ele>
        <time>2025-08-01T17:53:07.796+02:00</time>
      </trkpt>
      <trkpt lat="48.61438" lon="-2.48703">
        <ele>148.85180664062</ele>
        <time>2025-08-01T17:53:12.802+02:00</time>
      </trkpt>
      <trkpt lat="48.61438" lon="-2.48703">
        <ele>148.85180664062</ele>
        <time>2025-08-01T17:53:17.808+02:00</time>
      </trkpt>
      <trkpt lat="48.61438" lon="-2.48703">
        <ele>148.85180664062</ele>
        <time>2025-08-01T17:53:22.821+02:00</time>
      </trkpt>
      <trkpt lat="48.61438" lon="-2.48703">
        <ele>148.85180664062</ele>
        <time>2025-08-01T17:53:27.826+02:00</time>
      </trkpt>
      <trkpt lat="48.61438" lon="-2.48703">
        <ele>148.85180664062</ele>
        <time>2025-08-01T17:53:32.837+02:00</time>
      </trkpt>
      <trkpt lat="48.61438" lon="-2.48703">
        <ele>148.85180664062</ele>
        <time>2025-08-01T17:53:37.845+02:00</time>
      </trkpt>
      <trkpt lat="48.61438" lon="-2.48703">
        <ele>148.85180664062</ele>
        <time>2025-08-01T17:53:42.857+02:00</time>
      </trkpt>
      <trkpt lat="48.61438" lon="-2.48703">
        <ele>148.85180664062</ele>
        <time>2025-08-01T17:53:47.868+02:00</time>
      </trkpt>
      <trkpt lat="48.61438" lon="-2.48703">
        <ele>148.85180664062</ele>
        <time>2025-08-01T17:53:52.880+02:00</time>
      </trkpt>
      <trkpt lat="48.61438" lon="-2.48703">
        <ele>148.85180664062</ele>
        <time>2025-08-01T17:53:57.892+02:00</time>
      </trkpt>
      <trkpt lat="48.61438" lon="-2.48703">
        <ele>148.85180664062</ele>
        <time>2025-08-01T17:54:02.899+02:00</time>
      </trkpt>
      <trkpt lat="48.61438" lon="-2.48703">
        <ele>148.85180664062</ele>
        <time>2025-08-01T17:54:07.909+02:00</time>
      </trkpt>
      <trkpt lat="48.61438" lon="-2.48703">
        <ele>148.85180664062</ele>
        <time>2025-08-01T17:54:12.921+02:00</time>
      </trkpt>
      <trkpt lat="48.61438" lon="-2.48703">
        <ele>148.85180664062</ele>
        <time>2025-08-01T17:54:17.929+02:00</time>
      </trkpt>
      <trkpt lat="48.61438" lon="-2.48703">
        <ele>148.85180664062</ele>
        <time>2025-08-01T17:54:22.940+02:00</time>
      </trkpt>
      <trkpt lat="48.61438" lon="-2.48703">
        <ele>148.85180664062</ele>
        <time>2025-08-01T17:54:27.951+02:00</time>
      </trkpt>
      <trkpt lat="48.61438" lon="-2.48703">
        <ele>148.85180664062</ele>
        <time>2025-08-01T17:54:32.963+02:00</time>
      </trkpt>
      <trkpt lat="48.61438" lon="-2.48703">
        <ele>148.85180664062</ele>
        <time>2025-08-01T17:54:37.970+02:00</time>
      </trkpt>
      <trkpt lat="48.61438" lon="-2.48703">
        <ele>148.85180664062</ele>
        <time>2025-08-01T17:54:42.982+02:00</time>
      </trkpt>
      <trkpt lat="48.61438" lon="-2.48703">
        <ele>148.85180664062</ele>
        <time>2025-08-01T17:54:47.990+02:00</time>
      </trkpt>
      <trkpt lat="48.61438" lon="-2.48703">
        <ele>148.85180664062</ele>
        <time>2025-08-01T17:54:52.997+02:00</time>
      </trkpt>
      <trkpt lat="48.61438" lon="-2.48703">
        <ele>148.85180664062</ele>
        <time>2025-08-01T17:54:58.004+02:00</time>
      </trkpt>
      <trkpt lat="48.61438" lon="-2.48703">
        <ele>148.85180664062</ele>
        <time>2025-08-01T17:55:03.010+02:00</time>
      </trkpt>
      <trkpt lat="48.61438" lon="-2.48703">
        <ele>148.85180664062</ele>
        <time>2025-08-01T17:55:08.017+02:00</time>
      </trkpt>
      <trkpt lat="48.61438" lon="-2.48703">
        <ele>148.85180664062</ele>
        <time>2025-08-01T17:55:13.029+02:00</time>
      </trkpt>
      <trkpt lat="48.61438" lon="-2.48703">
        <ele>148.85180664062</ele>
        <time>2025-08-01T17:55:18.031+02:00</time>
      </trkpt>
      <trkpt lat="48.61438" lon="-2.48703">
        <ele>148.85180664062</ele>
        <time>2025-08-01T17:55:23.037+02:00</time>
      </trkpt>
      <trkpt lat="48.61438" lon="-2.48703">
        <ele>148.85180664062</ele>
        <time>2025-08-01T17:55:28.043+02:00</time>
      </trkpt>
      <trkpt lat="48.61438" lon="-2.48703">
        <ele>148.85180664062</ele>
        <time>2025-08-01T17:55:33.055+02:00</time>
      </trkpt>
      <trkpt lat="48.61438" lon="-2.48703">
        <ele>148.85180664062</ele>
        <time>2025-08-01T17:55:38.062+02:00</time>
      </trkpt>
      <trkpt lat="48.61438" lon="-2.48703">
        <ele>148.85180664062</ele>
        <time>2025-08-01T17:55:43.069+02:00</time>
      </trkpt>
      <trkpt lat="48.61438" lon="-2.48703">
        <ele>148.85180664062</ele>
        <time>2025-08-01T17:55:48.077+02:00</time>
      </trkpt>
      <trkpt lat="48.61438" lon="-2.48703">
        <ele>148.85180664062</ele>
        <time>2025-08-01T17:55:53.084+02:00</time>
      </trkpt>
      <trkpt lat="48.61438" lon="-2.48703">
        <ele>148.85180664062</ele>
        <time>2025-08-01T17:55:58.091+02:00</time>
      </trkpt>
      <trkpt lat="48.61438" lon="-2.48703">
        <ele>148.85180664062</ele>
        <time>2025-08-01T17:56:03.099+02:00</time>
      </trkpt>
      <trkpt lat="48.61438" lon="-2.48703">
        <ele>148.85180664062</ele>
        <time>2025-08-01T17:56:08.105+02:00</time>
      </trkpt>
      <trkpt lat="48.61438" lon="-2.48703">
        <ele>148.85180664062</ele>
        <time>2025-08-01T17:56:13.111+02:00</time>
      </trkpt>
      <trkpt lat="48.61438" lon="-2.48703">
        <ele>148.85180664062</ele>
        <time>2025-08-01T17:56:18.114+02:00</time>
      </trkpt>
      <trkpt lat="48.61438" lon="-2.48703">
        <ele>148.85180664062</ele>
        <time>2025-08-01T17:56:23.119+02:00</time>
      </trkpt>
      <trkpt lat="48.61438" lon="-2.48703">
        <ele>148.85180664062</ele>
        <time>2025-08-01T17:56:28.126+02:00</time>
      </trkpt>
      <trkpt lat="48.61438" lon="-2.48703">
        <ele>148.85180664062</ele>
        <time>2025-08-01T17:56:33.132+02:00</time>
      </trkpt>
      <trkpt lat="48.61438" lon="-2.48703">
        <ele>148.85180664062</ele>
        <time>2025-08-01T17:56:38.134+02:00</time>
      </trkpt>
      <trkpt lat="48.61438" lon="-2.48703">
        <ele>148.85180664062</ele>
        <time>2025-08-01T17:56:43.140+02:00</time>
      </trkpt>
      <trkpt lat="48.61438" lon="-2.48703">
        <ele>148.85180664062</ele>
        <time>2025-08-01T17:56:48.148+02:00</time>
      </trkpt>
      <trkpt lat="48.61438" lon="-2.48703">
        <ele>148.85180664062</ele>
        <time>2025-08-01T17:56:53.156+02:00</time>
      </trkpt>
      <trkpt lat="48.61438" lon="-2.48703">
        <ele>148.85180664062</ele>
        <time>2025-08-01T17:56:58.167+02:00</time>
      </trkpt>
      <trkpt lat="48.61438" lon="-2.48703">
        <ele>148.85180664062</ele>
        <time>2025-08-01T17:57:03.176+02:00</time>
      </trkpt>
      <trkpt lat="48.61438" lon="-2.48703">
        <ele>148.85180664062</ele>
        <time>2025-08-01T17:57:08.189+02:00</time>
      </trkpt>
      <trkpt lat="48.61438" lon="-2.48703">
        <ele>148.85180664062</ele>
        <time>2025-08-01T17:57:13.191+02:00</time>
      </trkpt>
      <trkpt lat="48.61438" lon="-2.48703">
        <ele>148.85180664062</ele>
        <time>2025-08-01T17:57:18.203+02:00</time>
      </trkpt>
      <trkpt lat="48.61438" lon="-2.48703">
        <ele>148.85180664062</ele>
        <time>2025-08-01T17:57:23.208+02:00</time>
      </trkpt>
      <trkpt lat="48.61438" lon="-2.48703">
        <ele>148.85180664062</ele>
        <time>2025-08-01T17:57:28.220+02:00</time>
      </trkpt>
      <trkpt lat="48.61438" lon="-2.48703">
        <ele>148.85180664062</ele>
        <time>2025-08-01T17:57:33.232+02:00</time>
      </trkpt>
      <trkpt lat="48.61438" lon="-2.48703">
        <ele>148.85180664062</ele>
        <time>2025-08-01T17:57:38.240+02:00</time>
      </trkpt>
      <trkpt lat="48.61438" lon="-2.48703">
        <ele>148.85180664062</ele>
        <time>2025-08-01T17:57:43.252+02:00</time>
      </trkpt>
      <trkpt lat="48.61438" lon="-2.48703">
        <ele>148.85180664062</ele>
        <time>2025-08-01T17:57:48.258+02:00</time>
      </trkpt>
      <trkpt lat="48.61438" lon="-2.48703">
        <ele>148.85180664062</ele>
        <time>2025-08-01T17:57:53.265+02:00</time>
      </trkpt>
      <trkpt lat="48.61438" lon="-2.48703">
        <ele>148.85180664062</ele>
        <time>2025-08-01T17:57:58.272+02:00</time>
      </trkpt>
      <trkpt lat="48.61438" lon="-2.48703">
        <ele>148.85180664062</ele>
        <time>2025-08-01T17:58:03.276+02:00</time>
      </trkpt>
      <trkpt lat="48.61438" lon="-2.48703">
        <ele>148.85180664062</ele>
        <time>2025-08-01T17:58:08.287+02:00</time>
      </trkpt>
      <trkpt lat="48.61438" lon="-2.48703">
        <ele>148.85180664062</ele>
        <time>2025-08-01T17:58:13.293+02:00</time>
      </trkpt>
      <trkpt lat="48.61438" lon="-2.48703">
        <ele>148.85180664062</ele>
        <time>2025-08-01T17:58:18.295+02:00</time>
      </trkpt>
      <trkpt lat="48.61438" lon="-2.48703">
        <ele>148.85180664062</ele>
        <time>2025-08-01T17:58:23.299+02:00</time>
      </trkpt>
      <trkpt lat="48.61438" lon="-2.48703">
        <ele>148.85180664062</ele>
        <time>2025-08-01T17:58:28.302+02:00</time>
      </trkpt>
      <trkpt lat="48.61438" lon="-2.48703">
        <ele>148.85180664062</ele>
        <time>2025-08-01T17:58:33.307+02:00</time>
      </trkpt>
      <trkpt lat="48.61438" lon="-2.48703">
        <ele>148.85180664062</ele>
        <time>2025-08-01T17:58:38.314+02:00</time>
      </trkpt>
      <trkpt lat="48.61438" lon="-2.48703">
        <ele>148.85180664062</ele>
        <time>2025-08-01T17:58:43.320+02:00</time>
      </trkpt>
      <trkpt lat="48.61438" lon="-2.48703">
        <ele>148.85180664062</ele>
        <time>2025-08-01T17:58:48.328+02:00</time>
      </trkpt>
      <trkpt lat="48.61438" lon="-2.48703">
        <ele>148.85180664062</ele>
        <time>2025-08-01T17:58:53.334+02:00</time>
      </trkpt>
      <trkpt lat="48.61438" lon="-2.48703">
        <ele>148.85180664062</ele>
        <time>2025-08-01T17:58:58.339+02:00</time>
      </trkpt>
      <trkpt lat="48.61438" lon="-2.48703">
        <ele>148.85180664062</ele>
        <time>2025-08-01T17:59:03.346+02:00</time>
      </trkpt>
      <trkpt lat="48.61438" lon="-2.48703">
        <ele>148.85180664062</ele>
        <time>2025-08-01T17:59:08.353+02:00</time>
      </trkpt>
      <trkpt lat="48.61438" lon="-2.48703">
        <ele>148.85180664062</ele>
        <time>2025-08-01T17:59:13.364+02:00</time>
      </trkpt>
      <trkpt lat="48.61438" lon="-2.48703">
        <ele>148.85180664062</ele>
        <time>2025-08-01T17:59:18.370+02:00</time>
      </trkpt>
      <trkpt lat="48.61438" lon="-2.48703">
        <ele>148.85180664062</ele>
        <time>2025-08-01T17:59:23.381+02:00</time>
      </trkpt>
      <trkpt lat="48.61438" lon="-2.48703">
        <ele>148.85180664062</ele>
        <time>2025-08-01T17:59:28.393+02:00</time>
      </trkpt>
      <trkpt lat="48.61438" lon="-2.48703">
        <ele>148.85180664062</ele>
        <time>2025-08-01T17:59:33.405+02:00</time>
      </trkpt>
      <trkpt lat="48.61438" lon="-2.48703">
        <ele>148.85180664062</ele>
        <time>2025-08-01T17:59:38.412+02:00</time>
      </trkpt>
      <trkpt lat="48.61438" lon="-2.48703">
        <ele>148.85180664062</ele>
        <time>2025-08-01T17:59:43.420+02:00</time>
      </trkpt>
      <trkpt lat="48.61438" lon="-2.48703">
        <ele>148.85180664062</ele>
        <time>2025-08-01T17:59:48.426+02:00</time>
      </trkpt>
      <trkpt lat="48.61438" lon="-2.48703">
        <ele>148.85180664062</ele>
        <time>2025-08-01T17:59:53.433+02:00</time>
      </trkpt>
      <trkpt lat="48.61438" lon="-2.48703">
        <ele>148.85180664062</ele>
        <time>2025-08-01T17:59:58.445+02:00</time>
      </trkpt>
      <trkpt lat="48.61438" lon="-2.48703">
        <ele>148.85180664062</ele>
        <time>2025-08-01T18:00:03.452+02:00</time>
      </trkpt>
      <trkpt lat="48.61438" lon="-2.48703">
        <ele>148.85180664062</ele>
        <time>2025-08-01T18:00:08.464+02:00</time>
      </trkpt>
      <trkpt lat="48.61438" lon="-2.48703">
        <ele>148.85180664062</ele>
        <time>2025-08-01T18:00:13.473+02:00</time>
      </trkpt>
      <trkpt lat="48.61438" lon="-2.48703">
        <ele>148.85180664062</ele>
        <time>2025-08-01T18:00:18.484+02:00</time>
      </trkpt>
      <trkpt lat="48.61438" lon="-2.48703">
        <ele>148.85180664062</ele>
        <time>2025-08-01T18:00:23.492+02:00</time>
      </trkpt>
      <trkpt lat="48.61438" lon="-2.48703">
        <ele>148.85180664062</ele>
        <time>2025-08-01T18:00:28.499+02:00</time>
      </trkpt>
      <trkpt lat="48.61438" lon="-2.48703">
        <ele>148.85180664062</ele>
        <time>2025-08-01T18:00:33.511+02:00</time>
      </trkpt>
      <trkpt lat="48.61438" lon="-2.48703">
        <ele>148.85180664062</ele>
        <time>2025-08-01T18:00:38.519+02:00</time>
      </trkpt>
      <trkpt lat="48.61438" lon="-2.48703">
        <ele>148.85180664062</ele>
        <time>2025-08-01T18:00:43.525+02:00</time>
      </trkpt>
      <trkpt lat="48.61438" lon="-2.48703">
        <ele>148.85180664062</ele>
        <time>2025-08-01T18:00:48.532+02:00</time>
      </trkpt>
      <trkpt lat="48.61438" lon="-2.48703">
        <ele>148.85180664062</ele>
        <time>2025-08-01T18:00:53.533+02:00</time>
      </trkpt>
      <trkpt lat="48.61438" lon="-2.48703">
        <ele>148.85180664062</ele>
        <time>2025-08-01T18:00:58.539+02:00</time>
      </trkpt>
      <trkpt lat="48.61438" lon="-2.48703">
        <ele>148.85180664062</ele>
        <time>2025-08-01T18:01:03.539+02:00</time>
      </trkpt>
      <trkpt lat="48.61438" lon="-2.48703">
        <ele>148.85180664062</ele>
        <time>2025-08-01T18:01:08.541+02:00</time>
      </trkpt>
      <trkpt lat="48.61438" lon="-2.48703">
        <ele>148.85180664062</ele>
        <time>2025-08-01T18:01:13.546+02:00</time>
      </trkpt>
      <trkpt lat="48.61438" lon="-2.48703">
        <ele>148.85180664062</ele>
        <time>2025-08-01T18:01:18.552+02:00</time>
      </trkpt>
      <trkpt lat="48.61438" lon="-2.48703">
        <ele>148.85180664062</ele>
        <time>2025-08-01T18:01:23.560+02:00</time>
      </trkpt>
      <trkpt lat="48.61438" lon="-2.48703">
        <ele>148.85180664062</ele>
        <time>2025-08-01T18:01:28.567+02:00</time>
      </trkpt>
      <trkpt lat="48.61438" lon="-2.48703">
        <ele>148.85180664062</ele>
        <time>2025-08-01T18:01:33.572+02:00</time>
      </trkpt>
      <trkpt lat="48.61438" lon="-2.48703">
        <ele>148.85180664062</ele>
        <time>2025-08-01T18:01:38.585+02:00</time>
      </trkpt>
      <trkpt lat="48.61438" lon="-2.48703">
        <ele>148.85180664062</ele>
        <time>2025-08-01T18:01:43.592+02:00</time>
      </trkpt>
      <trkpt lat="48.61438" lon="-2.48703">
        <ele>148.85180664062</ele>
        <time>2025-08-01T18:01:48.603+02:00</time>
      </trkpt>
      <trkpt lat="48.61438" lon="-2.48703">
        <ele>148.85180664062</ele>
        <time>2025-08-01T18:01:53.610+02:00</time>
      </trkpt>
      <trkpt lat="48.61438" lon="-2.48703">
        <ele>148.85180664062</ele>
        <time>2025-08-01T18:01:58.615+02:00</time>
      </trkpt>
      <trkpt lat="48.61438" lon="-2.48703">
        <ele>148.85180664062</ele>
        <time>2025-08-01T18:02:03.627+02:00</time>
      </trkpt>
      <trkpt lat="48.61438" lon="-2.48703">
        <ele>148.85180664062</ele>
        <time>2025-08-01T18:02:08.638+02:00</time>
      </trkpt>
      <trkpt lat="48.61438" lon="-2.48703">
        <ele>148.85180664062</ele>
        <time>2025-08-01T18:02:13.646+02:00</time>
      </trkpt>
      <trkpt lat="48.61438" lon="-2.48703">
        <ele>148.85180664062</ele>
        <time>2025-08-01T18:02:18.656+02:00</time>
      </trkpt>
      <trkpt lat="48.61438" lon="-2.48703">
        <ele>148.85180664062</ele>
        <time>2025-08-01T18:02:23.668+02:00</time>
      </trkpt>
      <trkpt lat="48.61438" lon="-2.48703">
        <ele>148.85180664062</ele>
        <time>2025-08-01T18:02:28.676+02:00</time>
      </trkpt>
      <trkpt lat="48.61438" lon="-2.48703">
        <ele>148.85180664062</ele>
        <time>2025-08-01T18:02:33.682+02:00</time>
      </trkpt>
      <trkpt lat="48.61438" lon="-2.48703">
        <ele>148.85180664062</ele>
        <time>2025-08-01T18:02:38.689+02:00</time>
      </trkpt>
      <trkpt lat="48.61438" lon="-2.48703">
        <ele>148.85180664062</ele>
        <time>2025-08-01T18:02:43.696+02:00</time>
      </trkpt>
      <trkpt lat="48.61438" lon="-2.48703">
        <ele>148.85180664062</ele>
        <time>2025-08-01T18:02:48.708+02:00</time>
      </trkpt>
      <trkpt lat="48.61438" lon="-2.48703">
        <ele>148.85180664062</ele>
        <time>2025-08-01T18:02:53.717+02:00</time>
      </trkpt>
      <trkpt lat="48.61438" lon="-2.48703">
        <ele>148.85180664062</ele>
        <time>2025-08-01T18:02:58.724+02:00</time>
      </trkpt>
      <trkpt lat="48.61438" lon="-2.48703">
        <ele>148.85180664062</ele>
        <time>2025-08-01T18:03:03.729+02:00</time>
      </trkpt>
      <trkpt lat="48.61438" lon="-2.48703">
        <ele>148.85180664062</ele>
        <time>2025-08-01T18:03:08.740+02:00</time>
      </trkpt>
      <trkpt lat="48.61438" lon="-2.48703">
        <ele>148.85180664062</ele>
        <time>2025-08-01T18:03:13.748+02:00</time>
      </trkpt>
      <trkpt lat="48.61438" lon="-2.48703">
        <ele>148.85180664062</ele>
        <time>2025-08-01T18:03:18.756+02:00</time>
      </trkpt>
      <trkpt lat="48.61438" lon="-2.48703">
        <ele>148.85180664062</ele>
        <time>2025-08-01T18:03:23.764+02:00</time>
      </trkpt>
      <trkpt lat="48.61438" lon="-2.48703">
        <ele>148.85180664062</ele>
        <time>2025-08-01T18:03:28.771+02:00</time>
      </trkpt>
      <trkpt lat="48.61438" lon="-2.48703">
        <ele>148.85180664062</ele>
        <time>2025-08-01T18:03:33.777+02:00</time>
      </trkpt>
      <trkpt lat="48.61438" lon="-2.48703">
        <ele>148.85180664062</ele>
        <time>2025-08-01T18:03:38.783+02:00</time>
      </trkpt>
      <trkpt lat="48.61438" lon="-2.48703">
        <ele>148.85180664062</ele>
        <time>2025-08-01T18:03:43.791+02:00</time>
      </trkpt>
      <trkpt lat="48.61438" lon="-2.48703">
        <ele>148.85180664062</ele>
        <time>2025-08-01T18:03:48.801+02:00</time>
      </trkpt>
      <trkpt lat="48.61438" lon="-2.48703">
        <ele>148.85180664062</ele>
        <time>2025-08-01T18:03:53.810+02:00</time>
      </trkpt>
      <trkpt lat="48.61438" lon="-2.48703">
        <ele>148.85180664062</ele>
        <time>2025-08-01T18:03:58.820+02:00</time>
      </trkpt>
      <trkpt lat="48.61438" lon="-2.48703">
        <ele>148.85180664062</ele>
        <time>2025-08-01T18:04:03.828+02:00</time>
      </trkpt>
      <trkpt lat="48.61438" lon="-2.48703">
        <ele>148.85180664062</ele>
        <time>2025-08-01T18:04:08.832+02:00</time>
      </trkpt>
      <trkpt lat="48.61438" lon="-2.48703">
        <ele>148.85180664062</ele>
        <time>2025-08-01T18:04:13.844+02:00</time>
      </trkpt>
      <trkpt lat="48.61438" lon="-2.48703">
        <ele>148.85180664062</ele>
        <time>2025-08-01T18:04:18.851+02:00</time>
      </trkpt>
      <trkpt lat="48.61438" lon="-2.48703">
        <ele>148.85180664062</ele>
        <time>2025-08-01T18:04:23.863+02:00</time>
      </trkpt>
      <trkpt lat="48.61438" lon="-2.48703">
        <ele>148.85180664062</ele>
        <time>2025-08-01T18:04:28.875+02:00</time>
      </trkpt>
      <trkpt lat="48.61438" lon="-2.48703">
        <ele>148.85180664062</ele>
        <time>2025-08-01T18:04:33.881+02:00</time>
      </trkpt>
      <trkpt lat="48.61438" lon="-2.48703">
        <ele>148.85180664062</ele>
        <time>2025-08-01T18:04:38.886+02:00</time>
      </trkpt>
      <trkpt lat="48.61438" lon="-2.48703">
        <ele>148.85180664062</ele>
        <time>2025-08-01T18:04:43.898+02:00</time>
      </trkpt>
      <trkpt lat="48.61438" lon="-2.48703">
        <ele>148.85180664062</ele>
        <time>2025-08-01T18:04:48.905+02:00</time>
      </trkpt>
      <trkpt lat="48.61438" lon="-2.48703">
        <ele>148.85180664062</ele>
        <time>2025-08-01T18:04:53.911+02:00</time>
      </trkpt>
      <trkpt lat="48.61438" lon="-2.48703">
        <ele>148.85180664062</ele>
        <time>2025-08-01T18:04:58.918+02:00</time>
      </trkpt>
      <trkpt lat="48.61438" lon="-2.48703">
        <ele>148.85180664062</ele>
        <time>2025-08-01T18:05:03.929+02:00</time>
      </trkpt>
      <trkpt lat="48.61438" lon="-2.48703">
        <ele>148.85180664062</ele>
        <time>2025-08-01T18:05:08.939+02:00</time>
      </trkpt>
      <trkpt lat="48.61438" lon="-2.48703">
        <ele>148.85180664062</ele>
        <time>2025-08-01T18:05:13.946+02:00</time>
      </trkpt>
      <trkpt lat="48.61438" lon="-2.48703">
        <ele>148.85180664062</ele>
        <time>2025-08-01T18:05:18.952+02:00</time>
      </trkpt>
      <trkpt lat="48.61438" lon="-2.48703">
        <ele>148.85180664062</ele>
        <time>2025-08-01T18:05:23.963+02:00</time>
      </trkpt>
      <trkpt lat="48.61438" lon="-2.48703">
        <ele>148.85180664062</ele>
        <time>2025-08-01T18:05:28.970+02:00</time>
      </trkpt>
      <trkpt lat="48.61438" lon="-2.48703">
        <ele>148.85180664062</ele>
        <time>2025-08-01T18:05:33.977+02:00</time>
      </trkpt>
      <trkpt lat="48.61438" lon="-2.48703">
        <ele>148.85180664062</ele>
        <time>2025-08-01T18:05:38.982+02:00</time>
      </trkpt>
      <trkpt lat="48.61438" lon="-2.48703">
        <ele>148.85180664062</ele>
        <time>2025-08-01T18:05:43.994+02:00</time>
      </trkpt>
      <trkpt lat="48.61438" lon="-2.48703">
        <ele>148.85180664062</ele>
        <time>2025-08-01T18:05:49.006+02:00</time>
      </trkpt>
      <trkpt lat="48.61438" lon="-2.48703">
        <ele>148.85180664062</ele>
        <time>2025-08-01T18:05:54.016+02:00</time>
      </trkpt>
      <trkpt lat="48.61438" lon="-2.48703">
        <ele>148.85180664062</ele>
        <time>2025-08-01T18:05:59.027+02:00</time>
      </trkpt>
      <trkpt lat="48.61438" lon="-2.48703">
        <ele>148.85180664062</ele>
        <time>2025-08-01T18:06:04.035+02:00</time>
      </trkpt>
      <trkpt lat="48.61438" lon="-2.48703">
        <ele>148.85180664062</ele>
        <time>2025-08-01T18:06:09.042+02:00</time>
      </trkpt>
      <trkpt lat="48.61438" lon="-2.48703">
        <ele>148.85180664062</ele>
        <time>2025-08-01T18:06:14.047+02:00</time>
      </trkpt>
      <trkpt lat="48.61438" lon="-2.48703">
        <ele>148.85180664062</ele>
        <time>2025-08-01T18:06:19.052+02:00</time>
      </trkpt>
      <trkpt lat="48.61438" lon="-2.48703">
        <ele>148.85180664062</ele>
        <time>2025-08-01T18:06:24.061+02:00</time>
      </trkpt>
      <trkpt lat="48.61438" lon="-2.48703">
        <ele>148.85180664062</ele>
        <time>2025-08-01T18:06:29.068+02:00</time>
      </trkpt>
      <trkpt lat="48.61438" lon="-2.48703">
        <ele>148.85180664062</ele>
        <time>2025-08-01T18:06:34.075+02:00</time>
      </trkpt>
      <trkpt lat="48.61438" lon="-2.48703">
        <ele>148.85180664062</ele>
        <time>2025-08-01T18:06:39.081+02:00</time>
      </trkpt>
      <trkpt lat="48.61438" lon="-2.48703">
        <ele>148.85180664062</ele>
        <time>2025-08-01T18:06:44.087+02:00</time>
      </trkpt>
      <trkpt lat="48.61438" lon="-2.48703">
        <ele>148.85180664062</ele>
        <time>2025-08-01T18:06:49.094+02:00</time>
      </trkpt>
      <trkpt lat="48.61438" lon="-2.48703">
        <ele>148.85180664062</ele>
        <time>2025-08-01T18:06:54.103+02:00</time>
      </trkpt>
      <trkpt lat="48.61438" lon="-2.48703">
        <ele>148.85180664062</ele>
        <time>2025-08-01T18:06:59.106+02:00</time>
      </trkpt>
      <trkpt lat="48.61438" lon="-2.48703">
        <ele>148.85180664062</ele>
        <time>2025-08-01T18:07:04.115+02:00</time>
      </trkpt>
      <trkpt lat="48.61438" lon="-2.48703">
        <ele>148.85180664062</ele>
        <time>2025-08-01T18:07:09.119+02:00</time>
      </trkpt>
      <trkpt lat="48.61438" lon="-2.48703">
        <ele>148.85180664062</ele>
        <time>2025-08-01T18:07:14.122+02:00</time>
      </trkpt>
      <trkpt lat="48.61438" lon="-2.48703">
        <ele>148.85180664062</ele>
        <time>2025-08-01T18:07:19.127+02:00</time>
      </trkpt>
      <trkpt lat="48.60458" lon="-2.505">
        <ele>71.225280761719</ele>
        <time>2025-08-01T18:07:27.000+02:00</time>
      </trkpt>
      <trkpt lat="48.60455" lon="-2.50498">
        <ele>66.905822753906</ele>
        <time>2025-08-01T18:07:36.000+02:00</time>
      </trkpt>
      <trkpt lat="48.60456" lon="-2.50501">
        <ele>70.327697753906</ele>
        <time>2025-08-01T18:07:41.000+02:00</time>
      </trkpt>
      <trkpt lat="48.60458" lon="-2.50506">
        <ele>72.929565429688</ele>
        <time>2025-08-01T18:07:46.000+02:00</time>
      </trkpt>
      <trkpt lat="48.60458" lon="-2.50507">
        <ele>71.495361328125</ele>
        <time>2025-08-01T18:07:51.000+02:00</time>
      </trkpt>
      <trkpt lat="48.60462" lon="-2.50522">
        <ele>68.937255859375</ele>
        <time>2025-08-01T18:07:56.000+02:00</time>
      </trkpt>
      <trkpt lat="48.60461" lon="-2.50533">
        <ele>68.309020996094</ele>
        <time>2025-08-01T18:08:01.000+02:00</time>
      </trkpt>
      <trkpt lat="48.60455" lon="-2.50542">
        <ele>67.749450683594</ele>
        <time>2025-08-01T18:08:06.000+02:00</time>
      </trkpt>
      <trkpt lat="48.60461" lon="-2.50539">
        <ele>71.733825683594</ele>
        <time>2025-08-01T18:08:11.000+02:00</time>
      </trkpt>
      <trkpt lat="48.60463" lon="-2.50539">
        <ele>66.763061523438</ele>
        <time>2025-08-01T18:08:16.000+02:00</time>
      </trkpt>
      <trkpt lat="48.60461" lon="-2.50539">
        <ele>64.21484375</ele>
        <time>2025-08-01T18:08:21.000+02:00</time>
      </trkpt>
      <trkpt lat="48.6046" lon="-2.50538">
        <ele>63.135681152344</ele>
        <time>2025-08-01T18:08:26.000+02:00</time>
      </trkpt>
      <trkpt lat="48.60461" lon="-2.50538">
        <ele>65.551818847656</ele>
        <time>2025-08-01T18:08:31.000+02:00</time>
      </trkpt>
      <trkpt lat="48.60461" lon="-2.50539">
        <ele>69.865356445312</ele>
        <time>2025-08-01T18:08:36.000+02:00</time>
      </trkpt>
      <trkpt lat="48.60463" lon="-2.50539">
        <ele>61.729309082031</ele>
        <time>2025-08-01T18:08:46.000+02:00</time>
      </trkpt>
      <trkpt lat="48.60462" lon="-2.50534">
        <ele>65.379089355469</ele>
        <time>2025-08-01T18:08:51.000+02:00</time>
      </trkpt>
      <trkpt lat="48.60461" lon="-2.50533">
        <ele>63.454467773438</ele>
        <time>2025-08-01T18:08:56.000+02:00</time>
      </trkpt>
      <trkpt lat="48.60461" lon="-2.50533">
        <ele>63.563842773438</ele>
        <time>2025-08-01T18:09:01.000+02:00</time>
      </trkpt>
      <trkpt lat="48.60461" lon="-2.50534">
        <ele>65.061157226562</ele>
        <time>2025-08-01T18:09:06.000+02:00</time>
      </trkpt>
      <trkpt lat="48.6046" lon="-2.50535">
        <ele>65.246887207031</ele>
        <time>2025-08-01T18:09:11.000+02:00</time>
      </trkpt>
      <trkpt lat="48.60461" lon="-2.50537">
        <ele>63.796813964844</ele>
        <time>2025-08-01T18:09:16.000+02:00</time>
      </trkpt>
      <trkpt lat="48.60461" lon="-2.50538">
        <ele>63.803344726562</ele>
        <time>2025-08-01T18:09:21.000+02:00</time>
      </trkpt>
      <trkpt lat="48.60461" lon="-2.50538">
        <ele>63.916748046875</ele>
        <time>2025-08-01T18:09:26.000+02:00</time>
      </trkpt>
      <trkpt lat="48.60461" lon="-2.50538">
        <ele>63.801452636719</ele>
        <time>2025-08-01T18:09:31.000+02:00</time>
      </trkpt>
      <trkpt lat="48.60461" lon="-2.5053">
        <ele>65.652099609375</ele>
        <time>2025-08-01T18:09:36.000+02:00</time>
      </trkpt>
      <trkpt lat="48.60461" lon="-2.50516">
        <ele>67.257263183594</ele>
        <time>2025-08-01T18:09:41.000+02:00</time>
      </trkpt>
      <trkpt lat="48.60461" lon="-2.50504">
        <ele>67.453063964844</ele>
        <time>2025-08-01T18:09:46.000+02:00</time>
      </trkpt>
      <trkpt lat="48.6046" lon="-2.50493">
        <ele>66.97705078125</ele>
        <time>2025-08-01T18:09:51.000+02:00</time>
      </trkpt>
      <trkpt lat="48.60459" lon="-2.50485">
        <ele>66.836730957031</ele>
        <time>2025-08-01T18:09:56.000+02:00</time>
      </trkpt>
      <trkpt lat="48.60458" lon="-2.5048">
        <ele>66.396118164062</ele>
        <time>2025-08-01T18:10:01.000+02:00</time>
      </trkpt>
      <trkpt lat="48.60457" lon="-2.50476">
        <ele>65.860534667969</ele>
        <time>2025-08-01T18:10:06.000+02:00</time>
      </trkpt>
      <trkpt lat="48.60458" lon="-2.50475">
        <ele>65.022399902344</ele>
        <time>2025-08-01T18:10:11.000+02:00</time>
      </trkpt>
      <trkpt lat="48.6046" lon="-2.50477">
        <ele>65.676940917969</ele>
        <time>2025-08-01T18:10:16.000+02:00</time>
      </trkpt>
      <trkpt lat="48.60459" lon="-2.50478">
        <ele>66.962219238281</ele>
        <time>2025-08-01T18:10:21.000+02:00</time>
      </trkpt>
      <trkpt lat="48.60459" lon="-2.50481">
        <ele>67.890441894531</ele>
        <time>2025-08-01T18:10:26.000+02:00</time>
      </trkpt>
      <trkpt lat="48.60459" lon="-2.50481">
        <ele>68.263916015625</ele>
        <time>2025-08-01T18:10:31.000+02:00</time>
      </trkpt>
      <trkpt lat="48.60459" lon="-2.50481">
        <ele>68.437133789062</ele>
        <time>2025-08-01T18:10:36.000+02:00</time>
      </trkpt>
      <trkpt lat="48.60459" lon="-2.5048">
        <ele>68.32373046875</ele>
        <time>2025-08-01T18:10:41.000+02:00</time>
      </trkpt>
      <trkpt lat="48.60459" lon="-2.5048">
        <ele>67.492797851562</ele>
        <time>2025-08-01T18:10:46.000+02:00</time>
      </trkpt>
      <trkpt lat="48.60459" lon="-2.5048">
        <ele>67.280639648438</ele>
        <time>2025-08-01T18:10:51.000+02:00</time>
      </trkpt>
      <trkpt lat="48.60459" lon="-2.5048">
        <ele>67.230895996094</ele>
        <time>2025-08-01T18:10:56.000+02:00</time>
      </trkpt>
      <trkpt lat="48.60458" lon="-2.5048">
        <ele>67.315307617188</ele>
        <time>2025-08-01T18:11:01.000+02:00</time>
      </trkpt>
      <trkpt lat="48.60457" lon="-2.5048">
        <ele>67.165771484375</ele>
        <time>2025-08-01T18:11:06.000+02:00</time>
      </trkpt>
      <trkpt lat="48.60457" lon="-2.50478">
        <ele>66.429016113281</ele>
        <time>2025-08-01T18:11:16.000+02:00</time>
      </trkpt>
      <trkpt lat="48.60458" lon="-2.50477">
        <ele>67.076599121094</ele>
        <time>2025-08-01T18:11:21.000+02:00</time>
      </trkpt>
      <trkpt lat="48.60459" lon="-2.50477">
        <ele>67.839660644531</ele>
        <time>2025-08-01T18:11:26.000+02:00</time>
      </trkpt>
      <trkpt lat="48.60459" lon="-2.50477">
        <ele>67.344909667969</ele>
        <time>2025-08-01T18:11:31.000+02:00</time>
      </trkpt>
      <trkpt lat="48.60459" lon="-2.50477">
        <ele>67.868347167969</ele>
        <time>2025-08-01T18:11:36.000+02:00</time>
      </trkpt>
      <trkpt lat="48.60458" lon="-2.50477">
        <ele>67.968933105469</ele>
        <time>2025-08-01T18:11:41.000+02:00</time>
      </trkpt>
      <trkpt lat="48.60459" lon="-2.50477">
        <ele>68.238403320312</ele>
        <time>2025-08-01T18:11:46.000+02:00</time>
      </trkpt>
      <trkpt lat="48.60459" lon="-2.50478">
        <ele>68.394714355469</ele>
        <time>2025-08-01T18:11:51.000+02:00</time>
      </trkpt>
      <trkpt lat="48.6046" lon="-2.50477">
        <ele>68.905944824219</ele>
        <time>2025-08-01T18:11:56.000+02:00</time>
      </trkpt>
      <trkpt lat="48.6046" lon="-2.50478">
        <ele>69.164001464844</ele>
        <time>2025-08-01T18:12:01.000+02:00</time>
      </trkpt>
      <trkpt lat="48.6046" lon="-2.50478">
        <ele>70.114501953125</ele>
        <time>2025-08-01T18:12:06.000+02:00</time>
      </trkpt>
      <trkpt lat="48.6046" lon="-2.50477">
        <ele>70.146728515625</ele>
        <time>2025-08-01T18:12:11.000+02:00</time>
      </trkpt>
      <trkpt lat="48.6046" lon="-2.50478">
        <ele>70.168334960938</ele>
        <time>2025-08-01T18:12:16.000+02:00</time>
      </trkpt>
      <trkpt lat="48.6046" lon="-2.50478">
        <ele>70.159057617188</ele>
        <time>2025-08-01T18:12:21.000+02:00</time>
      </trkpt>
      <trkpt lat="48.6046" lon="-2.50478">
        <ele>70.153076171875</ele>
        <time>2025-08-01T18:12:26.000+02:00</time>
      </trkpt>
      <trkpt lat="48.6046" lon="-2.50478">
        <ele>70.147277832031</ele>
        <time>2025-08-01T18:12:31.000+02:00</time>
      </trkpt>
      <trkpt lat="48.6046" lon="-2.50478">
        <ele>70.16064453125</ele>
        <time>2025-08-01T18:12:36.000+02:00</time>
      </trkpt>
      <trkpt lat="48.6046" lon="-2.50478">
        <ele>70.155029296875</ele>
        <time>2025-08-01T18:12:41.000+02:00</time>
      </trkpt>
      <trkpt lat="48.6046" lon="-2.50478">
        <ele>70.141235351562</ele>
        <time>2025-08-01T18:12:46.000+02:00</time>
      </trkpt>
      <trkpt lat="48.6046" lon="-2.50478">
        <ele>70.13134765625</ele>
        <time>2025-08-01T18:12:51.000+02:00</time>
      </trkpt>
      <trkpt lat="48.6046" lon="-2.50478">
        <ele>70.259948730469</ele>
        <time>2025-08-01T18:13:01.000+02:00</time>
      </trkpt>
    </trkseg>
  </trk>
</gpx>